GFSNGP_500_rhum_000.txt.gz
RH
99 99 100 90 92 88 68 79 96 100 95 81 98 78 77 66 57 53 48 44 40 38 35 33 30 27 23 18 15 19 39 55 71 87 82 74 75 73 77 86 40 70 67 71
93 95 87 66 81 92 96 96 96 95 99 95 96 79 62 58 54 54 52 50 45 36 32 31 30 28 20 12 16 26 38 67 78 82 83 83 85 89 84 59 69 66 78 85
92 97 96 94 98 97 98 98 97 95 88 100 86 68 54 56 56 54 56 54 50 45 36 31 21 11 6 9 23 50 71 73 88 86 85 95 98 94 80 56 64 85 91 64
98 98 98 79 97 96 99 95 97 97 100 92 82 77 68 55 46 44 48 52 59 52 42 30 16 11 25 45 59 67 81 92 94 95 98 96 89 57 60 73 92 92 64 38
81 76 73 73 89 92 66 87 92 87 92 89 85 81 77 71 68 70 68 61 56 50 38 19 16 27 40 61 80 92 100 100 98 95 92 54 47 65 76 89 92 59 42 39
70 70 71 78 80 80 84 83 75 73 72 76 82 74 65 60 58 66 66 62 60 51 38 36 45 59 74 89 95 86 86 85 80 63 40 56 61 72 94 84 55 46 41 37
58 71 74 82 90 88 89 87 74 73 70 66 65 59 55 58 62 56 61 76 75 65 58 58 66 84 83 64 55 54 61 55 36 43 55 62 82 94 73 55 50 44 37 25
57 74 73 78 73 75 76 76 67 63 65 66 68 69 63 59 65 74 76 74 70 64 75 87 90 92 94 76 69 56 35 36 51 62 69 89 84 70 57 56 47 35 26 22
67 72 68 71 70 75 82 80 83 79 74 77 79 76 74 80 82 81 77 76 84 91 94 87 65 63 81 76 58 47 60 70 67 82 83 80 68 62 56 45 33 26 23 24
84 69 68 71 71 68 80 82 86 82 81 79 75 75 78 82 85 88 95 95 90 82 81 80 75 60 54 55 60 66 63 75 81 77 78 72 67 55 42 31 26 26 27 26
94 89 72 77 70 72 70 79 86 90 97 89 87 93 95 96 91 87 84 83 78 69 54 39 30 33 52 67 65 75 81 73 78 75 72 60 50 38 30 27 28 28 27 25
92 80 66 63 64 64 64 76 79 84 88 88 92 87 82 81 76 58 36 21 18 20 28 38 54 70 69 73 83 70 72 73 74 68 57 48 38 31 31 31 32 30 29 28
87 89 78 63 64 69 70 73 77 89 87 88 75 64 58 52 44 30 30 31 34 40 55 70 67 66 87 71 66 71 73 72 64 55 49 40 33 32 33 36 36 36 32 29
69 80 82 66 67 71 78 88 91 89 77 68 59 58 55 43 31 35 34 40 59 70 64 64 88 78 65 67 73 73 71 63 55 52 43 36 36 36 36 34 34 33 31 23
76 69 73 78 74 82 95 88 71 63 57 56 52 40 30 33 38 34 38 57 62 61 91 91 70 68 73 74 74 72 64 57 57 49 38 38 39 38 36 36 34 32 26 7
92 93 88 92 96 96 83 73 74 75 80 75 54 46 44 41 35 43 57 65 91 92 87 68 73 76 80 79 75 67 62 60 48 41 42 41 41 38 38 36 33 27 8 5
77 84 89 94 91 88 86 80 75 69 64 58 50 47 45 41 53 77 91 95 87 78 66 76 83 88 85 78 69 64 57 45 44 43 43 44 39 39 38 35 28 8 6 10
64 70 71 70 70 70 67 64 59 53 48 44 44 45 53 81 97 95 84 81 71 70 82 90 92 85 76 68 62 51 47 46 44 46 48 43 42 41 35 30 10 7 10 16
63 68 73 74 71 71 65 51 45 44 47 61 80 96 98 89 88 90 81 76 83 90 88 87 80 71 65 60 54 49 46 47 50 50 42 41 39 37 33 12 7 11 13 19
73 76 79 78 69 52 46 54 71 84 96 100 99 95 95 97 90 83 86 87 84 84 81 74 69 64 58 54 50 49 51 52 45 37 38 37 37 35 14 7 10 12 13 19
72 68 60 56 59 68 81 89 93 96 100 100 98 96 93 89 87 81 80 82 83 79 73 69 62 56 52 50 51 51 45 38 37 39 36 37 36 17 8 10 12 9 11 16
66 67 66 69 80 90 96 100 100 100 100 94 91 92 86 77 74 81 86 85 78 72 65 61 56 52 51 51 45 39 37 36 39 37 37 37 20 9 11 14 11 7 13 11
81 84 88 95 99 100 100 100 98 94 88 90 86 77 74 82 89 88 82 74 65 62 60 56 52 51 48 42 36 33 33 38 36 36 37 21 8 11 13 15 13 10 12 11
65 77 89 95 96 94 90 86 80 77 76 76 80 89 92 91 85 74 64 64 63 60 56 53 53 49 42 38 34 33 33 31 33 37 18 8 11 11 16 15 16 12 9 14
52 56 63 66 66 65 62 62 68 80 91 94 91 88 82 73 69 70 71 67 62 60 59 56 51 46 40 36 34 32 32 34 35 11 10 11 10 16 14 16 17 13 11 62
67 66 67 69 72 75 82 91 98 96 87 83 81 78 76 73 72 74 72 68 65 62 56 50 45 42 39 37 34 34 32 32 10 11 11 10 16 14 14 15 14 9 32 60
80 79 74 73 76 81 85 85 81 77 76 78 78 77 78 78 78 76 72 66 58 53 49 46 43 40 38 35 34 30 26 10 11 10 9 14 14 14 15 14 9 17 62 44

GFSNGP_500_rhum_003.txt.gz
RH
100 100 100 50 28 23 36 33 51 99 100 92 90 96 97 94 97 79 64 60 57 51 44 37 31 27 25 24 28 32 29 25 24 44 62 79 78 81 82 79 82 90 93 79
99 100 86 27 19 40 75 84 96 99 98 98 98 96 93 79 87 84 70 64 55 47 42 39 37 35 33 30 28 28 24 27 38 58 72 76 94 94 88 86 94 85 48 60
98 95 82 57 79 92 94 95 98 100 99 98 97 82 76 79 93 90 74 65 57 48 42 37 34 32 30 27 16 15 18 42 59 70 91 92 91 96 97 81 53 45 62 66
99 100 96 97 100 97 97 100 96 91 96 97 93 91 86 96 90 75 72 72 73 67 61 53 37 27 20 14 13 35 53 68 86 93 98 99 88 82 74 51 48 60 70 93
99 90 96 97 91 97 93 96 96 97 98 99 100 81 92 99 100 97 84 82 77 66 54 47 39 30 22 24 42 67 86 94 100 95 74 72 76 66 39 56 65 80 92 74
84 81 87 98 99 91 74 85 88 80 80 76 73 76 100 90 72 75 80 73 66 61 57 54 46 39 48 62 80 92 100 93 77 67 69 66 38 54 65 68 90 84 72 63
74 75 70 68 83 88 92 97 90 82 78 76 81 94 88 74 67 68 73 64 68 73 73 68 63 65 74 91 97 95 96 92 77 71 46 56 68 66 77 87 82 73 59 39
66 81 79 71 71 72 71 66 70 69 70 86 90 83 78 69 63 63 66 78 80 78 75 71 83 95 98 95 84 73 76 72 55 60 68 65 70 84 81 79 70 54 39 34
59 58 50 77 85 85 79 78 78 79 82 80 80 80 80 78 79 79 80 81 80 79 84 98 99 92 84 81 76 62 54 55 63 64 70 82 78 80 74 62 51 41 35 34
60 68 74 78 69 76 88 97 99 99 97 90 85 81 82 89 88 81 78 81 86 91 88 80 79 76 61 48 40 44 62 68 69 82 74 74 74 69 56 50 43 38 35 35
59 71 69 65 66 69 74 76 80 87 93 97 96 90 86 83 80 84 86 85 83 74 52 42 37 30 28 45 67 70 67 82 73 67 73 72 64 55 54 48 40 36 34 33
67 67 58 63 67 64 70 68 80 86 94 99 99 93 92 93 91 87 89 72 40 32 34 34 35 46 66 73 64 82 78 67 71 74 68 61 58 60 49 40 40 38 39 35
92 84 85 84 72 62 66 69 63 79 98 98 98 99 91 83 84 70 53 41 38 39 40 52 72 74 62 82 90 70 70 78 74 68 63 62 60 45 44 47 47 45 35 32
83 80 83 80 79 65 59 70 72 74 91 93 91 85 76 66 60 51 37 38 40 39 50 65 63 73 96 86 73 77 81 76 70 65 62 53 45 46 42 41 38 32 32 26
81 90 69 78 88 75 63 76 87 92 89 79 71 61 58 50 36 34 40 42 40 49 61 67 93 94 83 74 80 82 78 70 63 58 51 50 46 44 41 34 28 27 25 25
82 74 64 70 75 84 81 88 94 82 75 60 69 76 67 57 50 46 46 47 58 68 90 95 91 77 80 82 82 75 67 61 58 55 50 46 43 36 30 28 28 26 25 17
92 94 92 86 89 93 97 87 72 71 74 76 67 61 56 47 45 46 49 67 90 96 87 86 80 83 78 78 72 67 61 57 51 47 47 38 31 29 28 28 27 26 17 6
90 92 99 98 100 100 95 89 80 73 68 64 55 48 43 43 50 67 94 96 89 89 86 82 76 76 76 71 66 60 53 47 47 43 37 33 31 29 28 28 28 17 7 10
65 73 80 80 78 76 73 67 63 63 58 47 43 45 57 84 96 94 90 96 93 84 78 74 76 75 70 66 59 50 48 48 44 40 36 31 30 29 29 30 18 7 10 12
69 73 82 82 78 75 75 77 76 54 48 58 75 92 96 98 100 100 95 89 80 71 73 77 75 70 63 53 51 50 50 45 39 36 32 30 29 30 29 15 7 10 12 13
79 74 72 72 80 84 80 63 61 71 86 93 98 100 100 100 98 93 85 72 72 79 80 75 66 56 54 54 54 50 42 38 35 31 28 30 30 27 13 8 10 11 13 11
96 96 93 87 81 76 74 81 94 100 100 100 100 100 100 95 88 76 71 82 86 80 69 60 58 57 56 56 49 42 38 34 31 30 31 30 24 11 9 9 10 14 13 9
75 76 75 72 73 79 92 100 100 100 100 100 100 95 87 79 72 81 89 86 74 64 62 60 58 59 57 49 45 39 35 33 31 31 28 20 9 9 9 10 14 14 14 9
70 72 74 77 85 94 99 100 100 100 98 94 88 77 71 80 90 90 80 70 65 64 61 62 60 55 51 47 41 36 34 32 31 27 17 6 8 8 10 13 14 14 9 38
46 46 51 60 73 90 99 96 91 87 82 75 75 85 93 93 85 75 71 69 66 63 62 58 53 51 49 41 37 35 32 32 26 15 6 6 8 11 12 11 13 13 18 59
59 53 55 59 62 65 68 70 74 78 85 92 90 88 85 80 78 76 73 68 63 60 57 56 53 49 43 40 37 34 32 26 15 6 6 8 11 9 10 13 13 8 55 46
80 84 83 82 81 83 88 94 95 95 91 83 80 83 84 85 79 74 70 67 65 66 62 56 51 46 42 39 36 32 26 16 6 6 9 11 8 12 14 12 8 49 46 54

GFSNGP_500_rhum_006.txt.gz
RH
100 100 100 100 100 29 18 30 44 49 94 100 100 99 82 78 83 88 80 89 75 74 70 65 59 58 55 55 56 50 40 28 26 32 32 29 32 43 76 85 89 94 94 84
98 99 82 50 27 20 22 36 78 92 100 97 100 71 76 65 75 84 98 93 99 93 75 65 60 59 57 47 37 28 30 33 35 39 23 30 64 83 95 96 98 83 77 65
98 99 78 33 56 91 80 88 92 100 96 99 99 97 99 99 100 98 97 93 92 87 68 56 49 41 37 35 35 33 35 32 16 25 53 74 90 96 98 82 72 71 50 46
97 97 100 100 98 99 97 100 95 87 89 96 99 95 90 90 94 91 87 78 71 58 50 46 43 39 38 37 33 22 13 30 48 70 85 90 96 92 78 75 71 45 63 68
99 95 98 99 85 66 78 86 95 95 98 93 82 92 99 96 94 86 85 82 70 68 71 62 47 32 24 23 28 37 50 69 80 84 95 98 94 87 82 61 61 68 68 81
94 95 78 97 95 81 70 85 90 97 89 95 93 95 95 95 89 86 86 95 93 82 59 52 53 52 48 48 58 66 75 82 97 97 94 90 84 67 59 65 66 76 84 79
72 72 71 72 74 74 74 79 84 90 94 99 92 83 84 80 83 88 82 79 89 90 81 75 70 67 65 68 76 87 91 93 89 82 80 68 55 63 66 72 82 77 72 65
60 56 59 68 73 77 74 72 74 77 76 71 71 65 68 74 75 84 94 100 90 89 87 83 77 76 81 88 92 95 91 85 79 64 50 55 67 72 80 78 73 67 59 57
67 57 48 51 58 58 56 66 72 72 73 71 72 72 73 81 94 97 98 100 99 95 88 84 85 90 97 97 90 84 66 48 38 47 70 71 79 76 71 66 63 59 60 54
50 52 62 65 65 63 64 70 73 72 69 64 65 77 88 99 98 99 100 100 97 92 91 94 92 83 74 56 36 30 31 48 65 68 79 78 71 70 67 64 62 61 50 48
46 64 78 86 82 72 70 79 83 81 83 84 87 85 94 98 99 100 100 100 100 100 92 78 46 34 33 33 37 50 66 67 80 86 72 72 70 70 67 64 55 49 41 33
59 74 78 83 78 78 75 84 82 96 98 95 98 98 99 100 100 100 100 100 95 82 42 37 37 36 38 53 69 68 75 94 80 75 73 73 72 69 60 54 46 38 33 30
74 80 94 92 94 84 84 91 81 78 96 98 99 99 100 99 100 99 96 84 57 39 37 41 42 45 59 69 70 92 92 78 71 71 76 72 66 59 54 46 38 34 30 27
76 76 86 93 98 90 78 83 75 80 84 91 99 99 98 96 88 78 67 57 40 38 42 45 45 54 64 87 92 88 76 68 74 76 70 63 52 45 42 38 34 31 30 29
79 75 77 83 88 94 94 85 71 85 100 98 99 97 92 80 68 55 48 46 42 46 47 48 55 69 91 90 85 72 68 75 75 70 58 47 45 42 37 32 27 26 26 28
66 73 81 95 85 91 94 89 76 85 100 99 96 80 71 81 77 64 53 48 47 47 49 64 86 91 90 80 68 71 77 74 68 52 47 44 42 36 31 28 27 26 25 23
91 97 98 75 69 82 92 100 100 100 98 76 69 80 79 73 66 56 46 45 47 65 90 92 92 90 74 67 72 74 71 59 50 46 45 42 36 30 28 26 24 24 22 9
94 100 100 92 89 100 100 100 100 87 81 80 87 87 71 58 48 46 50 77 96 95 92 95 82 67 67 71 74 65 54 50 45 46 41 37 32 29 27 23 22 19 7 6
98 98 99 100 100 100 100 100 98 95 83 70 63 63 54 48 55 85 100 98 95 96 90 75 65 71 74 71 59 55 50 46 45 40 39 34 30 27 21 21 17 6 6 8
95 88 85 89 90 88 85 83 81 84 87 84 70 61 77 96 100 99 98 96 93 88 71 70 76 74 66 59 56 49 45 42 41 38 35 32 27 20 21 16 5 6 7 9
91 79 74 79 84 84 83 82 87 92 88 74 77 94 100 100 99 97 95 94 84 72 79 81 72 62 62 55 47 43 42 41 39 37 32 28 22 20 15 4 6 7 10 11
90 94 92 84 80 87 97 99 97 90 87 92 100 100 100 99 99 96 92 81 76 87 81 70 66 64 56 48 47 46 44 42 39 35 28 21 20 14 4 6 9 11 12 12
89 95 97 99 100 99 100 97 92 94 100 100 100 100 99 98 95 92 81 86 89 78 71 68 62 54 51 54 51 47 45 40 36 28 20 19 14 4 6 9 9 9 11 10
79 78 80 81 86 90 92 97 100 100 100 100 100 100 97 93 85 83 97 86 76 73 67 61 57 57 58 56 52 45 41 35 26 19 18 13 4 6 8 8 11 11 10 29
71 67 62 62 64 67 76 90 100 100 100 100 96 90 83 82 98 97 86 79 75 69 65 62 62 63 61 54 46 41 35 26 20 18 13 5 5 8 8 11 11 9 26 48
58 56 55 52 51 54 60 67 76 80 79 81 85 90 98 99 95 92 86 79 73 72 73 71 65 62 56 48 41 34 26 21 17 14 5 5 8 8 10 11 8 26 44 50
81 77 72 68 63 62 66 71 77 87 94 99 100 99 93 92 93 92 88 82 80 78 71 65 59 52 47 41 35 28 21 16 14 6 4 8 8 8 11 7 25 43 42 47

GFSNGP_500_rhum_009.txt.gz
RH
93 100 97 92 58 46 39 40 54 64 70 99 61 72 100 89 65 60 48 40 41 47 56 55 53 66 68 66 62 58 63 63 62 60 50 37 38 42 38 36 57 87 94 87
100 97 88 68 60 27 26 35 66 68 78 65 99 94 85 97 72 69 64 61 70 78 72 64 60 67 75 71 69 73 72 64 59 50 38 47 39 27 39 83 96 95 88 83
93 99 99 96 100 83 79 94 97 99 95 100 100 99 93 93 100 100 96 90 87 93 98 90 84 83 82 80 77 75 66 48 38 44 44 26 32 77 93 97 93 90 84 78
98 97 100 100 84 100 100 82 86 96 100 100 69 95 79 95 98 99 91 85 94 97 94 92 88 81 79 71 58 45 42 43 41 23 31 71 97 96 97 92 85 82 67 60
94 98 100 71 78 89 84 77 77 95 97 95 93 98 97 82 94 94 96 97 97 98 97 97 89 64 50 46 42 37 25 21 36 75 95 90 91 92 86 77 74 58 64 69
100 95 100 81 74 84 87 95 98 99 97 92 91 93 91 92 97 98 98 99 98 98 93 89 90 82 57 36 32 37 59 81 92 95 96 95 86 78 77 59 61 68 76 76
74 97 95 97 100 95 83 86 95 98 97 94 99 100 92 96 98 95 97 98 99 100 91 85 76 65 62 65 73 80 89 96 97 98 94 87 78 55 59 68 74 79 71 67
55 66 80 95 90 96 89 95 98 98 99 100 91 88 98 100 98 98 93 85 86 90 89 88 87 86 81 80 90 93 96 99 98 88 66 45 53 69 72 80 76 69 70 71
41 62 65 66 74 83 82 83 80 85 86 91 89 97 100 100 95 97 93 88 87 78 88 94 88 86 89 95 99 99 88 65 39 34 48 70 70 81 82 70 68 71 69 56
40 44 54 73 75 67 62 62 65 64 68 76 83 87 92 94 82 79 78 85 95 93 89 88 93 97 98 84 54 38 37 40 56 70 69 80 88 75 68 70 71 62 46 40
42 48 57 62 68 64 62 74 78 78 81 84 87 83 86 84 81 89 96 97 92 90 93 98 94 73 44 41 40 42 51 64 67 78 88 83 72 70 74 68 54 41 41 38
53 51 64 65 70 73 75 79 76 79 83 95 96 92 92 87 86 85 88 87 88 97 96 77 49 44 44 44 43 51 61 74 89 88 77 69 71 71 64 47 41 40 37 30
77 70 70 82 87 97 94 93 79 73 76 93 95 99 98 98 87 85 85 96 98 69 51 45 45 44 45 45 52 65 88 88 83 71 67 72 69 61 46 45 41 35 30 27
91 87 80 84 90 94 94 96 88 66 71 74 94 97 98 99 99 98 94 80 64 51 47 47 44 48 48 55 79 89 86 80 69 70 70 65 52 46 43 39 36 35 31 26
92 90 90 95 97 99 99 99 85 76 81 90 90 99 99 97 88 78 70 66 74 60 46 49 48 50 72 94 92 88 75 67 69 69 60 49 46 41 36 32 31 29 26 20
69 71 75 87 94 100 98 98 97 91 81 90 98 99 95 83 92 96 87 72 56 50 48 51 76 96 98 94 87 74 69 71 67 53 49 44 38 34 32 31 30 25 18 15
81 77 75 85 95 96 92 100 92 77 96 98 95 85 86 90 91 91 78 54 48 51 75 94 96 96 93 82 73 75 74 62 52 49 44 38 37 33 30 28 23 18 15 10
94 94 96 97 98 97 100 98 99 98 95 93 97 99 92 88 76 65 56 52 76 96 97 97 93 91 79 74 80 76 59 53 48 44 42 40 33 28 26 21 17 14 9 4
95 98 98 96 94 96 98 99 98 96 97 96 89 81 80 81 79 62 78 97 98 97 93 90 87 76 75 82 73 60 53 48 47 46 42 35 29 25 21 18 14 8 4 7
98 96 96 97 97 97 96 95 94 88 87 87 86 83 86 80 80 96 100 99 97 95 92 80 73 82 83 71 61 53 51 51 47 44 38 31 25 22 19 16 9 4 6 8
100 99 96 94 92 93 93 90 87 82 79 84 90 86 87 96 97 99 100 100 98 91 79 78 88 81 71 62 54 55 53 47 43 40 31 27 23 20 16 9 4 6 7 9
100 97 96 90 84 83 81 79 76 82 94 98 97 96 96 96 100 100 99 97 88 82 92 93 80 72 62 59 60 55 47 43 39 32 27 25 21 16 9 4 6 7 10 9
92 97 98 99 100 97 100 98 98 96 97 99 100 100 100 100 100 98 96 90 89 100 94 80 72 64 67 68 57 44 37 33 31 28 27 23 18 11 4 6 7 9 8 14
89 88 89 93 99 100 98 89 90 98 100 100 100 100 100 97 93 94 90 99 100 94 83 74 68 70 70 58 50 45 37 31 30 27 25 18 12 4 6 7 9 8 15 40
86 85 88 91 93 92 89 83 84 85 89 96 98 98 92 87 89 95 100 100 95 83 77 75 64 61 60 55 50 37 31 30 27 26 19 12 5 4 7 8 7 17 40 36
78 69 68 65 61 57 56 57 57 59 64 73 78 79 84 93 100 100 100 94 87 82 77 64 62 62 58 49 41 35 31 29 25 20 14 6 5 7 8 7 22 41 40 33
91 83 70 64 64 65 67 66 63 65 73 79 88 97 100 100 100 100 98 94 82 78 73 71 67 64 59 48 40 33 28 23 18 13 8 5 7 7 8 15 39 40 39 35

GFSNGP_500_rhum_012.txt.gz
RH
78 87 85 88 82 86 50 26 37 73 70 97 100 65 53 32 64 32 21 21 32 42 40 42 44 44 43 47 58 70 76 78 73 76 92 93 92 95 82 59 64 89 51 56
91 97 96 98 94 83 79 82 63 92 100 96 100 92 62 88 100 36 20 25 39 45 44 48 50 52 53 59 84 79 88 83 88 99 100 91 74 72 66 66 88 45 82 98
91 98 97 83 75 69 75 82 88 83 89 99 100 100 100 87 58 44 49 49 52 49 53 57 64 61 64 76 91 95 96 81 100 96 82 77 61 67 61 60 68 95 100 100
98 91 87 80 67 64 65 80 73 97 100 98 88 94 82 68 61 58 58 54 54 58 62 66 72 76 87 87 98 96 100 100 96 87 64 58 60 45 66 91 98 100 95 80
97 98 98 92 88 79 83 93 96 96 86 76 87 90 90 100 100 100 100 95 89 90 99 100 99 95 95 100 100 99 96 82 70 56 49 39 57 89 99 100 99 87 68 52
83 98 99 96 92 90 86 96 100 100 99 97 91 72 96 98 92 100 100 88 82 95 100 99 96 96 98 99 98 97 78 51 35 36 68 90 100 100 100 93 71 48 63 77
70 83 97 99 100 93 97 96 95 88 100 97 98 97 96 86 76 87 92 95 97 96 95 97 97 97 97 94 85 78 82 77 80 95 100 100 100 91 61 45 61 75 84 81
64 75 78 86 98 100 91 85 90 94 99 93 93 94 96 98 100 99 99 99 99 94 94 96 96 97 80 79 81 82 89 96 99 100 96 72 45 40 63 74 84 86 78 71
52 62 71 81 96 99 96 92 90 84 81 83 93 99 99 95 98 100 97 95 100 99 98 97 93 92 91 88 93 99 100 96 64 41 38 49 70 72 81 90 81 72 70 66
42 48 65 71 73 76 78 80 86 82 88 90 93 93 96 96 97 92 95 97 92 95 96 98 97 93 93 96 98 67 43 40 40 45 62 70 77 91 84 73 66 67 59 44
52 45 55 67 75 85 83 90 86 84 94 95 98 95 91 95 100 99 90 89 95 96 96 90 88 97 93 55 41 44 45 45 51 62 77 90 86 76 65 66 63 50 41 37
60 57 49 55 78 89 78 83 86 90 92 97 99 98 99 99 94 96 94 96 96 85 83 88 93 57 43 46 44 47 49 56 70 90 87 82 70 66 67 56 44 38 33 32
63 70 59 57 75 84 82 89 80 79 88 86 97 97 99 98 98 98 92 88 90 88 99 80 61 54 46 46 50 52 63 92 93 89 81 68 70 62 48 43 37 35 34 31
69 85 88 75 83 87 87 85 81 84 82 88 75 98 100 96 95 96 97 97 96 87 70 68 67 52 49 50 60 89 95 92 89 74 70 70 56 48 42 39 39 38 29 22
85 96 94 94 94 100 99 96 98 96 94 97 98 91 100 99 99 99 97 89 91 94 74 53 50 50 67 90 94 92 92 85 70 72 67 54 48 42 42 40 37 28 21 19
69 78 89 85 92 95 99 98 98 96 93 93 94 93 98 99 95 98 97 97 93 65 53 52 65 90 92 90 91 92 77 69 75 65 55 49 44 44 41 38 28 21 17 12
75 70 70 72 76 84 96 91 96 97 87 86 89 100 98 97 96 96 87 76 71 59 64 85 88 87 89 92 90 69 75 78 64 58 50 46 43 40 36 25 20 19 14 10
88 88 79 77 81 88 86 95 100 99 90 93 98 96 97 90 82 78 80 77 72 82 81 84 86 90 91 76 73 84 76 65 60 53 48 43 37 30 22 19 17 15 12 7
98 95 97 97 100 91 92 96 94 99 99 99 97 89 83 84 86 86 81 82 81 84 89 91 93 85 73 84 86 73 67 61 56 53 42 33 25 22 19 17 15 11 8 4
100 98 98 99 97 98 98 98 97 94 90 86 86 85 82 85 85 85 90 89 91 94 94 95 82 79 91 84 75 69 63 60 57 46 37 25 23 21 19 14 11 8 4 5
100 100 99 98 98 96 95 97 97 93 89 85 77 80 88 94 94 95 94 98 95 93 88 80 91 96 85 78 70 65 62 59 51 41 28 24 20 18 14 12 8 4 5 7
96 97 98 99 100 99 98 95 90 86 82 81 92 98 96 95 96 100 100 99 94 85 87 98 97 86 80 74 67 57 57 51 39 34 27 21 18 15 14 8 4 5 7 7
100 100 98 96 96 95 95 98 99 100 100 100 99 95 95 96 100 99 99 93 85 94 98 96 89 82 78 68 59 59 54 43 38 32 26 20 17 15 9 4 5 7 7 24
100 100 100 100 100 100 100 100 100 98 94 91 92 93 94 94 97 96 91 91 99 100 97 91 87 82 70 67 66 58 51 45 41 32 23 19 17 10 4 6 7 7 22 33
100 100 100 100 99 97 95 94 92 92 90 84 80 80 83 87 88 91 97 100 100 97 94 94 84 78 75 67 57 51 49 46 36 26 21 18 12 5 5 7 7 20 38 30
91 90 89 86 87 88 86 81 72 64 61 62 65 68 74 80 89 100 100 100 99 97 100 89 76 66 56 51 49 47 43 34 26 23 18 11 5 5 6 7 14 40 34 30
84 89 94 86 72 67 64 63 64 67 69 70 72 82 91 97 97 99 100 99 98 95 92 83 72 58 53 52 48 42 33 26 20 16 10 5 4 5 6 9 39 38 32 32

GFSNGP_500_rhum_018.txt.gz
RH
73 71 71 61 71 77 53 64 62 71 83 90 100 98 100 94 100 100 100 75 48 84 99 100 100 97 86 98 79 67 56 51 52 49 52 58 55 47 53 72 82 76 85 93
82 77 62 80 79 62 66 60 57 68 80 96 98 59 86 97 79 37 29 33 53 99 100 100 100 98 100 88 69 62 61 55 51 51 56 48 54 66 61 86 84 82 87 100
86 71 71 72 70 61 63 59 47 55 90 96 93 59 47 71 88 39 38 57 95 94 82 88 92 98 85 70 76 65 60 53 49 53 61 96 91 71 96 95 92 99 99 97
97 78 77 81 78 66 66 71 65 54 94 97 99 98 45 36 27 41 46 42 39 54 74 77 72 72 71 76 85 72 69 63 96 73 96 97 99 100 97 99 99 98 83 60
100 96 92 92 79 73 62 78 85 79 83 97 99 93 89 43 29 24 27 28 39 61 61 65 72 73 70 68 78 78 92 72 96 100 95 94 100 100 100 99 90 91 96 100
96 100 99 92 87 79 69 77 80 90 88 81 85 96 99 78 45 44 42 46 54 57 52 53 62 69 67 71 67 87 100 99 87 100 99 94 93 90 83 85 91 100 99 73
86 98 98 100 97 93 77 84 80 79 80 95 81 100 99 99 96 65 54 60 59 58 64 75 73 79 84 92 93 97 98 95 98 98 88 93 82 81 87 98 88 52 49 58
64 59 65 71 76 77 74 77 71 69 72 78 84 83 94 98 100 99 98 93 87 91 90 90 97 100 94 94 94 88 100 95 94 93 81 74 77 74 54 46 49 53 62 83
60 56 50 54 61 59 61 62 66 71 74 73 69 68 79 86 91 100 96 98 95 97 99 96 96 99 98 100 93 88 85 78 73 76 73 54 50 54 56 51 58 84 93 74
51 55 53 45 47 52 49 56 64 66 76 85 88 87 68 72 86 84 92 92 76 80 96 99 99 89 91 86 75 75 81 90 84 51 50 55 56 50 60 86 94 81 65 63
62 50 41 51 54 48 48 49 61 66 78 88 90 95 86 76 74 90 94 87 98 88 82 91 90 86 88 88 93 95 74 58 51 53 54 49 67 89 94 85 67 62 60 51
51 56 50 43 47 56 50 51 63 72 75 83 85 89 98 99 86 85 95 98 99 99 99 99 94 98 98 86 78 71 60 58 54 50 69 85 86 83 71 60 63 58 51 44
43 46 45 39 34 53 58 60 78 83 82 77 77 84 83 94 93 91 88 86 84 88 88 92 98 90 82 80 73 65 55 50 73 83 82 82 76 60 63 64 58 51 47 46
56 73 67 60 60 69 67 79 94 90 94 90 88 88 86 95 97 100 97 96 99 99 100 94 86 83 68 57 53 56 74 80 80 80 78 62 59 67 62 57 50 48 47 44
84 85 84 84 91 98 88 98 100 99 98 96 94 93 91 89 92 96 100 100 99 94 96 85 72 66 60 63 73 75 76 77 77 68 57 68 68 63 53 46 47 44 37 28
74 77 79 92 99 99 99 100 100 99 97 100 98 92 88 95 94 95 99 97 99 87 74 74 72 70 74 74 76 77 77 74 60 65 74 69 60 49 46 46 45 39 35 31
73 76 82 86 81 86 98 99 100 100 100 99 95 94 88 85 95 100 98 97 85 77 80 78 80 81 80 83 82 80 71 64 75 74 67 58 52 48 49 44 36 30 25 22
84 89 87 84 88 83 89 99 100 97 100 98 99 96 95 95 100 99 96 82 83 85 86 88 89 88 88 84 80 71 71 76 73 66 60 54 53 50 33 27 24 20 17 14
95 96 91 85 86 81 79 92 99 100 98 98 99 100 100 100 99 90 91 88 89 90 95 98 98 92 85 81 75 77 79 75 67 60 56 50 36 32 28 22 19 18 16 15
98 97 99 99 99 100 99 99 99 100 94 98 100 100 100 97 95 90 90 98 100 100 100 99 92 88 84 79 80 81 76 69 59 48 40 36 30 26 24 21 18 14 13 11
99 98 97 99 99 100 99 100 99 99 99 99 99 98 98 97 92 93 99 100 100 100 98 95 95 84 81 82 83 80 74 62 50 45 39 32 26 23 18 13 11 11 7 4
98 99 99 99 99 95 96 98 98 100 100 99 99 98 96 97 99 100 100 100 98 97 97 97 84 82 84 86 84 81 68 60 53 43 31 27 20 15 12 10 8 4 3 4
100 100 100 98 97 96 98 99 99 99 97 97 96 99 100 100 100 99 99 98 99 97 92 82 85 88 89 85 79 73 69 58 43 33 27 18 14 9 7 6 3 3 4 6
100 100 99 100 100 99 99 98 99 98 98 99 100 100 100 100 98 95 85 85 82 79 80 88 94 94 88 82 81 76 56 44 35 28 20 12 9 6 4 2 3 4 6 18
98 98 99 100 100 99 97 97 98 99 100 100 100 100 100 100 90 74 66 67 68 73 90 96 97 96 91 89 72 55 45 38 31 24 16 9 6 3 2 3 4 9 22 23
92 94 97 99 100 100 100 100 100 100 100 100 100 100 100 92 74 69 73 81 87 97 100 100 100 95 90 77 63 49 44 35 29 21 10 7 4 3 5 8 18 22 18 21
100 100 100 96 90 96 100 100 100 100 98 98 96 93 89 80 76 87 97 99 100 100 100 100 99 94 86 73 57 52 41 35 24 17 10 6 4 10 17 21 17 16 18 22

GFSNGP_500_rhum_024.txt.gz
RH
25 26 32 44 61 74 70 60 48 58 46 38 32 40 52 48 22 33 42 35 44 50 42 52 79 58 40 38 41 44 42 80 80 53 73 100 86 56 30 42 47 57 61 98
27 35 53 72 81 73 64 54 60 53 42 39 46 52 57 51 25 32 39 47 44 59 66 64 52 47 51 57 59 45 59 90 80 60 98 81 98 45 51 49 58 76 98 66
52 66 72 77 84 68 71 62 58 55 47 45 62 60 56 62 24 29 40 57 74 86 80 77 91 94 98 86 32 30 62 75 60 56 84 63 55 59 56 60 98 79 88 94
77 76 86 86 88 81 72 53 42 46 44 47 54 55 59 64 42 32 43 54 64 66 83 99 100 99 100 100 99 66 91 100 99 100 78 84 92 76 88 88 83 92 98 98
77 88 99 95 98 86 72 59 53 49 51 44 47 52 62 76 82 50 52 55 58 67 99 94 98 99 90 99 100 99 98 97 97 93 82 76 90 70 98 81 99 98 99 100
92 99 99 100 100 86 91 83 49 50 50 54 56 55 68 67 77 86 55 51 53 68 74 78 82 89 90 78 74 76 80 78 86 94 84 97 98 92 93 89 98 99 98 98
98 97 94 97 93 90 80 64 51 54 50 56 52 60 55 67 78 84 81 70 65 84 84 78 78 90 95 97 99 99 97 99 97 96 90 95 98 97 98 98 95 67 52 52
99 93 90 90 75 70 60 47 52 52 52 55 58 58 58 56 64 80 74 89 88 97 98 98 92 88 91 97 93 78 75 97 99 98 98 97 98 90 81 59 52 52 52 47
94 86 71 63 56 51 49 45 44 47 54 54 62 63 66 63 60 71 83 74 81 100 98 95 98 98 98 98 96 100 92 82 78 75 76 81 63 51 51 52 52 49 52 58
97 83 62 62 59 57 56 51 47 43 51 60 71 71 63 63 70 63 83 84 86 86 94 97 100 96 95 82 76 77 78 76 75 63 56 56 55 54 53 48 45 49 50 48
92 84 74 65 49 45 48 44 39 46 54 68 78 80 73 70 71 78 72 88 89 98 100 92 88 84 82 79 78 73 72 69 66 64 61 58 55 48 48 47 47 48 50 53
70 71 64 65 61 59 51 41 38 48 59 80 82 80 85 75 83 77 78 88 95 87 88 84 78 77 79 77 74 74 69 63 60 57 53 51 52 52 51 53 52 55 58 53
56 57 66 69 58 48 39 40 48 54 68 92 92 90 94 86 85 90 95 87 89 90 84 76 77 81 76 72 68 66 61 56 56 58 58 58 58 58 56 59 64 56 44 34
66 62 74 66 58 47 45 58 60 58 72 94 96 92 92 92 96 93 95 93 91 91 89 85 82 81 78 72 66 64 66 68 68 69 68 64 62 62 64 58 48 37 34 34
80 74 73 64 66 58 64 64 58 69 78 92 94 89 88 86 91 92 93 90 84 87 86 84 88 79 77 76 75 75 76 76 75 69 65 63 62 62 56 48 40 38 35 21
78 76 75 71 74 77 72 62 63 92 84 100 95 85 91 87 82 75 86 88 92 91 88 90 82 81 82 80 80 79 78 75 70 68 65 65 65 60 54 46 42 31 18 10
81 76 80 89 87 78 71 68 74 98 99 93 88 96 100 87 89 84 90 94 98 94 96 89 83 83 82 83 81 78 77 74 69 68 70 69 65 62 52 46 24 17 12 7
98 94 90 80 71 69 68 68 74 89 96 100 100 99 87 89 92 91 96 100 100 98 90 84 82 85 86 84 81 81 80 71 70 73 74 69 64 56 42 24 16 12 7 4
98 95 84 84 90 92 92 92 95 90 84 95 90 83 88 97 94 92 93 90 95 90 88 84 84 84 83 85 85 83 72 73 76 75 72 67 60 37 24 17 12 7 5 3
99 100 98 100 100 100 100 100 100 98 100 100 94 79 100 97 98 98 93 92 90 91 87 85 85 87 88 83 80 73 74 77 78 77 72 64 42 29 25 16 11 5 4 6
100 100 99 100 100 97 99 100 100 100 100 100 94 92 100 99 99 97 96 95 95 92 88 87 88 88 81 77 77 75 82 82 82 76 72 54 38 33 30 15 7 5 4 12
100 94 100 100 100 99 100 100 100 100 100 99 99 100 100 96 98 99 99 96 94 95 92 91 92 78 73 76 75 82 88 86 84 80 71 56 44 38 25 14 7 5 9 15
100 100 100 100 100 100 100 100 100 100 100 99 100 100 99 98 100 100 100 99 98 96 96 96 80 70 71 76 84 92 88 87 86 81 70 56 44 30 19 12 7 6 16 14
100 100 100 100 100 100 100 100 99 100 100 100 100 100 100 100 100 99 96 98 100 99 99 88 72 73 84 92 95 91 88 89 85 72 57 42 28 27 20 13 7 8 19 12
95 97 98 99 100 100 100 100 100 100 100 100 100 100 100 100 100 98 99 99 100 100 98 87 83 90 95 95 93 90 88 86 76 60 43 33 31 29 20 9 8 13 20 13
62 70 83 90 93 95 98 99 100 100 100 100 100 100 100 100 100 100 96 100 100 99 97 96 99 100 95 93 92 90 88 86 81 65 48 36 35 28 15 8 10 22 20 15
47 52 54 53 59 75 87 94 97 96 97 98 99 100 100 100 100 100 100 100 100 100 100 100 100 100 93 92 90 88 87 86 83 66 49 39 32 23 12 9 22 28 23 22

GFSNGP_500_rhum_027.txt.gz
RH
35 27 27 29 29 38 61 63 76 59 54 44 38 32 44 44 46 33 25 30 45 27 25 36 49 32 46 71 81 80 65 65 54 47 60 67 55 26 24 27 60 82 68 62
25 25 29 35 50 65 76 73 45 63 50 36 30 50 43 45 53 33 31 40 43 30 36 58 86 67 93 72 46 47 34 39 52 38 28 31 48 33 35 34 57 97 65 58
24 29 47 74 75 80 78 53 50 38 36 37 49 41 40 40 48 57 40 46 49 36 43 77 83 87 99 100 100 85 51 35 34 32 35 45 38 38 40 47 63 76 58 47
30 47 64 78 84 85 73 59 43 38 42 47 43 41 41 46 45 59 44 46 55 54 59 78 86 77 90 86 38 32 37 55 80 89 85 97 92 88 61 73 85 81 87 83
48 74 81 82 91 92 76 64 49 40 44 37 41 44 43 46 51 60 61 53 60 70 68 75 83 74 95 89 86 73 87 99 97 97 96 99 92 98 89 94 98 84 96 99
70 76 91 93 95 95 80 81 55 48 46 38 42 47 44 44 50 58 61 76 61 73 83 68 80 79 93 89 90 97 99 100 100 100 94 99 99 54 79 92 99 98 97 99
76 87 90 98 96 98 96 88 52 49 49 36 41 50 55 53 48 50 56 63 71 81 71 75 75 82 97 98 97 98 95 84 90 96 100 86 91 99 97 98 95 99 98 96
75 88 90 98 99 97 92 62 48 47 48 37 38 52 57 66 62 49 54 57 55 72 81 76 75 77 88 94 93 97 99 99 99 99 99 100 100 99 100 92 76 65 57 57
80 97 94 94 99 74 62 51 45 47 45 40 40 49 62 70 66 72 58 65 66 73 87 82 77 90 94 80 97 89 88 85 85 86 94 86 70 54 54 54 56 56 50 46
83 98 97 86 72 56 52 48 47 48 48 40 44 51 67 71 77 80 76 64 72 73 81 91 85 84 83 73 73 73 74 71 68 62 61 60 61 60 58 55 50 48 48 45
68 88 87 85 61 59 60 52 46 47 47 44 50 61 77 77 74 87 79 85 87 86 83 89 92 91 86 82 78 76 75 72 70 66 62 58 55 54 54 53 50 47 48 50
50 75 77 87 73 71 59 54 58 52 43 45 61 74 80 86 85 96 92 83 84 92 90 83 80 83 83 82 77 72 67 62 62 64 65 63 60 57 52 49 50 49 47 42
47 55 57 80 84 73 66 61 54 40 43 54 65 81 94 95 95 92 98 100 94 81 87 81 80 82 80 77 71 67 66 68 68 66 63 62 58 53 52 51 49 45 39 38
45 51 47 55 70 70 64 59 49 47 61 61 66 80 97 100 96 96 96 98 100 93 89 89 89 88 84 76 74 71 71 71 70 68 65 61 56 53 53 50 47 43 40 33
52 60 47 47 55 63 62 60 51 63 66 67 74 83 90 99 94 92 92 90 96 95 90 93 91 89 81 79 75 76 77 75 72 69 63 58 56 56 52 48 45 42 32 23
64 61 66 70 62 66 68 64 64 71 75 85 81 87 96 91 85 82 79 73 75 99 100 92 83 84 82 81 82 82 79 76 71 66 60 56 54 52 48 47 44 34 21 16
64 57 66 77 76 70 73 77 77 78 86 94 95 87 100 93 98 82 87 85 88 91 94 89 91 89 81 80 82 79 77 73 66 60 58 56 55 52 51 49 40 30 25 13
66 76 78 77 78 80 88 87 82 79 84 97 98 91 98 95 89 100 96 100 95 95 96 94 94 84 81 83 80 78 74 66 60 61 59 58 57 55 53 49 42 35 27 8
77 92 99 89 90 92 84 79 78 76 81 91 90 92 98 96 88 96 99 95 95 88 88 92 88 85 84 81 80 75 65 60 61 63 62 63 65 62 56 52 43 36 14 7
80 90 96 98 94 96 98 96 92 87 90 96 96 90 89 92 80 92 95 93 94 89 91 86 85 86 83 81 76 64 61 64 66 66 67 71 72 64 58 48 32 20 10 6
94 93 98 100 100 100 100 100 97 99 98 100 100 97 86 95 80 94 96 100 100 97 95 90 88 88 86 84 70 62 65 69 72 73 73 75 73 61 50 29 27 17 6 6
100 100 100 100 100 92 92 86 85 98 100 100 98 98 100 98 94 100 100 100 100 100 98 93 90 90 92 86 69 66 73 80 77 77 79 81 72 54 38 35 27 14 6 6
100 100 100 100 100 99 99 98 100 100 100 100 100 100 96 95 100 100 100 100 99 98 96 94 94 95 97 87 74 78 87 88 81 77 81 82 74 55 52 43 28 22 7 7
100 100 100 100 100 100 100 100 100 100 99 100 100 100 100 100 100 100 100 100 100 100 100 100 99 99 98 91 90 90 93 87 81 82 85 85 84 73 54 43 29 12 9 8
63 82 95 97 98 100 100 100 100 100 100 100 100 99 100 100 100 100 100 98 97 100 100 99 98 98 98 98 96 96 96 88 83 83 83 83 84 69 55 40 22 15 8 17
50 54 52 54 67 72 85 95 99 100 100 100 100 100 100 100 100 100 100 100 99 100 100 100 99 98 100 100 100 97 92 89 86 88 87 88 78 67 57 38 24 13 11 31
42 41 44 45 43 42 47 51 57 66 84 95 99 99 100 100 100 100 100 100 100 100 100 100 100 100 100 99 96 96 92 90 93 95 91 83 74 66 51 34 19 10 23 38

GFSNGP_500_rhum_030.txt.gz
RH
28 31 32 31 29 26 30 36 63 56 58 42 37 42 29 31 29 30 34 37 28 31 36 26 29 25 34 52 84 100 76 78 100 100 96 87 84 100 100 88 68 47 45 33
38 32 27 27 29 34 49 69 70 57 51 46 37 27 27 25 30 29 39 43 37 42 38 34 38 36 40 49 53 38 100 88 100 100 81 81 93 98 99 99 77 53 51 37
34 27 27 32 39 56 71 75 71 56 41 36 31 29 30 37 42 48 48 48 43 53 46 42 44 44 46 59 49 38 30 71 48 43 47 59 49 57 99 98 87 60 52 47
30 27 31 59 77 78 88 80 59 38 34 37 35 36 38 30 32 49 54 49 52 57 63 44 47 65 69 66 61 63 56 41 32 31 30 40 34 29 23 60 82 56 44 38
28 30 43 78 87 95 95 78 48 38 36 35 40 37 40 40 36 38 52 43 53 62 61 58 58 64 82 73 66 84 99 92 84 75 74 68 55 74 62 82 66 55 79 40
27 35 60 84 90 96 93 77 65 50 43 36 40 38 44 50 45 41 41 52 42 54 61 60 69 72 83 78 79 69 79 83 94 99 99 98 100 100 98 94 78 86 98 100
29 38 82 94 98 99 98 81 83 68 45 38 35 39 50 50 51 47 47 44 48 42 67 63 60 71 65 82 83 77 88 92 97 99 100 99 99 98 95 94 100 100 96 99
34 36 97 96 96 94 96 89 96 64 46 39 38 43 45 52 53 52 57 60 56 61 60 69 68 85 70 76 84 90 97 99 100 100 99 100 98 99 99 99 97 93 84 71
46 34 84 98 98 100 100 100 99 61 46 42 40 45 48 54 61 56 58 69 62 74 74 73 73 80 74 84 80 77 81 80 78 73 67 62 61 61 60 60 60 61 59 57
39 50 67 88 93 90 98 80 62 50 45 45 41 47 51 57 73 67 63 71 67 78 86 81 76 75 73 72 75 75 74 72 71 69 66 63 60 58 59 61 60 56 52 51
31 49 69 87 95 90 87 71 55 51 49 44 44 45 55 60 75 77 73 79 83 86 89 91 86 84 86 85 81 74 68 65 63 62 62 62 62 61 60 57 54 53 53 52
40 44 64 81 91 98 84 63 61 52 47 54 43 43 56 73 80 85 74 80 90 92 93 86 88 91 90 88 79 72 70 68 67 64 63 64 63 60 56 53 52 52 49 44
45 42 42 60 71 92 89 73 67 58 57 57 41 43 60 74 87 95 90 89 86 90 100 95 93 95 92 83 78 75 71 72 71 68 67 67 64 57 54 52 51 47 44 41
53 51 53 48 51 56 86 84 72 67 60 54 46 56 62 67 87 92 87 85 91 87 93 95 97 94 90 83 82 78 78 77 74 69 66 64 59 55 54 52 47 44 43 41
59 57 55 56 46 43 50 65 72 67 64 60 54 65 60 71 91 90 85 80 82 83 85 98 100 95 95 91 84 79 78 76 74 70 68 62 58 56 53 50 47 46 45 42
65 60 55 54 56 39 33 43 53 64 68 65 65 71 67 78 89 84 81 82 81 77 82 100 100 100 100 92 79 79 83 81 78 72 63 60 59 58 57 54 51 47 44 41
53 48 51 54 55 57 45 47 56 68 74 76 79 79 90 89 92 94 93 81 84 84 96 100 100 99 97 91 81 85 84 80 73 64 61 61 61 59 58 58 54 49 44 30
59 46 44 55 57 60 65 69 73 78 86 91 90 88 92 100 96 88 94 89 92 98 100 100 100 99 98 89 83 85 84 77 66 62 63 64 64 61 60 58 53 47 35 27
77 57 53 69 74 81 81 79 83 91 94 92 91 89 93 100 100 99 95 89 98 99 99 100 100 100 96 86 83 84 82 74 64 65 66 70 68 63 60 58 52 43 36 38
80 78 78 88 97 100 99 94 86 81 82 84 88 88 90 90 93 94 98 91 97 100 100 100 100 100 99 94 88 84 82 74 66 68 74 76 71 65 64 64 58 52 49 32
100 100 100 100 100 100 100 100 93 95 92 87 92 97 99 98 100 100 100 95 95 99 100 100 99 100 100 99 96 91 89 78 73 79 82 78 71 69 70 70 66 61 48 34
100 100 100 100 100 100 100 90 88 86 83 81 85 96 100 100 100 99 100 100 100 99 100 100 100 100 99 100 100 99 93 84 84 85 84 78 74 71 72 71 64 53 52 29
100 100 100 100 100 100 100 98 89 92 94 99 100 100 100 100 99 100 100 100 97 98 100 100 100 100 100 100 100 99 96 95 91 84 85 80 77 77 75 72 62 54 52 35
100 100 100 100 100 100 100 100 100 98 100 100 100 100 100 100 100 100 100 98 98 99 100 100 100 100 100 100 100 100 100 98 87 86 85 81 82 83 78 72 61 61 48 23
60 61 61 64 76 93 99 100 100 100 100 100 100 100 100 100 100 100 100 100 100 100 100 100 100 100 100 100 98 100 100 90 84 87 85 83 86 86 79 70 70 58 31 22
52 45 39 36 38 40 48 51 70 96 100 100 100 100 100 100 100 100 100 100 100 100 99 100 100 100 100 100 100 100 92 85 88 88 82 81 84 82 74 73 68 45 29 21
47 43 38 34 35 37 37 36 41 51 62 90 96 99 100 100 100 100 100 100 100 100 100 100 100 100 100 100 100 100 96 91 92 84 79 80 85 88 84 82 62 38 26 14

GFSNGP_500_rhum_033.txt.gz
RH
31 30 30 29 30 31 32 29 30 26 37 45 48 40 24 21 26 22 18 20 29 32 32 32 32 33 34 26 27 28 25 37 46 82 97 75 41 100 96 100 100 93 71 92
30 35 37 35 32 31 30 31 39 53 65 54 46 27 27 26 18 17 26 32 38 39 44 42 33 40 36 38 40 33 33 34 31 63 75 84 83 90 100 100 100 100 99 100
41 37 30 27 26 30 34 47 59 74 66 50 45 30 31 26 22 24 36 40 34 39 46 45 36 38 39 42 39 36 37 39 41 20 42 46 46 61 86 100 100 100 88 87
39 33 30 31 38 52 67 73 78 73 58 47 33 32 32 32 34 28 28 36 36 40 46 48 46 48 38 40 43 44 56 49 60 38 19 28 34 44 59 80 92 100 100 84
39 32 30 32 48 64 75 83 83 70 50 38 40 36 39 40 35 31 32 28 30 37 36 43 48 50 42 50 49 50 62 66 62 82 93 67 82 59 27 41 47 96 100 98
38 33 30 40 58 75 84 99 88 67 53 39 39 43 42 41 39 41 40 32 30 32 36 53 56 49 58 53 60 57 60 68 70 74 88 97 100 100 89 96 100 88 73 99
35 30 29 40 74 89 100 97 97 81 70 44 40 45 42 41 44 49 49 43 36 40 42 53 62 71 55 73 71 70 66 73 81 92 92 91 98 100 98 99 99 100 100 100
40 43 35 40 82 97 100 100 98 90 78 48 39 45 44 44 48 48 54 50 45 49 50 64 65 74 76 84 68 58 56 59 67 70 65 67 77 94 100 99 99 97 96 94
47 50 49 35 68 94 99 99 100 89 82 56 44 44 42 41 42 54 60 57 56 50 63 78 78 76 77 75 73 69 66 64 63 64 64 62 61 61 61 60 59 59 59 57
47 49 50 42 44 98 100 100 95 89 85 68 48 46 44 38 38 58 69 64 65 61 71 81 82 83 88 85 78 72 66 62 60 60 59 58 59 60 60 59 56 52 50 51
46 50 48 43 54 86 100 95 93 90 71 53 47 45 48 38 39 60 76 75 76 81 79 84 90 87 94 94 84 74 70 66 65 64 62 63 64 62 57 52 50 51 52 51
47 48 42 37 43 78 95 95 86 74 58 56 53 48 56 40 41 57 76 84 87 86 85 91 86 91 96 97 85 78 75 74 75 72 70 66 64 60 55 53 54 54 51 48
53 50 51 42 39 57 95 97 95 78 66 63 49 48 55 44 45 60 68 88 90 95 89 90 95 93 98 98 93 85 81 81 77 75 72 68 61 56 54 53 52 50 48 46
59 65 64 53 49 36 40 71 88 90 73 68 65 61 57 50 51 61 60 85 88 84 90 94 98 99 99 100 96 90 84 80 78 74 68 62 56 55 53 52 51 51 50 47
58 66 80 71 56 42 39 36 46 66 81 77 75 68 65 61 56 61 59 81 87 85 85 87 88 93 97 100 100 93 82 78 76 72 67 59 56 57 57 54 54 54 53 50
76 68 66 71 65 52 45 39 33 33 42 52 66 72 72 69 64 66 66 84 82 82 79 83 88 87 100 100 100 95 80 76 76 71 62 57 58 60 60 57 55 53 53 51
74 60 54 53 54 52 46 43 38 33 30 34 48 68 77 74 74 75 80 93 91 85 89 89 96 100 100 100 100 94 80 76 74 70 64 61 63 65 66 62 60 58 57 55
74 62 56 51 43 44 45 46 43 42 51 64 75 82 89 82 82 90 99 94 95 94 92 98 98 100 100 99 99 97 87 81 78 74 69 65 67 72 73 69 66 64 63 60
78 75 73 65 51 42 42 56 61 62 70 78 84 92 96 95 93 90 99 100 100 100 98 99 100 99 99 97 97 98 96 93 87 83 76 71 74 77 76 73 70 68 65 60
87 83 89 80 67 69 80 92 97 95 92 94 96 95 87 80 82 88 96 97 99 100 97 97 100 100 100 99 100 100 98 97 98 90 82 80 83 81 80 76 72 68 64 55
99 96 99 100 100 91 94 100 100 100 100 100 100 98 96 96 97 98 100 100 100 100 100 100 99 99 99 100 100 100 99 100 100 96 92 90 86 82 81 76 72 72 66 58
100 100 100 100 100 100 100 100 100 100 100 98 96 90 90 100 100 100 100 100 100 100 100 98 94 99 98 100 100 100 100 99 100 100 94 88 82 82 80 76 74 74 64 57
100 100 100 100 100 100 100 100 100 99 98 97 96 93 92 99 100 100 99 100 100 100 99 99 100 100 100 100 100 100 99 99 100 97 93 85 84 82 76 71 72 72 64 61
100 100 100 100 100 100 100 100 100 100 99 100 100 100 99 100 100 99 100 100 100 100 100 100 100 100 100 100 100 100 99 100 99 92 89 87 86 79 70 68 73 74 67 64
66 67 56 53 54 56 58 68 71 84 98 100 100 100 100 100 100 100 100 100 100 100 100 99 99 100 100 100 100 100 99 98 97 98 92 86 83 74 67 71 76 70 64 53
58 57 60 57 50 43 38 36 34 36 39 37 62 95 100 100 100 100 100 100 100 100 100 96 96 96 100 100 100 100 96 98 100 100 100 92 83 68 66 65 63 60 56 50
58 54 46 41 38 35 33 30 26 26 32 36 41 48 57 94 100 100 100 100 100 100 100 100 100 100 100 100 100 100 100 100 100 100 100 97 88 65 58 54 55 54 53 50

GFSNGP_500_rhum_039.txt.gz
RH
50 55 52 48 44 42 36 44 42 57 45 34 30 28 22 21 23 41 45 36 22 13 11 13 18 25 27 24 22 25 24 23 22 23 22 15 17 18 18 24 24 36 54 60
46 45 42 43 44 47 49 43 42 36 30 25 27 29 33 40 56 46 29 18 16 16 20 25 24 24 31 29 25 28 27 25 24 20 24 18 19 24 23 28 33 53 67 68
44 42 40 37 34 35 32 33 32 30 30 24 29 40 58 65 50 27 26 25 23 19 18 28 28 26 31 31 29 30 31 33 27 29 32 27 28 28 34 32 37 45 69 65
39 37 33 36 33 34 34 33 30 32 30 36 42 71 73 61 36 32 33 31 24 22 25 21 19 18 22 24 28 34 36 42 34 37 38 33 37 37 40 41 36 50 53 55
37 37 42 39 35 31 30 32 31 33 42 56 73 84 71 49 36 33 37 34 28 34 23 25 22 18 20 28 37 40 38 50 51 40 43 40 32 42 49 49 45 56 68 74
40 45 44 38 34 32 32 41 57 65 65 83 91 85 66 45 36 35 34 31 36 36 38 34 28 28 26 34 44 53 54 61 44 37 38 33 33 35 53 57 59 65 65 69
47 44 44 42 38 34 31 41 55 74 90 99 95 81 60 50 38 35 34 33 33 40 40 36 34 31 28 40 56 69 67 52 45 40 36 35 35 35 39 44 46 49 53 65
53 48 47 42 39 34 33 39 55 81 95 100 95 75 64 54 42 38 37 35 34 40 42 40 39 36 31 38 59 63 61 58 46 41 41 39 38 38 40 44 44 44 43 43
64 60 56 51 45 41 33 32 59 78 96 100 99 82 78 74 48 40 38 37 34 40 42 47 46 45 44 51 62 68 70 62 53 50 50 49 47 48 46 46 46 45 44 44
48 58 58 54 52 48 43 31 42 79 89 98 99 99 93 89 64 45 39 38 33 42 42 56 56 52 57 60 67 71 75 71 64 60 60 54 49 50 48 44 41 39 37 37
36 32 35 45 49 48 46 46 37 47 84 91 91 96 98 91 87 56 45 41 31 42 48 53 66 61 59 70 67 75 77 75 73 71 64 58 56 53 49 43 39 38 37 36
39 36 30 27 38 47 48 43 47 40 50 84 93 96 99 97 86 65 47 50 46 41 52 54 73 75 67 70 80 79 79 86 81 75 68 64 61 57 52 47 46 46 45 46
39 43 33 30 33 39 45 48 46 44 45 68 86 98 99 99 89 59 52 48 53 51 53 57 65 78 74 77 76 79 85 89 88 80 74 72 70 61 55 53 52 54 55 55
39 37 37 37 41 42 43 46 45 39 37 63 82 91 96 97 87 64 61 51 58 63 60 59 58 74 84 76 77 75 77 90 95 87 81 78 76 68 62 57 58 59 59 59
36 38 37 34 39 47 47 43 42 37 35 47 68 85 88 91 86 68 65 68 67 70 70 64 60 66 82 79 74 77 80 85 99 95 89 84 78 71 67 64 61 62 64 64
34 36 35 31 30 31 50 54 49 44 35 38 40 38 51 62 75 83 81 76 74 71 71 69 67 68 78 84 79 81 80 93 100 100 96 90 83 79 73 72 71 69 70 67
33 32 35 35 35 35 32 39 48 50 49 44 42 40 39 34 35 40 50 53 50 56 68 74 76 84 92 91 84 88 91 98 98 100 100 95 94 94 91 89 84 78 72 67
40 41 42 47 50 56 62 63 55 43 40 43 45 42 38 37 36 33 30 31 42 62 80 83 87 98 100 97 94 90 100 100 99 97 98 99 98 98 95 94 90 82 72 67
60 57 60 65 64 59 55 51 51 50 37 38 44 43 40 38 36 37 42 44 60 85 92 89 96 100 100 100 100 98 100 94 96 100 100 100 100 98 96 94 90 79 72 67
75 77 75 70 66 62 54 46 42 47 46 40 39 40 42 48 52 57 66 78 87 97 99 100 100 100 100 100 100 100 99 96 98 100 100 100 100 98 97 93 83 76 70 65
87 93 93 88 83 71 60 71 76 66 64 67 60 73 84 90 90 89 92 96 97 100 100 100 100 100 100 100 100 98 98 100 100 100 100 100 99 96 93 85 80 79 72 66
100 100 94 92 91 88 83 92 99 100 100 100 100 100 100 100 100 100 100 100 97 99 98 99 99 100 100 100 100 100 100 100 100 100 100 100 99 94 82 77 80 83 80 75
100 100 96 99 100 100 100 100 100 100 100 100 100 100 100 100 98 98 98 99 100 100 100 100 100 100 100 100 100 100 100 100 100 100 100 99 97 90 86 84 82 83 84 81
100 100 100 100 100 100 100 100 100 100 100 100 100 100 100 100 99 99 100 100 100 100 100 100 100 100 100 100 100 100 100 100 100 100 99 100 97 94 91 88 85 89 90 84
100 100 100 98 98 99 99 99 90 70 65 66 74 67 56 57 73 87 95 99 100 100 100 100 100 100 100 100 100 100 100 100 100 100 100 100 100 98 97 93 88 93 91 84
93 96 95 93 83 69 59 53 48 43 41 40 37 33 30 28 27 29 33 53 77 95 100 100 100 100 100 100 100 100 100 100 100 100 100 100 100 100 91 96 94 98 89 79
91 88 83 77 70 60 51 44 39 33 29 28 26 23 20 19 19 19 20 23 27 36 55 89 100 100 100 100 100 100 100 100 100 100 100 100 100 100 96 91 94 98 92 90

GFSNGP_500_rhum_042.txt.gz
RH
69 69 69 65 64 73 75 80 83 81 70 65 56 45 40 35 31 27 22 18 16 22 30 24 13 10 10 13 19 24 23 22 23 24 19 20 20 24 21 21 20 21 22 25
40 45 53 58 55 51 51 54 47 39 47 42 45 41 36 30 26 22 20 26 40 37 20 14 13 15 20 20 22 27 27 25 25 26 25 26 27 27 26 28 28 29 28 26
52 52 47 50 47 46 45 47 53 42 57 47 36 30 32 27 34 42 62 54 32 22 19 16 16 18 20 21 21 22 24 25 25 27 34 34 32 31 32 30 34 34 33 32
41 42 42 41 40 36 37 38 40 39 37 36 32 34 34 34 55 68 54 33 30 26 24 20 14 21 17 15 14 14 16 23 38 42 42 45 36 28 27 26 36 43 43 48
40 42 43 38 37 41 34 35 34 36 33 33 32 36 36 58 80 67 40 36 35 33 33 19 28 26 23 20 22 20 20 33 46 48 50 43 36 30 28 29 29 29 34 41
35 36 37 41 42 38 34 32 31 32 33 41 44 53 80 92 78 53 41 35 36 38 30 30 31 28 26 26 24 22 23 37 64 61 48 41 34 33 31 30 30 32 35 38
35 34 38 44 42 39 37 38 42 55 64 74 76 98 98 91 67 50 41 35 36 34 30 32 31 27 31 31 28 28 29 49 63 61 52 42 40 37 34 34 34 37 38 36
52 43 46 44 44 42 40 38 36 44 66 89 99 100 100 86 60 52 45 37 36 33 30 33 29 30 37 37 36 38 41 54 64 62 52 49 47 44 40 37 37 36 35 35
69 67 59 53 50 48 43 38 34 40 64 89 100 100 100 80 68 64 47 40 39 33 30 35 30 36 44 42 42 48 52 59 69 70 60 57 54 49 44 41 38 36 31 31
41 52 70 67 61 58 55 50 43 33 47 82 96 98 100 98 82 82 59 43 41 35 28 32 38 36 46 50 50 51 62 62 70 74 70 65 59 53 50 47 42 36 34 34
25 33 37 45 54 57 55 53 50 44 34 51 85 95 98 100 99 93 89 60 45 40 31 28 44 43 43 51 55 57 66 68 69 74 74 72 65 59 57 52 48 43 40 40
24 21 25 31 33 34 40 48 47 46 44 41 39 80 92 95 95 99 95 87 59 45 44 36 41 48 46 50 59 63 69 70 74 73 77 80 73 65 63 56 51 49 47 48
44 29 23 24 32 31 29 32 44 46 43 44 44 41 79 92 96 96 99 90 68 50 49 48 50 50 50 48 56 66 67 72 69 74 81 86 85 74 69 64 57 54 55 54
80 41 29 27 35 33 32 32 38 42 46 44 44 42 48 82 94 100 100 94 74 62 56 52 56 60 59 54 52 61 69 68 67 71 78 85 93 90 78 72 65 63 64 66
100 60 33 35 31 33 36 45 44 43 46 47 45 39 38 68 94 97 98 98 91 74 67 69 65 66 65 64 62 62 69 75 76 79 79 88 100 100 95 85 84 82 81 83
100 73 34 37 34 32 30 30 42 48 48 46 42 37 35 47 65 89 91 100 98 86 75 76 76 75 72 69 69 71 78 89 84 84 83 98 100 100 100 98 97 92 88 87
100 72 35 38 38 34 32 29 26 25 33 50 52 43 38 39 38 39 43 56 67 76 82 84 75 62 68 76 78 88 93 97 95 91 93 99 96 97 100 100 98 92 88 84
99 52 37 40 39 33 30 28 27 26 25 25 38 48 49 46 43 42 40 38 34 34 39 44 45 54 76 87 87 97 100 100 100 100 96 94 98 100 100 100 100 96 90 84
67 50 48 48 43 37 36 39 39 38 39 36 29 39 48 45 44 43 41 39 38 40 41 39 45 70 96 96 97 100 100 100 100 100 100 98 98 100 100 100 100 99 90 78
81 66 61 59 56 54 52 51 46 44 45 46 44 39 41 40 42 46 45 45 44 46 48 67 90 100 100 100 100 100 100 100 100 100 98 96 100 100 100 100 100 96 80 70
88 87 86 86 84 81 78 75 70 64 64 72 72 53 46 51 53 51 54 65 64 68 76 93 100 100 100 100 100 100 100 100 100 100 98 98 100 100 100 100 98 90 82 79
94 99 100 96 94 84 74 76 77 71 90 98 98 100 100 100 100 100 100 99 94 94 96 100 100 100 100 99 100 100 100 100 100 98 99 100 100 100 100 100 93 88 88 86
100 100 100 100 100 97 95 88 97 97 99 100 100 100 98 100 100 100 100 100 98 98 100 100 100 100 100 100 100 100 100 100 100 100 100 100 100 100 100 98 94 96 96 95
100 100 100 100 100 100 100 100 100 100 100 100 100 100 100 100 100 100 100 100 100 100 100 100 100 100 100 100 100 100 100 100 100 100 100 100 100 100 100 94 95 100 100 89
100 100 100 100 100 100 100 100 99 99 95 86 71 66 74 80 70 64 57 57 67 94 100 100 100 100 100 100 100 100 96 98 100 100 100 100 100 100 98 100 100 100 94 89
100 100 100 100 100 99 97 89 78 70 60 56 50 45 38 34 31 27 21 20 22 26 35 60 93 99 100 100 100 100 100 100 100 100 100 100 100 100 100 100 100 97 96 88
100 100 97 94 92 91 85 76 61 49 43 38 30 24 23 23 23 21 18 17 18 18 19 22 25 30 36 48 74 94 98 100 100 100 100 100 100 100 100 100 100 100 84 55

GFSNGP_500_rhum_045.txt.gz
RH
87 85 84 82 78 76 85 99 98 100 94 89 94 73 63 56 56 64 55 46 38 30 25 22 16 14 16 16 12 9 9 11 17 23 24 22 22 22 21 20 22 24 24 25
87 79 72 69 67 63 60 73 82 76 72 72 76 70 77 58 46 40 36 31 27 23 18 17 24 21 14 10 9 11 16 18 23 26 26 26 24 22 29 31 28 25 22 18
52 45 43 47 48 54 55 53 50 52 51 43 41 45 52 55 43 34 29 25 23 25 35 37 22 18 13 16 18 16 15 14 15 16 18 23 35 41 42 40 30 25 20 21
66 57 52 53 51 50 45 46 45 47 54 54 44 47 43 36 33 32 44 44 48 51 36 27 26 20 20 16 17 17 17 16 15 16 27 41 48 54 52 36 31 24 24 25
31 35 50 42 37 38 45 36 39 41 44 42 38 38 38 32 39 42 67 77 57 40 36 37 28 26 18 20 22 17 16 18 21 26 40 59 54 44 38 32 30 28 28 26
35 36 38 44 46 44 43 47 40 38 36 35 37 37 37 37 50 68 82 74 47 40 39 41 35 28 18 22 21 21 22 29 30 28 38 56 56 46 41 39 36 32 28 26
35 33 35 42 44 48 42 40 38 38 38 40 50 54 54 58 72 90 84 61 44 40 40 38 35 24 24 28 25 23 31 37 32 32 45 60 58 50 50 46 43 35 30 27
58 51 49 43 45 46 45 46 53 41 41 60 64 74 81 84 98 93 74 53 45 42 39 38 34 32 30 30 29 30 36 36 39 43 52 69 65 59 57 52 44 38 34 27
56 65 67 60 52 50 45 42 39 36 36 48 70 89 95 97 98 96 86 60 50 50 40 35 33 36 33 33 34 40 39 39 44 51 58 72 75 70 64 55 48 42 38 33
43 44 50 66 70 62 56 52 47 44 40 34 54 83 93 99 100 99 84 73 54 51 45 37 32 36 41 37 34 42 45 44 47 57 60 67 73 74 69 62 59 53 47 42
23 29 37 40 44 58 66 62 58 53 51 45 35 47 81 96 100 100 98 88 74 52 47 43 36 33 40 42 39 40 46 48 52 57 64 67 69 75 77 74 69 65 58 53
51 26 20 21 30 35 37 42 52 55 53 51 46 40 41 77 92 97 98 99 94 83 56 47 48 40 40 44 44 44 48 54 56 58 61 66 69 76 84 87 83 76 67 60
91 71 44 26 20 23 31 34 32 36 43 49 47 46 46 40 47 81 92 91 87 99 85 66 51 53 53 51 50 50 49 51 58 60 60 65 69 76 79 86 95 91 82 75
85 83 85 58 33 23 23 30 34 30 31 39 47 47 43 44 45 50 79 86 89 97 100 87 63 54 52 54 58 58 59 58 58 64 69 73 80 80 78 90 100 100 96 91
81 100 98 89 58 34 24 31 35 35 36 37 40 44 46 46 45 45 67 83 88 97 100 98 83 68 62 64 69 67 64 66 68 73 80 90 88 86 81 94 100 100 100 100
77 97 100 100 73 38 28 28 32 33 40 46 48 47 47 48 46 40 41 75 94 94 92 96 96 85 78 77 74 74 76 75 76 82 99 100 97 92 93 96 100 100 98 100
100 100 100 100 87 39 34 33 32 29 28 28 32 46 54 51 46 40 36 46 56 84 93 96 100 99 93 89 91 82 77 81 87 97 100 100 100 100 98 97 96 95 94 100
90 95 100 100 93 46 41 37 36 32 30 26 22 23 24 33 50 54 48 42 44 44 44 47 53 62 71 74 69 68 82 95 98 100 100 100 100 100 98 96 93 99 100 100
100 100 100 100 93 64 44 39 34 28 25 24 26 28 28 23 24 36 50 54 49 46 44 43 43 41 42 44 51 62 83 100 100 100 100 100 100 100 100 100 99 100 100 100
100 100 100 92 70 56 46 40 37 40 39 35 32 32 36 38 39 32 36 42 45 48 47 45 44 46 49 55 72 84 97 100 100 100 100 100 100 100 100 100 100 100 100 100
100 100 100 98 84 70 62 60 59 57 57 54 53 51 56 50 47 55 51 46 42 44 44 45 49 55 60 76 88 97 100 100 100 100 100 100 100 100 99 100 100 100 100 100
100 100 100 100 100 90 86 82 78 74 77 76 81 89 96 100 100 100 100 100 95 94 91 91 96 98 98 97 100 100 100 100 100 100 100 100 100 100 99 97 97 100 100 100
100 100 100 100 99 98 92 82 76 71 64 76 76 86 94 99 100 99 100 99 94 93 97 98 95 98 100 100 100 100 100 100 100 100 100 100 100 100 100 98 99 100 100 100
100 100 100 100 97 90 96 96 98 99 100 100 100 100 97 100 100 100 100 100 100 100 100 100 100 100 100 100 100 100 100 100 100 100 100 100 100 100 100 100 100 100 100 100
99 99 100 100 96 100 100 100 100 100 100 100 97 92 83 64 54 46 44 40 38 34 49 61 72 96 100 100 100 100 100 100 100 100 100 100 100 100 100 100 100 100 100 100
93 90 100 96 97 96 94 100 100 100 93 79 67 49 41 37 34 45 44 34 28 22 18 20 25 32 52 88 99 99 99 99 99 97 94 94 94 92 92 97 100 100 100 100
100 100 100 100 100 100 100 100 96 87 77 68 54 48 46 40 27 21 20 24 24 19 17 17 18 19 22 24 26 25 24 21 19 17 17 19 22 24 39 49 62 66 58 49

GFSNGP_500_rhum_048.txt.gz
RH
95 95 86 81 91 89 91 99 86 99 84 100 99 95 94 91 98 84 68 52 44 38 36 30 34 28 24 21 19 17 15 14 12 9 8 11 19 23 23 23 24 22 26 29
82 91 89 81 80 76 75 78 66 79 80 98 100 98 100 98 92 65 62 65 68 60 47 41 33 26 21 22 20 17 13 10 9 11 17 19 19 19 20 22 25 35 37 36
78 83 81 74 72 70 65 62 60 50 68 69 67 70 100 99 90 67 51 45 44 40 34 27 23 27 32 24 16 13 13 16 16 13 12 12 12 12 14 24 34 46 50 34
81 73 63 55 53 52 54 53 54 54 52 52 51 51 71 64 80 70 54 38 35 32 32 42 44 38 27 23 18 14 15 15 16 13 13 13 15 16 21 34 50 46 35 32
39 36 42 56 52 48 46 47 44 45 45 48 50 58 58 64 52 43 38 39 51 57 67 56 42 33 28 22 19 21 20 19 15 15 16 17 18 23 42 55 46 39 37 36
34 33 35 43 65 48 39 44 50 38 40 40 37 39 55 46 38 64 48 47 68 83 62 50 48 40 34 30 31 21 23 22 20 18 19 19 22 32 54 58 49 46 46 43
37 33 36 38 41 52 49 43 49 52 49 47 39 40 34 38 39 39 51 68 84 83 58 50 51 48 42 36 32 23 24 26 24 22 20 23 35 53 63 61 57 57 52 44
58 52 48 39 42 47 49 49 47 43 41 43 49 52 70 74 63 62 63 88 93 77 58 48 52 48 39 40 37 26 28 32 29 25 25 37 46 48 65 67 67 60 54 48
60 66 67 60 52 46 47 47 51 49 48 40 40 56 80 94 98 99 100 100 90 67 57 55 53 44 37 41 38 34 31 35 37 32 31 45 48 47 60 62 64 63 61 58
34 48 50 57 68 66 56 50 47 44 40 38 37 47 74 96 100 100 100 100 92 77 61 55 53 47 38 40 41 37 37 40 40 40 40 40 43 51 57 55 62 68 71 69
61 28 31 44 44 51 69 69 61 57 55 51 47 40 43 73 92 100 100 99 100 97 83 61 56 50 43 35 42 46 44 42 46 47 42 42 47 52 59 61 64 71 80 82
100 94 40 27 26 34 40 45 61 64 61 58 55 51 47 41 54 81 93 100 100 100 95 86 59 56 50 40 37 47 50 48 50 50 48 47 49 56 66 66 66 71 76 86
79 98 94 72 31 21 19 28 36 38 46 56 56 54 52 50 46 42 66 95 94 92 99 97 90 64 57 55 54 48 48 53 53 52 53 53 58 62 72 77 79 78 73 81
33 68 84 100 93 53 26 19 18 27 34 34 34 40 49 50 49 49 49 44 51 80 94 97 97 100 89 62 60 59 59 60 63 63 63 62 65 69 78 89 85 81 77 83
6 14 54 98 100 89 64 33 23 19 21 29 31 30 32 40 47 49 47 47 46 45 62 82 97 98 100 100 94 77 74 70 71 72 72 73 74 75 85 98 94 89 87 89
27 17 35 79 100 100 98 65 34 24 23 25 29 32 33 36 39 43 48 48 48 45 48 67 90 100 98 100 100 97 94 92 90 87 88 84 84 86 96 100 97 97 95 89
100 81 100 100 100 100 100 94 51 32 29 29 31 34 36 41 46 48 48 49 48 46 41 50 78 96 100 100 100 100 100 100 95 100 98 87 88 95 100 100 100 99 99 91
97 99 87 100 100 98 100 100 61 36 35 32 30 29 29 26 24 24 26 39 52 51 45 42 48 51 64 85 97 99 99 99 99 96 84 78 96 99 99 98 100 99 98 94
82 91 87 91 94 100 100 100 83 49 44 38 33 26 22 19 20 22 21 18 21 30 46 52 52 51 52 53 53 57 60 63 68 75 81 88 100 100 100 100 100 100 99 99
94 82 78 84 99 100 100 100 87 61 45 37 30 25 27 26 26 25 25 29 32 29 25 31 43 50 52 51 50 49 54 63 74 86 97 100 100 100 100 100 100 100 100 100
100 100 100 90 93 100 100 99 94 67 52 51 46 39 33 35 40 39 34 31 37 46 48 44 41 38 41 46 48 52 64 69 82 100 100 100 100 100 100 100 100 100 100 100
97 100 100 100 98 100 100 96 94 87 75 64 64 71 71 77 81 87 92 96 94 91 98 97 89 83 77 76 86 93 99 100 100 100 100 100 100 100 99 98 98 100 100 100
100 100 100 100 100 100 100 100 100 92 80 72 71 72 71 78 80 87 97 97 100 100 100 100 100 100 100 100 100 100 100 100 100 100 100 100 100 98 100 100 100 100 100 100
99 100 100 100 100 100 97 87 83 84 81 71 72 82 91 99 84 79 76 83 96 97 97 94 99 100 100 100 100 100 100 100 100 100 100 100 100 100 100 100 100 100 100 100
100 96 100 98 100 90 100 84 77 88 88 91 94 100 100 98 82 68 69 76 70 49 37 32 28 24 34 59 85 100 100 100 100 100 100 100 100 100 96 78 53 43 38 43
100 100 100 100 100 100 100 95 85 86 96 100 100 100 87 72 51 46 43 36 29 45 61 54 33 20 19 23 35 45 85 100 100 99 94 77 53 27 16 13 12 15 16 18
100 100 100 100 99 100 100 100 90 90 99 100 100 92 81 70 58 52 46 35 27 23 20 21 32 28 17 19 22 29 28 30 26 23 16 12 13 14 14 14 15 16 16 17

GFSNGP_500_rhum_051.txt.gz
RH
83 76 78 77 75 75 69 79 69 96 74 100 96 100 99 96 95 92 87 83 74 69 72 85 83 77 78 54 32 21 21 21 20 19 18 16 13 10 10 14 18 21 22 24
92 89 84 78 75 76 73 72 73 93 89 99 97 78 73 78 82 92 94 82 75 69 61 53 44 44 45 45 30 26 22 20 19 16 13 11 10 13 17 17 15 12 12 19
65 67 66 62 85 76 72 72 74 63 79 65 74 92 100 99 99 100 98 96 82 83 88 83 70 53 42 34 28 26 27 20 14 14 18 20 16 13 12 11 11 13 18 28
75 78 67 63 60 56 53 58 61 60 60 60 58 63 74 87 99 100 82 77 57 57 66 89 91 76 51 35 38 31 23 20 19 18 16 14 13 11 10 12 14 16 29 46
58 62 58 56 66 71 68 54 52 53 53 53 52 51 50 71 71 77 82 92 73 47 42 48 46 54 60 50 38 32 28 24 20 18 17 14 13 13 13 15 16 20 38 54
48 33 32 33 35 53 62 43 45 46 40 38 43 47 56 63 70 64 67 77 64 44 47 74 84 72 58 51 44 40 36 29 25 19 18 18 17 16 16 18 19 32 53 55
41 33 34 35 38 42 55 49 44 46 57 43 43 42 42 49 66 47 42 79 76 53 67 98 82 67 64 56 48 46 40 35 25 22 24 23 19 20 19 21 24 40 62 64
70 51 52 41 37 39 43 51 51 45 46 51 52 47 41 39 43 47 47 46 67 78 100 100 86 68 64 62 50 45 42 39 31 27 30 26 25 25 24 25 31 45 61 62
61 70 76 72 56 47 42 46 49 53 56 57 54 50 52 60 70 81 74 72 70 75 94 99 98 93 65 59 47 44 47 43 38 33 35 31 33 32 30 28 34 46 48 56
30 33 48 56 69 71 56 46 48 48 50 48 41 40 48 67 90 94 94 95 98 100 100 99 96 84 65 58 52 48 50 45 40 39 40 37 36 37 37 36 41 46 46 51
87 66 41 28 40 50 68 69 61 52 48 46 43 42 40 49 80 100 99 100 100 100 100 98 97 82 68 63 54 49 55 49 43 42 45 43 40 42 42 44 50 52 55 56
74 83 85 95 53 26 38 46 57 70 67 55 52 52 52 50 45 50 81 99 100 98 100 100 100 99 91 71 63 56 47 50 50 50 49 48 48 47 50 53 58 58 59 63
24 26 51 70 94 88 34 27 34 42 46 64 66 60 54 51 50 51 47 44 63 92 98 100 100 100 100 90 68 60 57 50 46 49 54 55 54 55 55 58 63 66 67 72
18 12 13 13 40 88 92 58 26 21 27 37 39 44 56 57 55 52 51 50 50 47 62 88 98 100 100 99 100 92 64 59 63 62 61 61 64 66 69 71 72 74 75 83
23 11 5 8 11 28 90 96 75 31 22 20 26 34 35 35 36 43 49 49 49 49 49 47 51 72 84 95 99 100 100 99 90 82 78 78 77 80 82 84 84 82 82 90
29 52 9 7 9 18 50 100 100 73 37 27 23 22 25 30 32 31 32 37 43 47 47 47 47 46 45 66 88 100 100 100 100 100 100 96 91 93 95 95 93 83 84 94
59 82 69 38 29 94 100 100 100 100 63 41 31 26 29 32 32 31 34 38 40 41 45 48 48 47 44 44 65 93 99 100 100 100 100 100 100 99 98 99 90 81 87 94
92 100 93 100 84 100 100 100 100 100 99 74 41 32 35 34 31 28 27 27 25 26 30 38 46 48 48 43 41 54 66 81 94 100 100 100 100 98 89 79 80 89 95 98
84 100 92 96 100 99 100 95 93 100 100 99 61 44 40 36 33 26 20 18 16 18 18 19 19 23 33 46 48 48 51 54 57 62 68 78 75 77 83 91 98 100 100 100
87 81 87 88 85 90 99 99 97 95 100 100 96 76 55 39 30 22 23 23 22 21 20 21 26 27 24 22 30 41 50 54 55 55 57 62 64 79 99 100 100 100 100 100
87 96 87 99 93 84 93 99 97 100 100 100 99 82 56 38 38 36 30 30 28 27 26 27 32 37 40 40 40 38 41 43 45 49 52 60 72 87 100 100 100 100 100 100
89 83 94 100 100 94 100 100 100 100 100 100 98 83 70 58 55 59 64 67 71 78 80 82 81 80 83 84 83 85 79 73 69 69 79 95 100 100 100 100 100 98 100 100
100 100 100 100 98 99 100 100 100 100 100 100 100 98 82 82 81 79 82 80 75 81 91 92 93 100 100 100 100 100 100 100 100 100 100 100 100 100 100 100 100 100 100 100
100 100 100 100 100 100 100 100 100 100 100 100 100 88 83 85 82 84 85 70 62 67 67 60 55 64 70 53 46 79 98 100 100 100 100 100 100 100 100 100 100 100 100 79
100 100 100 100 100 100 100 100 100 99 99 96 92 84 86 100 100 98 93 81 61 48 41 39 68 77 64 50 27 21 26 56 87 100 100 100 100 100 100 98 90 70 37 19
100 100 100 100 100 100 100 100 100 96 100 98 92 91 100 100 100 96 80 70 52 48 38 29 24 22 41 69 58 48 22 28 53 68 100 100 99 85 52 31 21 15 16 18
97 100 100 100 100 100 100 96 97 98 100 100 100 96 90 98 99 93 83 71 61 58 45 39 33 32 30 23 23 27 22 22 32 44 57 47 37 29 19 14 14 14 16 19

GFSNGP_500_rhum_054.txt.gz
RH
89 85 88 87 85 78 61 74 63 91 74 100 94 83 80 87 90 83 82 80 89 80 71 75 92 84 78 60 49 67 52 35 26 22 19 18 18 18 18 18 16 12 12 14
96 100 100 95 90 85 82 82 64 69 63 80 81 75 91 84 89 93 92 93 93 94 86 79 77 75 94 72 69 77 80 76 34 32 26 21 20 19 17 13 14 17 18 14
65 74 83 84 98 88 86 85 79 58 79 79 92 89 96 92 85 91 91 95 97 93 83 81 77 73 64 59 62 72 75 77 76 29 22 23 20 15 15 18 18 14 12 10
73 81 68 69 66 67 66 72 65 59 66 63 65 64 58 77 99 100 99 86 89 98 100 98 91 84 81 80 74 52 42 38 34 28 23 19 20 20 17 16 13 12 13 14
76 79 74 74 72 68 63 61 51 50 52 50 55 56 56 54 55 72 91 91 92 100 98 77 92 92 98 99 82 58 70 43 37 25 24 23 21 19 17 15 15 16 15 14
70 59 49 43 42 43 54 61 61 54 50 50 51 44 48 52 52 59 67 74 88 94 89 74 50 67 93 93 94 94 68 48 40 33 29 30 24 24 21 19 18 17 18 19
86 60 52 37 34 36 37 45 58 52 44 44 50 41 47 49 53 56 66 72 68 78 97 76 50 68 85 95 86 73 66 56 47 43 40 31 28 27 23 20 20 22 22 23
80 69 64 58 47 43 40 38 44 53 52 45 58 52 45 43 39 41 58 57 48 50 96 86 77 98 100 87 85 92 78 62 52 60 43 36 34 28 24 25 27 27 29 30
54 62 66 73 71 63 52 43 40 45 51 50 49 52 49 51 51 62 48 50 51 52 55 78 100 100 99 95 92 91 83 66 54 56 49 44 40 33 31 30 31 33 37 37
28 29 29 38 55 65 70 68 58 48 49 50 54 63 59 62 64 83 90 96 92 88 73 61 64 81 100 98 96 94 92 80 60 60 54 47 47 41 36 37 38 42 44 48
52 66 57 44 32 27 33 52 68 65 60 53 51 52 47 41 43 65 86 100 100 100 100 100 100 100 99 98 99 93 80 70 57 64 62 58 50 45 45 46 48 48 51 53
83 76 79 81 92 85 80 46 31 53 65 71 65 56 56 54 52 48 54 80 99 100 100 100 100 100 100 100 98 97 92 81 61 55 60 62 56 54 53 55 55 56 59 58
27 22 18 20 24 45 72 78 80 40 39 48 60 70 67 61 59 57 54 51 47 46 66 80 87 100 100 100 100 100 96 84 69 60 56 50 52 59 60 61 60 62 65 68
24 21 22 21 17 16 15 29 58 82 52 28 38 44 48 59 65 64 60 57 53 51 50 44 60 87 96 100 93 90 90 96 96 83 74 66 66 68 68 68 71 75 77 81
33 25 19 17 14 11 10 9 13 45 90 63 26 24 28 37 39 40 48 52 54 55 53 51 50 48 45 50 77 100 100 100 100 95 98 100 99 93 86 89 96 96 93 92
38 32 29 27 33 23 20 12 8 12 50 100 64 27 23 21 23 32 35 35 33 34 40 48 50 47 46 47 48 49 54 67 83 98 99 100 99 100 100 100 100 100 100 99
46 33 38 44 41 67 52 28 55 97 26 100 100 76 31 26 24 23 25 28 32 34 35 35 37 41 45 48 49 49 48 47 52 77 96 100 100 100 99 97 100 100 100 98
65 52 47 53 85 88 49 75 100 100 98 100 100 100 67 37 32 28 29 31 32 29 27 26 26 26 29 34 41 47 49 48 45 44 51 71 85 95 97 100 100 100 100 97
82 85 64 60 90 100 100 100 99 100 100 98 100 100 99 75 51 38 36 32 30 26 20 16 16 16 15 16 18 20 24 36 48 52 50 47 50 60 70 76 80 93 100 100
86 99 92 69 65 90 100 100 100 100 99 95 100 100 100 100 92 58 45 39 30 23 21 22 22 20 19 18 17 19 23 25 25 30 44 53 55 56 58 61 72 87 94 100
100 97 100 91 83 86 90 98 90 87 86 99 100 100 100 100 99 94 86 40 32 30 30 29 27 23 20 17 20 27 37 43 42 37 38 45 51 54 59 68 79 98 100 100
100 100 100 100 100 75 76 85 93 100 100 100 100 100 100 100 100 96 94 77 57 56 54 51 49 54 62 63 66 77 85 87 88 86 82 80 87 86 94 99 100 100 100 100
100 100 100 100 100 97 100 95 88 100 96 100 100 100 100 100 100 100 92 78 77 78 78 72 67 66 67 72 79 88 90 82 85 98 99 99 100 100 100 100 100 100 100 100
100 100 100 100 100 100 100 100 100 100 100 100 100 100 100 100 100 100 100 94 86 78 66 69 71 59 56 60 57 48 43 42 27 25 36 92 100 99 100 100 100 100 100 100
96 100 100 100 100 100 100 100 100 100 100 100 100 100 100 100 100 100 100 100 96 89 80 55 48 41 30 26 24 38 65 63 65 56 25 44 56 96 100 100 100 100 100 90
45 99 100 100 100 100 100 100 98 100 100 100 100 100 100 100 100 100 100 100 100 97 65 63 52 41 31 29 26 27 24 27 32 41 35 29 48 100 100 100 100 82 64 50
33 79 99 100 100 100 100 100 100 100 100 100 100 97 100 100 99 98 98 100 100 96 83 66 58 45 42 41 37 31 33 31 24 24 23 23 35 74 63 40 36 24 17 14

GFSNGP_500_rhum_057.txt.gz
RH
65 61 56 50 51 63 51 63 48 74 63 100 87 72 70 74 69 72 68 71 68 70 76 77 68 67 75 78 72 73 61 61 65 68 69 71 71 67 58 36 20 19 19 19
70 74 84 79 85 91 91 97 74 80 65 74 68 61 74 84 74 86 79 82 81 73 72 73 72 75 71 78 85 82 76 77 71 56 68 47 33 28 24 23 23 23 21 18
98 95 92 92 99 90 92 98 86 68 96 84 80 61 66 85 77 92 86 81 82 83 84 84 89 87 80 79 81 78 90 88 75 84 79 81 78 82 78 73 44 21 18 19
70 70 67 72 75 77 78 82 71 66 69 66 63 57 60 64 62 63 93 89 88 93 93 96 100 100 96 87 85 92 86 76 76 76 78 84 75 75 33 25 22 24 20 18
60 74 77 76 77 75 74 71 63 59 58 56 53 50 54 53 54 56 63 82 100 99 96 98 99 96 100 99 96 89 95 91 82 48 54 56 81 40 26 24 22 20 19 18
56 69 76 74 69 54 56 57 59 62 66 66 58 56 54 52 53 55 54 53 56 76 99 100 100 100 95 86 92 99 98 99 96 89 96 70 58 36 28 24 23 23 22 20
88 91 92 70 60 42 40 39 38 40 52 60 49 45 47 42 43 49 52 53 54 63 80 93 100 100 98 65 60 85 100 100 100 100 77 58 48 43 40 32 26 26 26 24
88 88 85 76 61 47 44 39 39 41 45 54 53 47 63 57 44 44 44 46 55 64 69 87 96 100 92 70 81 100 100 100 99 99 99 90 57 50 88 47 38 33 31 27
59 70 74 75 75 69 65 67 56 48 43 46 53 53 51 58 54 52 50 49 45 56 66 57 53 96 97 91 90 100 99 99 100 98 86 67 74 85 54 48 48 44 38 37
33 36 34 32 34 39 52 64 69 69 67 52 50 52 52 55 94 88 75 74 74 72 64 55 56 59 76 99 100 100 99 100 100 99 98 94 75 66 60 59 55 50 45 44
31 31 32 37 51 42 41 34 28 37 54 68 66 52 53 56 79 50 55 69 90 100 96 94 98 90 76 90 95 99 100 100 100 100 100 80 72 71 73 72 68 64 57 51
37 80 86 100 98 86 88 89 83 68 44 32 53 68 64 57 56 56 48 48 71 89 100 100 100 99 98 99 100 100 100 100 100 99 99 88 76 81 79 80 79 70 64 60
99 70 37 32 30 29 25 23 20 28 49 74 65 36 53 69 68 63 62 61 57 54 52 57 64 76 98 100 100 100 100 100 100 100 97 97 88 72 68 69 71 68 64 65
85 45 37 30 30 31 23 19 17 16 13 13 29 77 41 44 53 65 68 66 63 60 57 55 55 62 55 84 93 100 100 100 100 100 100 100 100 97 86 74 72 70 71 75
57 40 35 38 34 28 24 19 18 16 13 11 9 12 62 49 33 41 44 47 50 57 59 58 56 53 50 45 47 57 72 80 84 97 100 100 100 100 100 100 100 100 100 100
77 70 59 47 41 31 27 32 29 17 14 12 12 12 12 75 48 25 24 31 38 39 38 38 39 47 52 52 50 50 49 49 49 48 51 63 81 95 100 100 100 100 100 100
84 84 71 59 53 45 41 36 55 26 27 39 35 23 18 38 90 32 24 23 24 26 31 35 35 33 33 35 36 42 46 47 47 48 48 49 51 63 82 96 100 100 100 98
93 88 70 68 73 56 37 21 78 63 66 74 100 100 58 76 100 65 33 29 27 28 31 34 35 33 31 30 31 32 35 40 42 47 48 50 49 48 51 61 75 90 97 99
99 100 94 88 81 80 54 39 88 100 100 100 100 100 95 100 100 100 87 42 32 32 34 33 30 27 21 17 16 16 16 16 17 18 20 24 34 51 58 59 61 64 67 71
48 79 96 99 92 90 93 82 76 78 100 100 100 100 100 94 100 100 100 86 61 44 39 35 30 22 20 20 21 21 22 21 20 20 20 19 23 26 30 43 59 64 69 74
16 22 75 92 100 94 100 100 96 98 100 100 94 100 100 100 100 100 100 100 100 83 50 40 28 26 27 28 27 25 23 23 26 35 41 43 43 46 49 45 45 54 61 66
34 21 21 66 96 100 98 97 92 98 100 100 100 99 100 100 100 100 100 100 100 99 92 86 70 46 44 41 40 43 48 50 56 64 71 74 75 81 92 97 94 98 99 92
40 29 25 21 73 100 100 100 98 83 94 100 100 100 100 100 100 100 100 100 100 100 95 79 76 75 72 67 60 57 57 57 56 56 57 42 33 27 48 90 98 98 100 100
34 29 37 38 33 100 100 100 100 100 97 100 100 100 100 100 100 100 100 100 100 100 100 100 86 69 73 60 42 34 29 26 25 36 56 56 57 58 31 41 66 100 100 100
41 46 66 56 34 76 100 100 100 100 100 88 100 100 100 100 100 100 100 100 100 100 100 85 76 77 58 49 39 27 26 23 22 22 22 33 55 46 32 34 46 97 100 100
70 93 98 78 46 47 100 100 100 100 100 100 100 99 100 100 100 100 100 100 100 100 100 100 99 70 61 58 47 34 36 35 30 27 28 29 24 25 24 25 73 100 98 99
69 76 87 67 46 39 95 100 100 100 100 100 100 100 100 100 100 100 100 100 100 100 100 100 100 91 88 70 56 49 49 45 38 36 32 32 31 27 27 28 34 44 40 28

GFSNGP_500_rhum_060.txt.gz
RH
54 48 41 40 41 38 33 40 26 52 37 94 70 62 46 37 43 50 55 51 52 51 47 44 34 40 47 49 61 65 64 65 70 75 70 66 63 65 66 67 70 66 71 72
60 53 48 47 47 45 41 43 45 74 53 84 60 53 69 67 62 70 72 65 65 71 64 63 66 57 57 63 65 66 67 70 76 76 73 68 62 64 66 54 44 38 32 28
41 46 52 67 76 74 75 73 71 61 86 77 72 74 62 64 66 71 78 66 80 79 71 68 76 74 72 72 73 73 73 74 74 91 88 71 68 75 65 54 68 58 58 46
93 94 94 90 90 79 78 79 78 77 79 78 76 75 75 60 56 57 62 59 60 78 76 83 84 82 75 80 89 97 93 82 83 84 85 98 92 87 83 86 88 82 84 82
57 62 65 66 67 69 72 64 59 60 59 58 55 57 56 46 47 48 48 55 56 50 66 82 85 93 100 96 100 100 100 98 89 94 95 95 86 78 89 85 87 82 41 35
48 48 56 64 71 72 73 68 67 67 66 65 64 65 64 58 55 52 48 50 54 55 55 66 91 99 98 100 100 100 100 98 99 100 97 97 94 75 69 75 66 65 53 41
82 79 64 60 67 69 67 52 46 43 42 41 44 52 59 48 47 47 44 47 51 54 55 55 60 76 94 100 100 100 91 73 72 95 100 100 100 97 98 96 82 62 56 56
69 85 84 78 80 77 62 49 43 38 37 38 41 49 58 51 50 58 50 44 46 48 51 62 69 80 80 88 100 100 96 70 69 92 100 100 100 100 100 88 76 74 76 77
51 55 65 76 82 82 81 76 65 64 58 45 46 43 49 63 54 63 68 66 51 46 43 48 66 58 78 78 91 100 99 100 100 98 100 100 100 100 100 100 92 99 98 69
39 39 41 43 44 45 49 50 55 65 73 74 74 68 54 53 59 59 74 79 82 80 73 72 54 56 63 62 85 97 99 85 99 99 100 100 99 98 100 100 100 100 86 77
48 38 40 41 36 32 34 32 36 39 35 34 45 60 71 69 62 67 63 79 63 79 84 97 98 100 99 92 76 82 92 98 100 100 100 100 100 100 100 100 100 98 89 82
58 46 44 45 61 83 90 93 86 81 82 78 76 64 40 49 68 71 68 75 82 53 67 100 100 100 100 100 100 96 99 100 100 100 100 100 99 99 98 98 97 98 94 88
100 88 56 80 99 94 79 58 51 33 24 20 20 22 36 69 51 48 68 74 66 61 58 57 58 59 74 87 98 99 94 91 100 100 100 100 100 100 100 96 85 80 82 91
100 100 100 92 76 56 35 30 28 26 24 21 18 16 15 13 21 65 47 59 72 72 66 62 61 59 57 68 71 79 99 98 100 100 100 96 95 100 100 100 100 97 94 90
77 75 71 67 80 70 50 38 30 27 25 19 16 17 12 11 10 11 43 53 47 56 62 64 64 61 60 58 55 53 54 69 89 100 100 95 93 100 100 100 100 100 100 100
93 89 84 80 75 69 62 53 41 37 32 23 38 34 18 10 8 9 11 35 56 36 41 43 42 48 51 55 57 56 53 52 52 52 53 53 55 61 68 81 90 95 100 100
65 75 79 86 87 89 81 73 63 44 31 22 38 32 12 6 9 9 11 15 62 50 27 28 35 39 37 36 37 42 48 50 51 51 50 50 50 51 51 51 55 65 81 98
25 28 33 44 61 75 88 88 79 66 42 38 53 50 67 91 100 61 22 20 68 68 26 24 25 27 30 34 34 35 36 36 36 37 35 37 39 42 46 50 52 53 56 56
13 12 13 12 15 30 79 92 96 88 75 50 54 77 99 100 100 99 59 70 100 94 36 31 30 31 34 38 36 31 27 23 18 17 16 16 17 18 17 17 20 23 29 43
23 23 19 17 18 21 18 59 98 100 100 67 85 65 100 100 97 93 100 100 100 100 83 43 39 39 37 32 28 22 19 20 21 22 22 25 24 20 18 18 19 23 28 32
31 27 25 32 37 29 27 22 56 99 100 98 85 83 81 98 100 100 100 100 100 100 100 77 63 51 42 35 27 24 24 26 28 28 25 26 29 36 42 48 55 60 67 74
33 40 49 54 52 41 37 31 24 88 100 100 94 100 100 100 96 100 100 100 100 100 100 100 100 89 72 84 69 47 39 36 36 36 38 43 46 50 59 48 42 33 35 59
20 22 30 34 38 43 44 40 28 70 100 100 100 100 100 100 100 100 100 100 100 100 100 100 100 100 100 95 72 68 65 58 52 51 46 43 44 46 49 49 53 58 47 36
11 12 14 21 37 69 69 55 39 60 100 100 100 100 100 100 100 100 100 100 100 100 100 100 100 100 100 100 88 71 59 41 33 28 21 20 19 17 20 21 44 52 42 34
10 14 20 38 95 100 100 86 56 56 100 100 100 100 100 99 100 100 93 92 100 100 100 100 100 100 100 78 67 57 44 34 30 31 27 23 22 23 24 26 25 24 24 27
21 31 58 69 80 100 100 99 73 57 100 100 100 100 100 100 100 100 100 100 100 100 100 100 100 100 99 92 75 58 58 49 37 40 35 32 30 30 30 30 30 28 29 33
52 87 100 100 100 100 97 81 73 56 100 100 100 100 100 100 100 100 100 100 100 100 100 100 100 100 100 99 93 76 76 66 54 50 50 50 43 41 40 42 39 35 32 33

GFSNGP_500_rhum_063.txt.gz
RH
85 78 84 84 81 78 70 76 52 56 43 62 37 23 19 21 31 31 26 30 37 31 31 32 37 34 32 31 24 24 27 27 32 42 55 59 61 64 69 69 64 62 61 62
74 63 56 52 51 53 54 49 43 38 33 44 35 38 37 37 52 47 38 44 46 43 40 45 56 60 50 45 45 44 41 43 45 46 54 59 62 57 61 70 70 69 72 61
62 62 57 50 49 43 38 37 31 28 32 31 42 49 56 53 47 52 61 59 53 57 56 56 65 67 62 65 71 72 68 67 66 67 67 67 66 68 76 76 75 64 67 70
49 51 49 48 50 42 39 33 32 44 56 60 64 73 74 59 52 60 57 61 56 55 55 54 54 54 60 71 76 76 72 72 74 74 83 83 79 75 84 78 71 78 72 81
83 84 70 73 72 71 74 68 69 63 60 64 70 77 76 69 55 56 56 51 48 45 43 44 52 52 65 81 94 96 94 90 91 92 93 95 99 93 88 89 90 86 82 86
51 51 49 36 43 46 47 40 40 48 53 58 60 62 64 56 52 50 50 48 45 42 42 48 49 56 60 85 93 100 100 100 100 95 89 90 94 99 94 95 98 83 82 96
46 46 44 38 41 45 52 44 49 58 56 52 51 49 47 51 52 57 54 50 51 52 51 51 52 56 57 58 64 75 97 97 94 92 92 81 77 98 100 96 98 99 97 93
72 66 61 71 76 81 76 75 72 62 48 40 38 38 37 40 52 59 50 47 53 55 44 45 50 54 57 59 66 78 82 88 92 97 92 83 81 98 100 100 100 99 100 99
67 53 50 48 49 60 74 81 82 77 64 50 52 44 39 39 40 48 60 55 63 70 57 48 46 44 52 64 66 73 80 76 91 96 100 81 95 100 100 100 99 98 100 100
64 53 47 43 37 32 39 47 53 66 77 76 72 72 70 61 51 45 48 62 58 70 72 67 65 60 54 48 65 73 67 70 94 100 90 98 100 100 100 100 100 100 100 99
74 66 62 57 48 37 34 32 31 32 31 31 31 34 35 47 64 70 62 55 75 59 75 76 85 86 89 90 94 86 76 66 76 93 98 98 100 100 100 100 100 98 99 100
100 96 89 85 72 60 49 40 33 44 76 73 68 83 78 78 62 40 44 72 64 66 74 78 60 67 88 100 98 99 98 100 89 85 100 100 100 100 100 100 100 100 100 100
98 99 100 100 100 98 92 83 81 80 76 70 58 46 32 24 23 28 50 58 48 71 65 61 71 62 59 75 86 98 100 100 92 98 100 100 98 99 100 100 100 100 100 100
85 86 89 88 97 96 99 98 90 71 52 42 33 28 26 28 26 21 17 21 38 52 54 68 67 64 64 67 64 65 80 76 98 100 100 96 100 100 100 97 100 100 100 100
74 74 80 80 78 82 85 87 88 84 75 58 46 34 26 23 19 20 19 16 13 17 44 52 60 70 69 69 68 68 62 62 61 72 92 100 100 100 100 99 99 100 100 100
38 32 39 45 44 39 42 49 59 70 73 70 63 57 38 31 24 28 25 17 14 10 11 30 53 49 60 58 61 62 59 54 53 54 56 73 94 90 76 73 82 94 100 100
8 10 10 12 14 12 11 13 20 28 43 57 66 56 47 39 25 26 30 18 12 10 8 8 29 54 41 41 43 42 45 50 54 56 57 56 55 55 54 53 54 55 56 56
12 10 11 11 9 9 10 9 8 9 14 58 82 76 74 51 29 25 31 12 8 10 14 10 9 48 55 29 29 37 40 38 37 40 41 43 43 43 43 43 43 40 37 36
20 20 20 21 20 20 19 19 21 18 19 18 29 89 96 77 51 66 73 55 83 100 73 34 19 41 61 27 23 26 31 36 40 41 40 36 33 27 20 17 19 20 21 20
35 33 31 32 35 36 33 37 38 39 33 30 21 23 99 95 82 91 100 86 78 85 81 100 81 73 66 29 28 29 36 40 36 30 25 20 19 19 21 24 25 22 23 28
51 42 35 31 30 35 37 41 51 60 58 51 35 24 90 100 100 99 100 100 100 100 100 100 100 96 98 49 36 38 36 33 29 23 22 24 24 27 27 26 27 32 43 45
35 28 24 22 21 19 17 17 18 23 39 49 40 33 84 100 100 100 100 100 100 98 100 100 100 100 100 84 60 48 41 38 35 31 32 35 35 34 34 36 41 44 46 43
21 16 14 10 8 8 9 11 15 19 32 43 43 38 89 100 100 100 100 100 100 100 100 100 100 100 100 100 98 95 79 87 86 67 55 52 52 47 38 32 25 20 17 19
11 9 8 8 9 10 17 22 42 83 100 84 54 39 94 100 100 100 100 100 100 97 100 100 100 100 100 100 100 100 100 100 87 74 59 42 31 22 20 18 18 18 19 19
8 9 11 14 27 52 69 68 100 100 100 94 65 56 100 100 100 100 100 100 100 100 100 100 100 100 100 100 100 100 100 89 61 42 34 30 32 28 25 24 23 22 22 23
15 18 21 40 95 100 100 100 100 100 100 100 93 85 100 100 100 100 100 100 99 100 100 100 100 100 100 100 100 100 85 65 53 48 40 38 38 39 40 35 34 34 31 34
26 36 47 98 98 100 100 100 100 100 100 98 78 97 100 100 100 100 100 100 100 100 100 100 100 100 100 100 100 100 99 93 76 71 67 53 48 51 50 47 43 37 40 46

GFSNGP_500_rhum_066.txt.gz
RH
91 88 87 86 90 88 90 100 71 96 81 68 54 44 36 32 31 29 27 23 21 20 18 15 14 18 21 22 25 28 27 27 32 27 25 28 39 49 54 60 77 73 69 74
88 91 80 76 85 89 94 89 72 76 66 56 42 36 28 32 22 20 20 26 30 28 28 26 37 43 41 39 42 48 44 34 34 38 44 45 43 42 41 42 52 56 62 52
79 76 68 58 54 52 49 47 46 46 44 41 35 29 34 22 20 23 33 45 48 43 41 38 39 42 54 52 54 65 61 57 51 49 56 63 63 64 64 66 67 69 67 69
77 72 52 51 49 47 42 37 36 36 35 35 34 45 38 34 34 42 44 51 53 46 47 48 46 44 52 48 53 60 56 60 63 70 72 74 72 71 73 78 78 73 77 72
57 50 44 43 41 43 36 32 39 38 45 64 71 72 60 61 65 58 55 56 56 50 48 49 46 47 45 46 46 57 59 60 68 78 79 78 78 77 82 84 84 88 90 86
55 52 57 40 54 56 54 49 55 54 50 47 43 49 50 45 44 45 46 47 50 47 42 40 37 37 42 42 46 52 56 63 76 89 91 91 89 87 89 84 90 94 100 100
39 39 38 33 47 45 41 41 37 39 45 50 53 49 56 55 54 53 53 53 50 52 55 52 50 52 51 50 50 53 54 57 65 71 79 81 83 86 88 87 94 98 100 100
57 57 64 66 66 78 67 68 70 66 64 64 64 61 49 43 41 40 39 40 51 58 50 48 52 54 45 44 48 51 53 55 57 70 79 79 81 95 94 82 90 100 100 100
61 62 65 65 61 52 46 50 52 62 75 76 78 70 56 49 44 41 42 42 41 52 58 52 68 61 48 48 47 46 54 63 67 72 79 75 88 93 98 91 91 100 100 100
70 59 74 71 59 49 46 42 36 32 34 48 66 78 80 78 72 66 64 60 51 45 50 65 64 73 74 68 65 59 49 56 65 72 71 80 96 91 83 96 100 100 99 100
86 81 85 85 75 68 64 57 54 48 35 33 31 32 30 31 34 39 46 59 68 70 62 58 70 65 74 82 91 92 92 88 89 85 77 71 85 100 91 96 100 100 100 100
81 93 98 96 94 95 96 96 90 80 77 60 41 36 53 80 68 67 70 61 39 34 51 71 64 69 75 76 64 85 100 100 94 90 89 96 90 97 97 97 100 99 100 100
84 90 98 100 100 96 91 90 91 96 94 95 82 64 70 73 80 76 82 77 59 60 62 44 52 72 66 65 74 62 78 81 90 100 100 98 89 82 93 98 100 100 100 100
65 76 78 84 88 85 84 89 94 96 93 91 92 93 84 64 40 30 27 25 23 22 22 31 50 51 56 70 68 66 77 75 68 88 94 98 100 97 97 100 100 97 99 100
15 24 44 50 45 36 29 27 38 48 60 73 80 82 79 77 74 58 43 31 27 27 27 26 17 20 43 53 60 73 69 70 75 75 69 70 74 96 100 97 100 100 98 99
7 8 9 10 10 10 10 10 9 12 11 10 13 18 25 41 61 65 64 58 37 23 22 21 18 18 14 19 50 53 65 71 69 66 64 60 59 58 73 97 100 100 100 96
13 11 11 11 10 11 12 14 15 15 12 11 10 10 8 8 9 12 56 67 59 44 30 21 20 16 16 13 11 45 52 55 53 55 60 59 58 58 58 63 93 89 68 57
63 53 36 23 21 21 22 24 22 20 20 21 19 18 18 20 20 18 12 52 83 64 40 25 22 18 16 13 13 12 48 49 44 45 45 41 43 48 56 58 58 56 52 49
76 75 72 72 72 59 48 39 51 46 34 31 30 30 30 30 28 31 17 14 78 95 64 27 23 13 11 15 19 16 30 56 40 32 36 42 41 40 43 45 43 41 33 21
71 73 76 72 71 69 64 61 54 46 41 38 35 34 34 37 36 29 29 14 52 99 77 54 37 32 50 88 100 58 47 59 37 28 34 40 41 44 43 37 26 19 19 22
54 52 48 43 39 37 34 29 23 18 14 11 9 7 7 8 14 22 24 18 65 100 100 85 81 79 74 93 82 82 78 52 36 37 46 52 41 31 25 22 22 24 27 27
34 28 22 18 15 12 10 8 8 7 7 8 8 7 8 12 23 23 22 20 80 100 100 100 74 80 100 100 100 100 100 78 53 55 46 38 32 28 28 31 34 32 29 30
16 12 9 7 8 9 11 12 14 16 19 19 27 32 28 57 94 60 36 23 96 100 100 100 100 99 100 100 100 100 100 100 87 73 56 58 74 61 58 51 44 41 35 27
7 8 10 12 15 17 20 32 80 86 73 92 100 100 100 100 100 75 40 77 100 100 100 100 100 100 100 99 100 100 100 100 100 100 100 100 100 91 70 50 29 21 21 20
12 13 20 22 24 28 51 95 100 100 100 100 100 100 100 100 100 86 84 100 100 100 100 100 100 98 100 100 100 100 100 100 100 100 100 100 98 56 32 30 31 27 26 27
17 12 32 42 34 30 75 98 82 100 100 100 100 100 100 100 99 99 100 100 100 100 100 100 100 95 100 100 100 100 100 100 100 100 100 88 52 42 46 43 41 41 37 37
32 18 19 47 43 34 47 93 69 99 100 100 100 100 100 100 100 100 100 100 100 100 100 100 98 90 92 100 100 100 100 100 100 100 97 74 64 56 48 46 46 46 46 43

GFSNGP_500_rhum_069.txt.gz
RH
84 85 87 91 94 86 79 97 84 100 99 100 77 69 60 52 44 41 37 36 35 32 30 29 26 21 18 19 19 19 19 21 22 22 24 22 20 23 26 28 30 34 38 40
75 78 88 85 78 86 89 84 83 98 94 77 63 63 59 51 40 34 29 27 28 24 20 19 21 22 21 28 44 42 46 44 42 41 42 38 28 31 36 41 44 44 41 41
76 76 70 65 64 64 68 77 77 77 80 74 69 66 56 45 37 31 30 28 32 38 30 31 30 32 42 44 49 54 57 52 47 52 66 67 61 50 49 47 50 55 56 57
80 87 77 81 68 57 52 50 56 56 60 60 63 54 38 43 35 30 29 29 28 34 44 51 47 42 54 48 49 49 52 48 42 41 54 63 63 63 65 63 67 72 72 68
55 58 56 58 62 60 60 70 69 76 78 73 74 72 62 64 49 49 48 46 46 46 45 47 49 52 57 54 49 49 49 45 44 46 56 58 59 67 75 76 72 69 65 66
64 59 47 42 58 64 64 58 60 60 63 63 61 59 52 50 46 41 34 32 33 38 50 54 53 57 55 51 46 43 43 41 40 51 60 68 74 81 88 86 81 78 78 75
33 35 36 40 40 43 39 40 40 44 43 41 40 39 46 43 44 43 50 51 47 50 51 45 48 49 50 49 48 48 48 49 50 54 58 60 71 75 71 74 77 79 85 86
39 40 48 56 53 52 45 46 47 46 47 52 59 62 59 62 62 60 53 46 44 42 41 43 46 55 55 50 50 52 49 46 48 51 54 58 59 61 73 78 76 88 96 88
40 45 65 86 84 92 90 86 79 72 62 53 50 50 57 74 80 76 66 50 42 39 38 38 40 47 58 53 64 63 48 49 50 50 55 60 64 69 80 80 89 88 90 85
42 44 53 63 74 79 75 70 63 56 51 48 45 38 33 34 43 65 79 76 63 60 56 48 44 43 51 64 64 71 71 64 61 60 50 59 66 72 76 82 95 96 87 95
37 50 62 71 77 82 78 82 84 85 85 78 67 62 55 45 37 34 36 34 45 56 63 68 68 67 57 57 64 68 75 87 97 98 97 92 89 89 75 72 97 95 92 92
37 48 54 61 69 75 84 94 95 100 100 96 92 97 98 98 86 54 48 80 73 56 58 54 38 42 66 71 67 71 76 74 78 98 100 100 100 97 86 99 98 99 97 89
11 15 39 53 59 67 73 73 76 78 79 85 92 94 95 99 100 96 77 82 72 58 59 70 69 72 57 41 64 70 70 78 77 71 93 92 100 100 100 99 100 99 100 94
8 8 9 10 11 12 14 17 18 17 18 24 35 54 71 90 99 100 100 84 59 48 42 37 38 35 34 38 52 54 64 72 73 88 84 72 80 99 100 100 100 98 100 97
17 16 12 10 9 9 8 9 11 12 13 15 15 16 15 14 19 33 56 78 91 95 80 53 37 26 24 23 24 22 44 54 65 74 82 95 86 74 68 84 92 100 100 100
55 57 58 56 51 43 36 30 24 21 18 15 16 18 19 18 18 18 13 11 10 16 48 74 70 53 32 29 32 28 22 20 45 56 70 76 79 85 77 68 70 72 99 100
52 59 62 67 65 63 66 68 68 65 61 61 57 43 29 24 19 19 20 19 14 12 10 9 31 63 58 50 31 34 27 22 16 26 54 61 72 71 69 66 65 64 78 97
45 50 55 61 63 67 70 72 68 67 68 71 73 74 75 65 47 38 39 39 31 24 20 14 10 12 55 57 48 33 25 22 19 15 22 52 52 51 51 54 56 61 64 64
38 47 50 52 50 46 42 36 35 37 40 42 45 48 51 58 65 66 65 60 49 41 33 26 17 13 16 57 57 38 27 23 19 17 15 30 52 46 46 52 50 48 52 55
34 35 33 27 20 14 10 9 9 9 9 9 9 9 11 12 15 20 22 22 23 22 22 24 19 16 13 53 61 44 29 22 20 18 16 16 48 49 38 44 51 59 60 52
31 26 17 10 7 8 11 12 12 13 13 12 10 9 8 7 7 6 6 7 7 8 9 8 9 10 12 58 75 58 38 23 24 32 24 19 43 48 33 42 57 64 52 45
21 14 9 7 12 18 12 10 17 18 17 20 34 40 24 20 18 15 10 8 8 8 7 7 7 10 15 91 89 74 83 100 100 100 100 62 57 38 44 55 48 36 30 29
15 10 7 14 28 28 16 13 27 25 32 74 94 99 100 97 100 99 76 45 37 67 69 39 13 16 51 100 98 77 66 91 99 85 88 76 59 63 52 41 40 44 55 62
12 7 9 31 50 51 30 18 38 32 46 98 92 100 100 100 100 100 100 100 100 100 74 52 26 48 100 100 100 95 99 97 92 93 100 100 90 68 62 84 92 93 94 86
9 7 13 52 57 58 59 22 40 36 41 98 94 100 100 100 100 100 100 100 98 87 100 100 70 100 100 99 100 100 100 100 99 92 97 100 100 100 100 98 99 98 55 31
7 10 37 60 55 50 58 46 19 44 28 77 94 94 100 100 100 100 100 100 100 100 100 100 100 100 100 100 100 99 100 99 100 100 100 100 100 100 100 100 84 46 40 40
8 22 57 65 64 46 51 55 18 34 31 48 85 98 98 100 99 100 100 100 100 100 100 100 100 100 100 100 100 100 99 100 100 100 100 100 100 100 97 78 72 67 57 51

GFSNGP_500_rhum_072.txt.gz
RH
62 61 66 72 72 67 73 89 93 100 100 99 92 91 81 74 72 68 52 44 44 36 29 25 24 21 22 25 27 27 23 20 19 18 18 18 18 18 18 18 17 18 18 19
71 70 68 69 63 65 75 75 81 89 74 71 77 75 84 82 77 70 59 49 44 40 37 35 33 31 28 24 18 15 19 18 21 32 34 34 35 35 35 35 36 38 32 32
66 69 66 78 76 64 69 85 86 90 100 83 87 91 89 94 86 69 61 46 33 27 23 21 21 25 21 19 20 27 28 29 41 39 40 49 45 36 38 50 64 64 60 48
43 44 46 66 70 69 61 62 65 80 87 88 89 84 74 67 62 55 47 39 32 24 23 21 20 23 43 42 30 34 36 43 55 54 41 38 44 40 36 40 48 55 58 56
38 50 61 70 69 71 70 61 53 58 59 56 56 54 50 46 42 38 36 34 33 32 35 37 35 32 37 48 48 46 44 48 55 54 47 43 43 39 40 42 54 62 68 72
49 53 51 52 56 59 65 58 76 74 68 70 70 68 65 66 64 59 54 53 54 52 51 48 42 39 48 56 57 63 66 60 58 57 53 49 46 43 44 52 56 66 70 68
26 31 34 36 39 40 45 53 49 48 50 56 57 56 58 51 49 48 49 49 46 45 43 40 39 43 48 48 50 51 50 49 50 50 49 47 44 46 48 57 58 63 65 64
22 22 25 26 27 31 37 37 37 42 52 56 60 69 76 76 72 61 51 46 40 44 57 49 47 47 48 48 50 54 56 54 52 52 52 51 52 53 54 56 60 62 61 71
16 19 27 32 35 38 40 43 48 60 67 73 72 65 57 50 44 41 42 52 69 72 76 65 49 41 40 39 42 52 59 52 55 61 59 49 49 52 54 57 60 63 67 76
12 24 27 34 37 43 49 54 62 70 74 74 71 66 63 60 58 55 49 38 32 33 60 83 74 63 62 52 45 45 49 61 60 69 65 60 52 56 52 54 66 69 78 82
10 12 11 20 26 34 51 57 64 68 72 80 87 93 96 100 100 98 88 67 55 39 33 36 51 65 73 72 73 68 55 55 62 72 80 82 78 83 90 91 80 88 75 76
13 13 13 10 9 8 9 20 44 63 76 81 84 90 93 96 100 100 100 100 100 88 72 49 57 55 45 42 42 48 70 70 63 72 75 78 83 99 96 98 99 96 90 99
14 11 9 8 8 9 9 9 9 10 12 20 26 28 25 34 56 75 98 100 100 100 90 80 80 81 72 70 86 84 56 49 80 75 78 91 85 83 94 97 100 99 100 100
33 32 34 38 41 43 44 43 42 38 30 22 17 14 13 13 15 17 24 26 59 96 100 96 86 67 57 56 78 82 53 43 53 59 92 87 89 88 84 87 100 100 100 100
36 40 46 51 49 49 47 48 55 57 60 64 67 60 52 47 39 32 25 20 20 18 35 92 100 100 87 67 49 42 57 58 34 35 42 61 77 83 97 97 93 97 100 99
30 37 44 46 45 46 49 52 56 58 62 64 68 71 74 82 87 87 77 64 49 37 27 17 20 27 61 94 90 71 43 30 27 27 26 25 42 63 80 90 99 100 78 76
25 30 35 37 34 38 37 40 40 38 32 31 40 49 51 52 58 64 72 90 88 75 58 35 27 24 22 16 15 71 80 70 41 37 34 29 23 26 50 78 80 84 86 74
25 28 30 30 30 27 21 14 10 8 10 15 15 13 13 12 15 20 25 30 42 86 93 74 52 39 38 33 20 13 10 32 63 57 35 36 32 25 20 46 62 72 73 69
24 26 28 27 23 17 11 7 6 7 13 22 23 15 10 8 8 9 9 9 10 17 32 74 84 63 51 50 43 24 14 10 15 52 54 42 27 24 22 20 48 53 52 63
22 23 23 22 17 11 7 6 10 32 38 32 24 10 12 14 13 12 11 10 9 9 9 12 36 62 67 67 58 45 22 13 9 18 54 51 40 25 22 19 23 53 51 48
19 22 22 19 12 7 7 10 40 52 43 42 21 15 18 48 72 68 46 24 21 9 8 7 8 14 27 39 46 44 28 12 9 10 50 50 37 24 22 22 20 37 55 48
18 21 19 12 8 6 10 38 57 51 46 49 22 21 36 88 97 100 100 100 83 46 14 9 8 7 8 12 15 17 15 12 9 10 55 51 36 26 22 23 22 33 54 42
20 18 13 10 7 7 25 58 64 58 47 54 28 24 51 72 100 98 99 100 100 100 96 42 22 12 9 7 8 9 8 9 9 30 84 55 61 70 94 85 38 50 47 46
18 15 12 9 6 13 36 70 72 54 46 57 35 29 47 69 100 100 93 100 100 99 100 100 100 100 38 23 12 7 8 9 20 94 100 100 100 100 98 94 79 62 55 47
17 15 10 6 11 32 60 63 49 46 58 67 34 34 47 87 79 100 95 100 100 100 100 99 94 98 73 64 44 21 13 31 91 89 91 100 100 89 86 100 95 76 68 90
15 10 6 13 38 48 43 45 56 71 73 54 27 39 43 83 88 100 100 100 99 100 100 100 100 100 100 100 98 80 92 100 96 100 100 100 100 80 100 100 100 100 100 100
8 6 13 34 42 44 55 64 70 70 73 45 20 38 42 74 86 100 100 100 95 100 100 100 100 100 100 100 100 100 100 95 89 90 89 100 96 95 86 100 100 100 100 94

GFSNGP_500_rhum_075.txt.gz
RH
53 54 59 59 54 58 70 80 77 73 69 73 72 76 85 86 88 86 82 74 64 58 62 59 56 52 51 47 38 25 15 13 13 15 18 23 26 25 23 21 18 16 15 15
47 47 48 52 56 60 65 65 60 52 56 63 66 70 73 76 86 87 84 79 64 55 46 41 38 33 30 27 22 19 20 23 25 27 23 16 14 14 14 15 14 18 24 28
37 44 43 32 36 46 50 50 62 57 62 55 61 66 70 81 89 88 89 84 74 70 59 48 42 40 39 36 32 32 32 27 20 16 15 16 15 15 22 29 34 35 33 30
34 34 34 40 39 41 42 49 53 60 72 67 71 77 85 86 81 72 76 80 77 66 59 47 36 32 29 29 26 23 24 22 23 27 25 24 25 26 32 36 34 36 35 36
26 27 29 47 63 62 59 54 57 57 51 49 48 48 54 60 61 63 66 67 64 61 54 46 40 33 29 37 33 25 25 30 36 35 32 34 36 39 40 40 44 47 42 37
34 33 32 37 50 53 52 47 53 57 60 62 58 56 60 57 55 52 49 46 47 47 47 46 42 36 45 56 60 54 42 32 29 30 34 40 47 47 50 52 47 47 45 41
17 17 20 26 27 32 34 38 42 45 49 52 53 52 54 55 56 58 62 62 61 68 68 66 61 55 54 51 48 47 44 41 42 49 57 58 58 60 55 49 45 43 42 41
12 14 22 18 19 23 25 26 29 30 36 42 44 45 52 58 54 49 47 48 46 44 46 48 48 47 57 57 50 52 51 49 44 45 51 50 48 52 54 53 54 55 54 54
8 10 11 10 14 16 17 22 27 30 37 42 49 64 82 90 86 83 82 82 79 75 74 73 68 60 67 63 54 48 46 45 44 46 52 57 55 52 53 54 52 49 50 52
9 12 9 10 10 10 12 13 16 22 27 31 43 50 57 66 76 82 80 74 66 58 50 46 38 32 31 68 78 67 51 44 44 44 50 59 56 59 69 64 52 51 52 53
13 13 14 15 15 14 13 12 11 10 11 12 18 27 33 50 71 86 96 91 88 90 96 94 79 61 46 33 41 73 77 67 63 57 51 52 62 64 74 82 80 65 72 79
21 21 22 20 19 18 17 16 15 14 14 15 12 12 12 26 52 71 83 92 97 98 94 98 100 100 95 64 45 41 45 60 69 74 74 68 62 64 81 82 84 91 91 86
23 21 21 21 22 23 26 30 33 35 35 39 35 32 51 53 46 34 22 24 28 41 71 90 100 100 100 100 90 67 80 69 65 60 51 63 77 73 74 90 92 88 99 90
26 23 20 19 20 23 26 30 34 34 34 34 33 44 54 64 75 80 78 79 61 23 18 21 28 42 96 100 100 90 78 68 56 84 82 61 57 89 91 92 98 100 95 97
30 25 23 24 24 26 28 29 28 26 27 29 29 31 35 34 33 35 61 80 92 86 80 45 21 23 26 37 94 100 94 70 62 65 78 50 43 56 62 93 99 98 99 90
30 28 28 25 26 27 27 26 25 24 22 18 14 12 16 36 54 56 52 45 41 40 49 82 97 57 32 30 28 88 100 99 84 67 66 86 90 42 31 40 61 88 98 99
34 34 28 24 24 25 24 21 20 17 12 8 8 10 14 11 13 20 23 24 21 17 12 11 26 70 94 60 26 30 45 77 100 100 83 51 50 37 32 32 27 32 63 92
38 28 21 21 24 24 23 20 15 10 9 8 9 12 26 43 35 30 31 24 15 11 11 12 11 11 32 92 68 33 26 24 22 54 96 96 69 39 40 42 34 26 25 42
25 20 19 20 20 20 18 13 14 12 8 9 16 44 53 42 38 41 24 13 14 13 14 10 9 8 10 23 88 78 42 33 28 18 13 34 74 75 62 46 35 33 29 23
20 18 20 18 19 18 16 14 9 8 10 16 47 64 60 44 49 34 18 26 63 63 49 27 13 10 8 10 20 89 78 46 40 33 23 13 10 16 49 64 53 35 28 22
16 17 16 15 15 16 9 6 7 8 19 50 68 70 46 52 57 27 27 70 100 97 100 89 44 15 10 9 10 31 95 71 55 54 45 23 14 9 9 33 55 48 35 24
13 13 12 11 10 8 6 7 12 30 48 63 59 50 63 74 52 30 48 90 99 100 100 100 100 36 11 9 9 10 42 78 62 61 61 42 17 10 10 13 46 52 43 28
12 11 11 10 8 6 7 18 33 43 45 48 57 62 66 63 39 29 50 91 100 100 100 100 100 98 20 12 10 9 12 37 47 50 54 42 22 13 12 10 34 49 42 28
11 10 10 9 6 8 17 31 38 44 56 65 72 80 86 83 37 39 51 82 98 100 100 100 86 100 100 99 48 10 9 13 24 28 30 29 15 11 11 27 47 52 41 35
10 10 11 7 7 16 25 31 38 45 51 59 66 85 100 94 37 30 58 90 100 100 100 100 100 98 100 100 100 50 10 8 12 17 16 15 12 12 48 72 82 100 100 100
10 12 8 7 14 21 30 40 53 69 83 97 93 93 100 96 36 28 71 96 100 98 100 100 97 90 84 97 100 96 30 10 9 10 13 11 31 90 100 100 100 100 100 100
11 10 7 11 23 32 37 42 44 51 56 70 100 100 100 88 29 36 76 100 100 99 100 100 100 100 100 100 100 88 38 16 9 10 10 59 100 100 96 95 94 100 100 100

GFSNGP_500_rhum_078.txt.gz
RH
41 37 34 38 31 27 32 46 50 45 33 37 38 39 41 38 42 52 62 71 70 65 60 55 51 43 39 34 32 26 26 28 29 29 26 19 14 12 13 14 15 17 20 22
40 37 36 32 30 30 33 35 33 29 31 39 47 50 53 56 56 58 63 59 56 57 59 59 56 52 50 52 41 36 42 45 47 44 31 16 14 14 15 17 22 22 15 12
33 28 26 24 24 22 23 27 33 35 46 41 42 41 44 52 58 64 68 72 78 78 79 80 74 67 58 52 53 52 50 44 35 28 20 18 20 25 27 24 17 14 13 14
40 36 30 34 31 33 35 34 36 35 31 29 35 44 47 49 52 52 54 58 66 70 71 74 76 76 71 65 56 49 43 39 38 36 34 32 30 27 18 17 18 22 24 23
20 25 24 22 28 31 42 50 51 52 55 48 39 36 37 40 40 42 46 53 62 67 72 78 82 85 80 77 63 45 42 38 32 27 27 26 25 23 24 27 29 32 33 33
18 20 24 28 33 37 39 41 44 46 45 43 44 47 49 49 48 48 50 53 54 52 51 52 59 76 81 73 70 56 42 41 40 33 28 29 32 32 33 38 40 42 42 42
19 16 14 14 15 17 18 19 21 25 29 31 36 43 49 51 52 52 56 59 59 61 66 70 71 63 59 63 65 66 68 70 68 51 41 48 50 49 47 40 39 46 49 52
7 8 10 11 10 10 11 12 14 18 23 25 27 27 29 29 31 32 38 41 40 40 47 52 52 55 57 59 59 58 59 60 56 53 49 47 44 41 42 45 44 47 48 50
6 7 7 7 8 8 9 9 10 12 13 15 18 19 22 31 33 35 43 55 69 83 85 79 82 84 87 87 84 76 67 58 56 54 52 46 43 44 42 45 46 46 47 50
10 11 12 12 13 13 14 13 13 13 14 14 13 12 15 17 19 23 27 46 69 97 98 95 92 84 76 60 54 48 50 76 90 80 62 50 48 47 45 46 51 55 54 54
15 18 18 18 18 18 18 18 18 18 20 21 23 24 26 26 25 25 24 23 43 69 97 100 100 100 100 98 97 90 81 54 41 65 84 71 55 45 43 44 53 58 57 64
24 24 23 22 20 19 18 19 19 19 19 20 19 20 21 18 18 27 56 56 52 45 36 40 53 77 96 98 95 97 100 100 81 48 41 71 77 72 62 52 48 58 63 72
30 29 29 28 25 24 25 25 22 21 20 19 18 16 14 13 18 38 64 65 65 67 81 77 66 47 51 62 76 91 100 100 100 99 59 45 54 72 74 80 68 59 63 79
33 33 31 30 30 31 30 23 20 18 16 16 15 15 16 18 24 29 32 29 26 27 49 88 94 81 54 41 32 32 53 98 100 100 100 80 68 68 83 70 81 80 72 75
39 38 36 34 34 30 21 18 18 18 16 16 17 17 19 22 23 21 19 18 16 16 15 15 13 14 20 52 67 27 26 27 87 100 100 98 77 71 98 100 78 85 92 85
46 42 37 34 26 21 18 17 17 14 15 14 15 17 16 14 13 12 10 10 11 21 31 28 25 19 15 18 14 64 68 27 26 74 100 100 92 63 64 92 75 68 75 92
44 38 33 26 22 18 18 15 11 10 9 12 15 13 12 10 10 12 28 48 54 49 40 34 31 28 24 21 21 13 33 78 30 30 76 100 100 90 61 65 74 53 38 50
38 33 28 21 16 16 14 11 10 9 9 9 8 8 8 10 16 35 55 60 54 43 49 54 35 16 11 9 10 18 14 35 72 35 33 95 100 100 91 92 95 95 78 40
34 27 20 15 14 13 11 11 10 7 7 7 10 17 26 35 41 47 50 49 61 71 58 26 22 34 42 24 10 8 14 14 52 75 35 61 99 100 100 91 76 80 65 50
25 18 15 14 12 10 10 9 7 7 10 13 19 25 34 40 46 54 58 62 66 60 32 31 68 81 94 80 30 10 9 12 17 82 50 36 36 43 91 100 97 81 56 50
17 15 14 12 9 9 8 7 7 10 17 22 26 32 42 54 62 70 80 88 83 53 32 74 83 85 100 99 92 20 11 11 11 70 79 32 30 24 17 34 73 93 90 78
15 14 12 8 7 8 7 7 10 18 24 30 36 40 43 49 56 63 80 99 93 46 36 96 96 99 100 97 100 55 15 11 11 46 92 62 37 30 24 14 11 11 18 43
14 11 9 8 7 7 7 9 18 27 33 41 52 64 74 88 97 97 92 100 94 36 46 94 100 100 80 98 100 83 32 11 11 29 100 82 42 36 31 23 16 10 9 10
11 10 8 8 7 7 7 14 23 32 37 42 48 55 58 69 100 100 100 100 74 31 76 80 100 100 100 95 100 100 81 14 10 27 100 93 47 42 47 33 19 10 11 11
10 9 9 7 6 7 10 19 28 31 28 28 31 40 49 65 89 100 100 99 37 54 96 100 95 93 100 73 94 100 99 33 10 23 95 99 63 58 61 53 25 13 15 15
10 9 8 7 7 7 14 25 28 28 25 18 20 29 47 79 100 100 100 52 44 89 100 99 98 98 100 100 86 98 100 78 13 12 57 96 90 63 47 28 14 11 13 14
10 9 7 7 7 13 22 31 31 28 21 11 18 33 48 67 88 94 56 33 74 98 98 99 100 100 100 100 100 100 100 100 26 10 25 73 62 34 20 13 10 26 74 98

GFSNGP_500_rhum_081.txt.gz
RH
41 42 38 34 35 32 29 35 35 27 19 23 26 29 34 38 37 35 40 50 66 64 57 47 47 50 51 49 47 44 39 36 34 31 27 28 26 18 15 15 13 13 12 12
44 40 34 29 23 20 21 30 32 32 45 45 44 49 44 37 37 38 40 36 36 42 52 59 56 59 54 56 55 52 46 39 34 32 31 26 26 28 28 32 31 20 14 14
28 27 24 26 25 22 20 18 22 28 33 37 35 36 45 55 56 52 49 48 45 45 46 48 54 58 62 64 57 56 58 61 57 51 50 39 39 46 52 47 46 29 17 14
26 31 30 26 25 24 20 21 22 22 22 23 28 37 39 36 35 39 44 47 51 56 58 60 62 64 71 78 83 82 79 78 71 60 54 52 50 43 37 30 25 22 26 28
17 18 17 19 20 21 22 21 21 22 26 26 28 27 26 25 26 32 37 40 50 61 66 68 64 62 69 75 74 77 87 91 86 83 78 65 53 45 42 39 37 35 32 27
14 14 13 16 15 13 12 14 19 23 26 27 29 31 28 27 32 34 34 38 41 43 43 46 48 51 55 61 68 76 78 88 99 99 95 84 57 41 34 31 32 29 30 27
6 6 5 6 7 7 8 10 9 9 10 12 13 14 15 15 16 18 22 23 27 32 37 40 42 46 51 55 58 61 64 69 77 96 98 93 68 70 66 61 53 38 34 33
6 6 6 8 7 7 8 7 7 8 9 9 10 10 10 10 10 10 10 10 12 18 24 26 28 31 36 39 49 50 51 56 64 91 93 89 85 85 84 77 70 58 54 52
8 9 10 10 11 12 13 13 13 13 13 13 12 12 11 11 11 12 14 19 18 15 14 18 26 36 54 59 48 68 83 80 83 89 90 95 95 84 73 62 58 56 52 49
13 12 15 18 18 19 19 18 18 17 17 18 19 17 15 14 13 12 12 10 10 16 35 36 39 38 35 36 44 38 54 79 85 76 75 89 94 90 66 60 58 56 54 52
22 22 23 24 24 24 24 23 23 24 26 27 22 17 16 15 13 12 11 11 30 58 63 70 72 74 69 63 51 30 32 79 94 92 100 96 87 82 88 83 66 54 50 49
29 30 30 30 29 29 28 29 29 32 29 19 16 14 14 12 10 13 18 31 38 38 40 46 52 55 62 66 72 61 48 42 68 98 100 99 100 93 63 73 91 72 56 48
34 35 35 35 34 33 34 33 33 24 18 14 14 12 9 10 10 18 28 29 29 30 30 28 25 24 24 25 32 50 73 64 56 52 68 97 100 100 99 60 51 88 76 72
39 39 40 40 39 34 34 28 22 15 13 12 10 9 9 11 17 23 24 23 22 20 18 17 15 13 12 10 10 11 11 25 72 68 54 60 92 100 100 100 64 50 75 77
42 43 44 42 37 32 28 20 14 13 11 8 7 7 10 15 17 17 14 11 10 9 9 9 11 16 15 15 16 23 28 15 9 29 71 42 42 93 100 100 99 68 64 80
46 45 42 37 34 28 18 14 12 10 8 7 7 8 10 9 8 8 10 14 17 18 23 34 50 56 54 50 47 42 37 33 27 9 14 68 32 32 100 100 100 95 92 100
45 42 38 34 27 17 14 12 9 8 7 6 7 8 9 11 13 16 20 23 28 35 41 45 48 51 52 55 52 45 35 31 30 25 11 23 60 27 59 100 100 100 96 100
39 36 33 26 17 15 12 9 8 7 6 7 8 9 12 17 20 22 26 31 38 44 53 62 67 75 78 65 37 22 17 13 14 20 19 14 50 45 26 88 100 100 96 100
34 31 26 18 15 13 10 9 8 6 6 8 10 16 20 24 27 31 34 38 44 52 58 69 82 94 93 55 29 44 72 50 26 10 17 17 24 59 32 46 100 100 99 96
30 27 20 16 12 11 10 9 7 6 7 10 17 26 30 36 42 47 54 58 65 69 70 72 75 98 94 39 62 82 89 84 70 24 10 18 18 58 46 32 87 100 100 91
28 22 16 13 12 11 9 8 6 6 9 17 31 34 32 32 34 43 63 89 100 100 100 100 100 100 54 65 77 99 91 97 90 54 12 14 17 49 58 31 60 100 100 100
24 18 14 12 10 10 9 7 6 7 13 24 34 35 32 29 25 34 57 66 78 98 100 100 100 78 51 79 98 86 86 99 100 32 15 11 14 51 72 36 62 100 100 100
20 14 12 11 10 10 8 7 6 9 16 27 33 32 27 20 21 24 37 72 95 100 100 100 75 46 73 89 100 100 100 100 100 42 16 10 11 71 88 42 54 62 82 98
16 13 11 11 11 10 8 6 7 12 22 31 30 23 14 11 22 37 50 85 100 100 100 55 52 97 94 80 73 86 81 100 97 57 14 11 12 92 83 44 34 33 22 17
14 12 12 12 12 10 8 6 8 16 24 26 21 13 8 10 10 23 59 98 100 88 44 66 92 100 100 97 96 100 75 100 100 72 14 11 17 99 78 43 35 32 29 18
14 13 13 13 12 9 8 6 10 20 19 20 14 7 7 8 9 14 60 83 50 36 71 99 100 100 100 100 100 100 100 100 100 42 14 11 27 100 91 57 44 36 30 22
14 14 14 13 10 9 7 8 15 20 20 18 9 6 7 8 11 20 48 36 40 83 100 100 100 100 100 100 100 100 100 100 100 37 15 10 47 100 96 59 40 36 37 26

GFSNGP_500_rhum_084.txt.gz
RH
50 41 41 28 27 36 28 20 16 18 19 24 29 29 35 36 40 40 43 43 42 44 47 56 67 71 68 65 62 60 58 62 69 70 62 50 34 31 32 26 28 27 26 20
40 29 22 21 20 22 26 27 32 40 24 20 20 22 28 32 31 30 30 33 36 38 37 36 37 42 48 55 59 59 54 46 45 48 47 42 38 36 36 32 27 25 24 26
31 25 23 20 22 21 16 14 20 24 24 25 24 28 31 31 30 29 28 25 25 27 36 46 57 60 62 59 52 48 49 48 50 50 51 52 50 48 46 41 36 34 32 30
20 24 24 23 21 19 17 15 13 13 15 19 21 21 20 20 19 18 18 19 21 23 27 34 41 50 58 59 54 54 56 56 54 52 52 52 50 54 63 65 56 57 52 49
15 15 14 14 14 15 14 14 16 15 15 13 12 12 14 14 15 16 17 17 18 18 19 20 23 29 33 38 45 56 70 74 74 74 75 72 72 76 77 77 72 59 51 46
8 8 8 7 6 6 5 6 7 7 7 8 8 8 8 8 9 10 10 10 10 11 11 12 14 18 25 36 48 56 60 62 62 64 69 77 84 87 93 92 90 92 80 51
6 6 6 7 8 8 9 8 8 8 7 7 7 8 8 8 8 7 8 9 9 9 8 9 10 11 12 16 22 28 32 36 42 48 52 56 63 71 83 94 99 99 92 67
8 10 9 11 12 12 13 13 13 13 13 13 14 15 15 15 15 15 16 14 13 12 12 11 13 16 19 18 18 22 35 44 52 56 61 62 56 58 59 76 92 100 100 98
13 14 14 14 15 17 18 18 19 19 19 19 20 21 22 23 22 21 18 14 12 12 12 11 12 21 38 44 46 43 35 31 28 34 48 62 75 85 90 86 74 92 99 99
20 20 22 22 23 24 24 25 25 25 25 26 26 27 28 25 18 13 11 10 10 9 11 26 38 35 31 35 38 41 52 58 56 52 38 28 55 76 83 75 81 97 96 100
25 26 26 27 28 28 28 27 26 26 26 27 26 22 17 12 11 8 7 7 10 14 24 33 30 28 28 29 32 33 34 41 52 57 58 48 42 56 83 87 87 88 97 100
28 28 29 31 31 32 32 29 27 26 25 22 16 13 11 9 7 6 7 11 14 20 22 20 19 20 21 22 22 22 22 21 22 36 65 60 46 46 53 99 100 100 98 97
32 34 35 36 36 36 33 30 28 24 19 14 12 10 8 8 6 6 10 13 16 15 13 12 11 10 9 9 10 12 13 12 11 12 16 46 69 58 48 67 99 96 100 99
38 39 39 40 38 34 32 28 24 18 14 11 10 9 8 7 6 8 10 10 10 10 10 10 11 14 16 16 13 11 10 12 16 14 11 11 18 64 66 54 58 95 98 100
43 42 40 38 33 30 28 24 18 14 11 10 10 8 7 6 7 9 10 13 14 15 16 17 19 22 24 27 32 38 43 47 47 50 40 14 10 11 35 68 60 52 100 100
42 42 38 33 28 27 24 18 14 12 11 10 9 7 6 7 8 12 17 20 20 22 24 24 27 30 33 38 44 53 60 64 63 51 42 45 19 10 9 14 60 58 74 99
41 39 35 31 27 25 20 15 12 11 10 10 8 7 7 8 14 21 28 31 32 34 36 36 36 38 41 46 51 60 74 77 73 68 45 41 40 20 12 12 36 62 51 96
40 37 32 29 27 22 16 13 12 11 11 10 8 6 8 13 20 29 37 38 39 39 52 60 63 63 62 64 63 61 65 79 87 69 22 17 19 34 21 14 37 64 46 72
40 35 31 28 24 17 14 12 12 12 11 10 6 7 11 17 24 33 36 35 34 31 43 59 88 100 100 100 100 100 100 99 80 39 54 49 27 15 26 21 24 64 46 44
38 32 30 26 20 16 13 13 13 13 11 8 6 7 15 23 32 32 27 23 26 22 32 55 77 93 100 100 100 100 100 79 51 84 85 96 72 19 18 24 18 62 54 34
36 32 29 24 18 15 14 14 14 12 9 6 5 11 18 23 23 19 14 13 18 23 38 60 85 100 100 100 100 99 62 56 90 82 88 92 85 38 12 22 20 42 60 31
36 32 28 23 18 15 15 15 13 11 7 5 7 13 18 19 16 12 10 9 14 32 62 92 100 100 100 98 67 53 69 98 94 88 98 100 96 32 13 17 21 35 67 34
35 31 27 23 18 16 16 14 12 9 6 6 11 16 16 15 10 6 8 10 14 51 86 96 100 87 50 61 79 76 79 80 84 98 100 100 76 24 13 15 20 46 79 39
34 31 26 23 19 17 16 14 11 7 6 9 15 16 14 10 6 6 8 11 28 84 88 64 46 69 93 100 100 100 100 96 91 97 100 95 48 19 12 17 19 74 88 49
34 29 25 22 19 18 15 13 9 6 7 14 18 16 13 6 6 8 11 19 62 44 39 68 91 100 100 100 100 100 100 100 89 97 100 88 21 18 14 15 32 100 81 59
32 29 26 22 19 17 15 12 7 5 11 17 19 16 11 6 7 14 28 30 42 75 93 100 100 100 100 100 100 100 100 100 100 100 97 26 21 17 13 25 96 99 60 88
30 27 25 22 20 16 14 9 5 7 16 20 21 17 8 8 10 19 43 68 95 100 100 100 100 100 100 100 100 100 100 100 100 100 29 21 22 16 27 96 100 78 47 46

GFSNGP_500_rhum_087.txt.gz
RH
45 44 44 36 30 27 27 20 19 22 28 35 37 37 39 43 46 46 45 46 49 46 46 47 47 51 50 51 52 50 50 52 54 56 52 54 60 59 72 76 60 54 48 29
35 30 24 19 18 23 23 18 16 15 14 15 19 26 35 37 38 38 34 33 36 38 35 38 41 42 42 43 40 46 54 56 61 62 64 61 55 52 60 66 66 54 45 34
17 16 17 16 16 14 13 13 15 16 15 15 14 13 13 13 14 15 16 19 22 26 27 27 26 27 29 30 31 35 37 41 45 49 53 53 55 54 53 53 53 54 54 48
13 13 14 13 14 13 11 10 10 10 11 12 12 12 11 10 8 7 6 6 8 9 9 10 12 19 22 22 23 25 27 31 32 33 40 46 53 55 55 54 54 55 55 54
9 10 8 8 8 8 6 6 6 6 6 5 5 5 6 6 5 5 5 5 5 5 6 7 9 9 10 10 12 15 19 25 29 30 35 40 46 50 51 51 51 56 57 58
7 6 6 6 7 8 8 7 7 7 8 8 8 8 7 6 6 5 5 5 5 6 5 6 6 6 7 8 9 10 11 10 10 15 25 33 44 49 46 48 56 66 71 73
8 8 10 10 11 13 12 12 14 14 14 15 15 15 14 14 14 13 12 12 11 11 10 10 10 10 10 9 9 11 13 16 23 20 19 21 21 23 32 41 47 53 58 64
12 14 12 14 16 16 17 18 18 19 19 19 19 19 19 19 18 18 17 16 15 13 11 10 11 11 11 11 10 10 14 34 42 40 38 32 26 26 27 31 33 39 44 59
17 19 18 20 21 21 21 21 21 20 20 20 21 21 19 18 18 16 14 14 12 10 10 9 8 8 8 8 14 25 23 24 25 28 28 32 32 36 34 25 33 48 64 58
22 21 21 22 22 23 22 22 21 20 20 21 20 19 18 15 13 12 11 10 9 9 8 8 8 7 10 18 20 20 20 19 19 20 23 26 30 36 50 48 35 33 70 91
22 23 22 24 25 25 23 22 22 22 22 21 19 17 14 12 11 10 9 9 9 8 7 8 10 13 14 12 11 11 12 14 14 16 18 21 25 28 35 38 52 46 43 76
24 25 27 28 28 26 23 22 23 22 22 21 18 14 12 11 10 10 10 9 8 7 8 10 10 10 12 13 13 11 10 9 9 9 9 11 14 19 24 32 42 54 59 60
30 31 32 30 28 27 25 24 24 23 21 18 15 13 12 11 11 11 10 8 7 8 9 10 13 18 18 16 15 14 15 16 16 14 12 9 9 10 14 26 38 69 71 67
36 35 34 31 31 30 27 26 24 23 19 16 13 13 12 12 11 9 7 7 8 8 12 18 22 25 24 22 22 23 24 26 26 26 25 25 22 15 10 13 24 49 74 74
36 33 34 34 34 30 28 26 25 22 17 14 14 13 13 11 8 6 6 7 9 14 19 28 34 35 31 30 33 34 33 33 35 37 41 45 48 47 38 16 13 21 48 79
39 35 33 34 32 31 28 27 24 19 16 16 15 14 12 9 6 5 6 10 15 21 29 34 35 37 36 36 38 42 52 52 48 45 46 54 66 62 55 45 20 12 22 73
46 38 34 33 34 31 29 27 23 19 17 17 16 13 11 6 5 6 9 17 23 32 33 31 28 30 31 34 43 56 77 87 79 71 64 55 55 71 72 59 43 18 16 25
52 46 37 35 34 32 29 26 21 20 18 17 15 12 8 5 5 8 14 21 24 24 27 24 21 22 28 39 54 70 94 100 100 100 100 100 97 82 78 66 39 31 27 19
58 49 39 37 35 33 29 25 22 20 18 17 14 9 6 4 6 13 18 17 17 15 12 12 14 19 28 46 65 84 100 100 100 100 100 100 100 95 67 39 18 27 28 29
62 48 41 38 35 32 29 26 23 20 19 16 12 7 4 5 11 16 15 14 10 7 7 10 16 32 56 81 99 100 100 100 100 100 100 98 66 59 63 72 50 18 25 30
64 48 42 39 35 33 29 27 23 21 18 14 9 5 4 7 14 14 12 7 6 7 10 13 24 66 99 100 100 100 100 100 100 88 60 74 94 80 88 83 86 37 20 29
62 48 42 39 36 32 29 26 23 21 16 11 6 4 6 12 13 12 7 5 8 9 14 44 81 90 90 80 65 57 56 67 74 82 99 95 87 99 100 99 92 32 16 29
60 48 44 40 36 33 28 25 24 19 13 8 4 4 11 13 11 9 6 10 17 29 42 42 41 46 60 83 94 96 96 86 67 67 63 71 80 95 98 99 72 22 16 28
57 48 45 40 35 31 28 26 23 16 10 6 4 6 13 14 13 8 12 23 39 54 69 76 83 92 98 100 100 100 100 100 100 100 100 100 100 98 95 68 25 17 18 24
56 50 46 40 34 31 29 26 20 13 7 4 4 11 16 15 15 17 45 59 74 87 91 94 100 100 100 100 100 100 100 100 100 100 100 100 100 100 51 22 18 19 24 22
58 52 44 38 34 31 29 23 17 10 6 4 7 14 17 20 18 22 54 73 84 92 100 100 100 100 100 100 100 100 100 100 100 100 100 100 75 28 19 18 19 20 23 47
60 50 43 37 33 30 28 21 14 8 5 4 9 16 19 22 22 19 53 70 79 98 100 98 96 99 100 100 100 100 100 100 100 100 83 40 25 19 20 19 18 50 92 98

GFSNGP_500_rhum_090.txt.gz
RH
37 34 32 28 24 19 18 17 19 23 31 39 41 42 46 50 59 66 69 83 82 86 90 79 71 69 62 63 58 59 60 59 54 45 42 45 45 51 51 50 48 49 55 59
22 20 17 16 15 15 16 16 17 16 15 15 18 19 22 30 34 35 34 34 36 36 35 34 33 33 32 30 31 32 30 31 32 30 31 33 40 51 56 62 61 62 58 62
16 15 16 17 14 12 12 12 11 12 11 11 11 12 12 10 13 12 14 16 13 11 9 9 9 10 10 10 13 14 13 12 15 17 20 23 27 32 37 47 57 60 57 54
10 10 11 8 9 9 9 8 10 10 10 10 8 7 7 7 7 6 6 7 6 6 6 6 6 5 5 5 6 6 7 7 7 7 8 9 10 11 13 20 28 38 47 56
6 7 7 7 7 7 8 6 7 8 9 8 8 9 9 9 9 8 9 9 9 10 10 9 9 9 9 10 9 10 12 14 12 13 14 13 12 11 12 20 21 24 37 41
9 10 9 10 11 12 12 11 13 15 16 16 16 16 15 14 14 13 12 10 9 8 9 10 12 11 10 9 8 8 7 6 8 9 10 12 15 15 18 15 12 18 37 45
11 13 13 13 15 16 16 17 18 19 19 18 17 16 15 14 15 14 12 11 10 9 7 6 6 6 5 6 6 6 7 7 7 8 8 9 10 14 18 20 22 19 18 30
16 17 16 18 18 18 18 16 15 14 14 14 14 13 13 13 12 11 11 10 9 8 8 8 7 7 6 6 6 6 7 8 9 10 12 14 14 13 15 18 19 19 20 19
19 18 17 17 17 16 15 15 15 15 15 15 15 15 15 14 13 12 11 11 10 10 8 7 6 6 7 6 6 6 8 9 9 10 10 10 10 11 14 17 18 20 20 20
19 18 18 18 18 17 15 15 16 17 17 17 17 17 17 17 16 15 14 13 11 9 7 6 8 7 5 6 7 8 9 9 9 9 9 10 11 11 14 18 20 20 23 25
21 22 22 23 21 19 18 19 19 20 19 18 18 18 18 18 17 17 15 12 10 8 9 8 6 6 7 8 8 8 9 12 16 17 15 15 14 12 13 18 21 23 28 30
25 27 27 25 22 20 21 21 22 22 22 21 21 20 20 20 19 18 15 13 12 11 8 5 5 6 8 8 11 14 18 25 25 22 18 16 13 10 9 10 15 20 26 29
31 33 30 26 26 25 23 23 24 25 24 24 23 23 22 21 20 19 17 15 11 7 4 5 6 8 11 15 18 21 28 34 35 34 31 26 24 22 20 13 10 11 16 23
35 38 34 28 27 27 26 26 26 26 26 26 26 26 24 23 22 20 15 10 6 4 4 6 10 13 17 18 19 24 31 35 37 39 39 40 37 32 30 28 25 17 11 13
42 44 44 40 35 31 30 29 29 28 28 27 27 27 25 23 20 14 9 5 4 4 6 11 16 19 20 20 22 25 29 31 34 36 45 49 51 48 40 38 39 38 34 17
47 49 51 50 46 41 33 32 32 31 30 29 29 28 26 22 16 10 5 3 3 5 11 15 17 19 19 20 23 26 30 33 34 42 52 64 73 73 61 50 47 54 56 46
47 52 56 55 54 49 38 35 34 33 31 31 30 28 25 18 11 6 3 4 5 10 13 14 10 7 8 9 11 14 22 30 43 52 64 82 99 100 96 79 62 55 66 63
46 56 62 64 62 53 42 37 35 34 32 32 30 28 21 12 7 4 3 4 8 10 8 5 6 7 8 10 13 19 32 51 67 79 89 99 100 100 100 100 94 82 61 69
42 55 69 71 67 56 43 40 38 36 34 32 30 24 14 8 5 3 4 7 9 7 5 6 8 10 13 18 34 66 84 93 99 100 100 100 100 100 100 100 99 98 96 85
38 47 72 82 73 56 46 42 40 37 34 32 27 18 9 6 4 3 6 9 8 9 18 24 27 26 29 44 62 77 85 90 96 100 100 100 100 100 100 100 100 98 85 70
32 37 76 88 77 57 47 44 41 37 34 30 22 13 7 5 4 4 9 10 11 28 39 47 52 58 61 57 56 60 67 69 61 63 73 70 69 73 72 89 81 69 74 94
26 32 81 96 80 57 49 46 40 36 33 26 17 10 6 4 5 8 10 12 15 40 54 68 80 89 94 98 100 100 100 100 100 100 97 83 87 100 100 94 88 92 96 94
33 41 96 98 82 56 51 45 39 35 31 22 13 8 5 4 6 11 14 14 21 45 60 78 82 83 87 93 98 100 100 100 100 100 100 97 85 64 62 67 79 88 84 79
59 96 100 99 73 58 50 42 38 35 28 18 10 6 4 6 9 13 15 15 24 54 72 85 82 83 94 100 100 100 100 100 100 100 100 100 100 92 83 94 89 77 70 47
75 100 98 97 79 59 48 40 38 34 24 14 8 6 4 6 12 13 20 16 27 60 86 91 89 94 98 100 100 100 100 100 100 100 100 100 100 100 100 95 64 36 24 18
100 100 100 98 81 56 44 38 38 31 19 11 7 5 5 8 14 14 23 18 28 63 90 94 95 99 100 100 100 100 100 100 100 100 100 97 80 53 36 31 28 25 25 29
100 100 100 96 71 53 42 38 38 25 15 9 6 4 6 10 17 18 23 23 25 63 92 94 99 100 100 100 100 100 100 100 100 100 66 47 35 28 23 22 22 23 24 27

GFSNGP_500_rhum_093.txt.gz
RH
24 23 21 20 18 17 17 17 19 29 35 37 36 55 78 90 90 92 91 96 100 100 94 99 100 97 81 62 46 34 30 30 28 28 30 35 33 30 32 39 46 48 48 47
19 17 14 14 14 13 11 11 15 14 14 13 16 25 33 38 38 40 38 36 36 39 37 37 33 26 23 18 15 8 7 7 6 5 6 9 8 9 18 27 30 28 30 28
13 11 11 9 10 9 8 6 6 7 8 8 7 7 7 8 9 8 8 8 7 6 6 6 7 7 7 7 8 8 8 8 9 9 8 7 9 9 9 9 8 7 7 12
8 8 8 7 8 8 7 8 10 11 11 11 11 11 11 12 12 14 14 13 12 13 15 15 13 10 9 8 8 8 9 10 9 8 8 9 9 8 7 7 10 11 12 11
7 8 8 9 12 12 12 13 16 17 17 17 18 17 17 18 17 16 16 15 14 13 12 11 10 9 8 8 8 7 6 6 6 6 6 5 6 6 6 7 8 7 9 12
10 12 12 13 16 16 16 17 20 20 19 18 17 17 15 14 13 12 11 11 11 10 10 9 9 9 9 9 9 9 8 8 7 6 6 6 6 6 7 7 8 8 8 10
15 16 15 18 19 18 18 19 20 19 18 16 16 15 15 15 15 14 13 12 12 12 12 12 11 11 11 10 9 8 8 8 8 7 7 7 8 8 8 8 8 9 9 9
19 19 18 19 20 19 18 18 18 17 18 18 17 17 16 15 16 16 16 16 16 15 14 13 12 12 12 12 11 10 9 9 9 9 8 7 8 9 9 10 9 9 9 9
19 19 20 20 20 20 18 17 18 18 18 19 18 18 17 17 17 17 16 15 15 15 15 15 15 15 14 13 12 12 10 7 5 6 9 9 8 8 8 8 9 9 9 10
19 20 20 20 22 18 15 17 18 20 21 20 19 18 19 20 20 19 18 19 19 19 19 20 18 17 14 10 7 6 4 4 7 7 7 10 12 14 15 16 18 17 17 16
21 23 25 26 24 22 19 20 20 21 23 23 21 20 22 23 22 21 21 21 21 20 18 18 15 11 7 5 4 4 5 6 7 10 15 21 22 27 28 25 19 15 15 16
28 29 30 32 28 25 24 24 22 21 23 25 24 23 25 26 26 25 25 24 22 20 18 14 10 6 4 3 4 5 9 13 16 17 22 32 34 36 39 35 27 21 16 10
31 33 34 37 38 33 29 27 27 26 25 26 27 25 27 28 28 28 27 25 21 18 13 9 6 3 3 4 7 10 15 20 22 23 24 33 46 47 46 46 37 32 25 20
34 35 37 42 44 45 44 42 35 34 31 29 30 28 28 30 31 29 27 23 19 13 8 6 4 3 4 6 8 8 8 9 11 17 24 30 46 56 54 49 53 44 35 29
32 35 38 44 48 52 53 51 48 47 41 34 33 32 32 33 32 30 25 21 14 10 8 4 3 4 6 6 7 6 6 7 9 11 14 24 43 58 61 55 49 53 48 39
28 32 36 41 47 52 57 59 60 57 48 40 37 36 36 35 33 28 23 18 12 9 5 3 4 6 13 19 22 23 13 10 10 12 17 24 31 38 46 52 55 57 62 52
23 29 34 38 43 52 62 68 69 65 55 44 41 39 39 37 32 26 19 13 6 5 4 4 7 14 29 38 42 42 35 24 29 36 43 53 63 71 73 76 75 80 86 75
22 28 33 36 38 45 57 72 79 74 58 48 44 42 41 37 29 22 16 10 5 4 4 7 10 28 42 51 56 59 56 46 42 57 76 87 93 96 97 94 93 96 100 100
21 28 32 30 33 39 48 68 88 86 66 52 47 44 39 34 26 18 12 6 4 4 6 11 16 39 56 63 64 70 81 85 84 73 54 63 95 100 99 100 100 100 100 100
24 29 28 46 58 46 42 70 97 97 73 59 58 44 37 31 21 11 7 5 4 4 9 11 23 49 66 67 66 69 78 89 98 100 100 98 79 83 81 97 99 100 100 100
25 29 51 68 66 33 35 70 98 98 87 71 59 42 34 22 14 9 4 4 5 7 13 12 37 65 72 73 80 85 91 94 100 100 100 100 100 100 95 95 73 81 91 95
37 27 36 71 82 54 60 96 100 100 94 80 60 42 29 15 9 7 5 4 6 10 12 21 58 76 77 77 79 82 89 96 98 100 100 100 100 100 100 87 94 95 89 74
100 92 88 95 94 93 100 100 100 100 98 71 50 37 19 12 7 4 4 6 11 14 12 32 72 80 82 81 84 87 90 96 100 100 100 100 100 100 100 95 69 70 75 83
100 97 100 100 100 99 100 100 100 100 80 60 48 28 13 8 6 4 4 7 12 15 15 48 78 82 78 74 76 84 95 99 100 100 100 100 100 100 100 100 91 90 90 81
99 100 100 100 98 100 100 100 100 97 83 62 40 18 10 7 5 4 6 10 13 14 18 64 77 75 62 60 61 69 95 100 100 100 100 99 89 89 93 97 97 91 69 59
100 100 100 100 100 100 100 100 100 99 87 62 32 15 10 6 4 4 7 11 14 13 21 73 69 59 49 40 32 42 55 71 87 99 98 88 60 46 40 38 38 36 30 24
100 100 100 100 100 100 100 100 100 100 75 50 25 14 9 5 4 5 10 14 16 12 27 70 43 32 34 29 26 30 40 44 45 34 29 28 29 30 32 31 30 32 34 34

GFSNGP_500_rhum_096.txt.gz
RH
19 17 14 14 13 12 15 17 18 32 36 52 52 51 62 75 74 72 71 77 82 82 88 90 80 54 49 49 46 35 24 20 16 13 12 16 20 24 25 30 28 29 28 33
14 11 10 10 10 11 9 10 12 13 13 12 16 18 23 23 23 17 15 12 10 8 9 9 9 7 6 5 5 6 6 6 6 6 6 7 7 5 5 6 6 6 5 6
8 9 9 7 6 6 6 6 6 6 7 7 8 7 7 6 7 7 6 6 6 8 9 10 9 8 8 9 8 7 7 6 6 6 6 6 6 6 6 6 6 6 6 5
8 8 8 10 11 10 12 12 13 14 14 13 12 12 14 16 16 16 16 16 15 14 12 10 9 8 9 9 9 9 9 9 8 8 7 7 8 8 7 7 7 6 6 6
10 11 11 14 16 15 15 18 20 20 20 19 18 18 18 18 16 16 15 14 13 12 12 12 12 12 12 11 10 10 10 10 9 9 10 10 10 9 8 8 8 7 6 6
14 16 15 18 18 17 17 18 18 18 18 19 18 18 17 17 16 16 16 15 15 15 14 14 14 14 13 13 12 10 9 8 8 9 10 10 11 12 12 12 11 11 10 9
18 18 16 16 16 16 16 16 15 16 17 17 17 17 16 16 16 17 17 17 16 14 14 14 14 14 12 12 12 12 11 10 10 9 7 7 6 5 7 8 8 8 8 8
19 19 19 18 18 17 18 17 18 19 20 20 20 19 18 17 18 19 18 17 17 17 19 19 18 17 15 14 14 14 12 11 11 10 9 7 6 6 6 6 6 6 5 5
18 19 20 20 21 22 18 17 18 18 20 21 22 20 17 18 21 23 24 23 21 21 21 21 18 16 16 16 13 11 10 10 8 7 6 5 4 4 4 6 6 6 6 7
20 21 21 23 25 25 24 23 19 20 20 20 22 23 22 19 21 24 26 27 27 26 24 23 20 20 20 19 16 13 11 8 6 4 3 4 5 7 10 15 17 20 19 17
28 29 26 27 29 31 30 26 25 25 25 21 20 22 24 25 24 24 25 27 30 31 30 27 23 23 22 18 14 10 6 5 3 3 4 6 7 7 8 17 23 25 31 27
30 33 31 33 33 34 37 37 33 30 28 28 28 28 28 28 29 30 29 29 32 34 34 29 26 24 19 13 8 5 4 3 3 5 12 21 20 10 8 12 32 35 36 37
25 29 32 32 34 36 38 42 45 47 47 47 45 44 43 37 34 34 33 33 39 45 36 29 25 19 12 6 4 4 3 4 9 22 30 30 27 10 9 21 39 66 58 48
18 22 26 30 33 35 38 42 48 52 54 56 56 57 56 48 42 40 39 39 44 53 37 27 19 12 7 4 4 3 4 12 28 38 38 41 35 16 11 15 43 92 84 66
13 15 18 24 28 32 36 40 45 49 55 61 65 70 68 64 52 45 45 42 44 46 33 24 15 8 4 4 4 5 13 32 47 48 52 58 45 28 24 23 29 58 99 95
11 14 17 19 23 27 33 37 42 46 52 61 75 85 94 92 68 56 48 53 52 44 27 16 9 5 3 4 5 11 35 51 52 53 60 79 62 43 56 71 58 63 80 98
13 12 14 16 19 22 29 34 38 40 43 62 91 99 99 98 85 60 66 77 63 38 20 10 6 3 4 4 9 38 48 43 56 71 76 87 98 83 52 80 93 99 88 89
22 18 14 15 17 20 26 32 34 34 37 72 99 100 100 99 87 78 85 77 42 26 13 7 4 3 4 6 33 44 28 36 58 70 92 100 100 100 94 61 91 98 100 100
50 27 21 18 20 25 29 32 30 29 46 99 100 100 100 100 99 96 86 62 29 14 8 4 3 5 5 23 38 24 24 39 59 76 88 96 100 100 100 100 79 85 100 100
95 56 28 26 27 28 30 28 30 47 87 99 99 100 100 100 100 86 76 41 21 10 6 3 4 5 8 33 21 18 26 50 73 89 98 97 96 100 100 100 100 87 81 100
100 99 78 64 42 36 34 33 32 52 98 99 100 100 100 100 92 87 50 24 12 7 4 4 5 6 28 22 17 18 21 41 74 96 100 98 100 100 100 100 100 98 95 82
99 100 100 97 91 79 76 83 75 86 97 100 100 100 99 100 98 78 47 15 8 5 4 5 7 13 26 17 16 16 19 29 53 88 99 100 99 100 100 100 100 98 84 99
97 99 100 100 98 98 99 100 99 100 100 100 100 100 100 99 92 62 31 11 5 4 4 6 8 24 20 18 18 19 22 29 48 72 85 88 92 92 85 97 100 99 73 75
85 100 100 100 100 97 100 100 100 100 100 100 99 100 100 98 87 60 19 7 5 4 5 8 10 26 22 21 20 22 24 28 47 71 91 92 77 64 61 78 88 96 87 81
65 95 99 100 100 100 100 100 100 100 99 100 100 99 100 97 83 47 11 6 4 5 7 9 16 28 30 31 23 24 21 21 23 25 28 33 40 46 47 46 53 73 82 76
33 65 91 98 100 100 100 100 100 100 99 100 100 100 97 97 62 19 9 5 4 5 9 9 22 36 44 47 23 22 21 23 25 30 46 58 59 55 56 51 43 33 32 39
28 32 38 68 96 100 100 100 100 100 100 100 100 100 97 88 40 13 7 5 5 7 9 9 26 46 54 42 21 20 22 24 28 50 82 70 55 44 34 36 38 38 37 37

GFSNGP_500_rhum_099.txt.gz
RH
16 11 11 11 10 11 16 16 15 19 23 22 32 42 46 41 41 50 57 46 49 63 72 74 82 84 78 73 65 46 25 14 10 7 7 6 6 10 14 18 20 22 27 33
8 7 8 7 8 8 7 8 13 11 12 13 13 14 15 15 16 16 15 13 12 9 8 7 6 6 6 5 6 6 7 7 8 8 8 8 7 7 7 6 6 6 5 5
6 8 8 7 6 6 6 6 6 5 6 7 6 6 6 6 6 7 8 9 9 10 11 11 11 11 10 10 10 9 9 9 8 8 8 8 8 8 8 7 7 7 7 8
11 11 12 16 12 12 15 14 12 9 10 10 11 11 13 15 15 14 14 14 14 13 13 12 12 12 12 12 13 13 12 12 11 11 12 11 10 8 8 8 9 9 9 9
15 16 14 16 16 16 16 17 18 18 18 18 18 17 17 16 16 16 16 16 15 15 15 15 14 14 13 13 13 12 12 12 12 12 12 11 10 10 9 9 9 9 9 10
18 17 15 15 17 17 17 18 17 17 18 18 18 17 17 17 17 17 17 18 17 17 16 16 17 17 17 17 16 15 14 13 13 14 14 12 11 10 10 10 9 9 9 8
17 17 17 17 15 14 16 17 16 18 19 19 19 18 17 16 16 18 20 21 21 20 19 19 19 20 21 20 18 17 17 17 16 15 13 12 12 11 10 9 8 7 7 6
17 17 18 19 19 21 19 15 16 18 18 20 21 22 21 20 18 19 21 23 24 24 25 25 24 25 24 22 21 20 20 20 19 17 16 14 11 10 8 6 5 5 5 4
22 20 19 20 21 22 23 24 23 20 18 20 22 21 22 23 24 24 22 21 23 24 25 26 27 29 31 32 32 29 25 24 22 18 14 10 7 5 4 3 3 2 2 3
27 25 26 25 24 24 25 29 30 27 26 26 26 26 23 21 21 23 24 26 27 28 28 29 30 31 41 46 42 32 28 26 21 15 10 7 5 3 2 2 3 5 10 15
24 20 31 31 30 31 30 32 34 37 38 35 31 29 29 29 30 30 31 32 31 31 32 33 34 36 45 59 57 42 32 26 17 10 7 4 3 2 4 8 15 20 20 18
14 17 21 23 27 28 31 32 33 35 38 43 45 47 50 51 51 51 51 52 52 47 43 41 49 54 54 62 61 49 35 17 11 6 4 2 4 6 11 15 14 20 26 33
9 9 11 13 17 21 25 30 32 34 36 40 44 48 52 56 62 66 71 76 74 73 73 60 61 60 68 71 62 42 17 11 6 4 3 7 10 10 11 19 31 39 53 37
50 20 10 9 11 13 16 21 25 30 33 36 40 45 48 51 58 72 93 96 95 95 88 81 73 79 80 70 45 18 11 6 4 3 8 10 10 11 15 27 60 70 59 38
67 68 62 31 12 12 13 15 16 20 27 34 39 41 43 45 51 67 94 97 97 96 95 90 87 82 73 48 20 10 6 4 3 9 11 10 12 14 22 54 84 80 72 61
87 87 75 65 24 16 18 19 18 18 24 34 39 39 40 38 45 59 94 98 100 94 92 90 83 76 60 22 9 6 4 4 9 12 11 12 15 20 43 73 87 93 87 61
77 91 94 63 27 21 16 22 23 23 28 37 38 36 34 32 51 54 97 98 95 96 94 87 84 72 29 10 6 4 4 8 14 13 13 15 18 38 72 84 89 96 100 77
40 77 92 100 86 41 23 24 26 27 32 36 35 32 29 37 54 97 97 96 98 94 89 90 82 44 12 7 4 4 7 14 16 14 16 18 23 54 88 92 93 90 98 100
10 40 84 98 86 56 75 81 69 59 55 46 38 30 41 65 92 99 93 99 100 96 91 85 55 15 6 4 4 5 15 19 16 16 19 21 32 60 96 93 90 95 97 98
5 6 28 92 100 90 55 42 46 54 73 80 91 97 96 96 99 99 99 98 100 97 86 66 21 6 4 4 5 14 22 21 16 20 23 28 38 52 80 99 93 95 95 98
8 7 8 32 97 100 100 100 100 98 98 94 98 99 100 100 100 100 100 99 97 94 91 42 8 4 4 5 11 25 26 16 19 23 24 21 34 64 66 72 84 93 99 95
11 10 9 10 36 96 100 100 100 100 100 100 100 100 100 100 100 99 100 100 99 96 56 13 5 4 6 7 22 27 16 17 23 27 26 24 27 35 60 50 65 87 100 84
12 12 13 13 13 24 86 99 100 100 100 100 100 100 100 100 100 100 100 100 100 89 34 6 5 5 7 13 28 17 16 19 24 28 31 33 40 44 39 36 42 70 85 78
15 14 15 17 18 20 44 76 91 100 100 100 100 100 100 98 99 100 100 100 99 62 22 5 5 7 7 28 22 15 15 19 25 30 33 41 44 47 50 46 38 53 64 79
17 16 18 20 22 26 30 34 66 90 100 100 100 100 100 100 98 98 100 100 89 29 10 5 6 8 10 32 15 15 12 18 24 27 33 35 37 37 36 34 34 41 44 58
20 18 19 21 24 29 31 38 41 50 96 100 100 100 100 100 100 100 100 99 63 14 6 5 7 8 19 29 18 15 18 20 31 39 42 35 34 37 38 39 38 36 34 34
26 20 20 21 24 28 36 37 36 43 76 100 100 100 100 100 100 100 100 95 40 17 6 5 8 9 26 28 24 21 32 38 53 60 63 58 52 61 58 80 92 66 64 58

GFSNGP_500_rhum_102.txt.gz
RH
7 8 8 8 6 10 13 13 13 14 12 12 16 22 20 21 23 28 33 40 63 74 80 80 85 95 98 97 97 95 90 67 38 29 20 14 14 10 10 9 12 13 15 15
6 7 7 6 6 6 5 8 10 10 8 8 8 9 9 8 7 8 7 7 7 12 22 11 12 12 9 8 8 6 7 8 9 10 10 9 9 9 9 9 8 8 8 7
9 10 12 11 12 10 8 7 6 5 5 5 5 6 7 8 10 11 12 13 13 13 12 12 12 11 11 11 11 12 12 12 13 13 12 12 13 13 13 12 12 11 10 11
14 14 13 14 15 14 15 14 13 12 12 12 12 12 13 13 14 13 14 14 14 15 15 15 15 15 16 16 16 16 17 17 16 16 15 14 13 13 13 13 13 13 12 11
15 16 15 14 16 15 15 15 16 15 14 14 14 14 14 15 16 16 17 17 17 17 17 17 16 15 15 16 17 18 18 17 16 15 15 15 16 16 16 16 17 16 15 14
16 17 18 18 16 15 16 16 17 17 18 18 18 18 18 18 17 17 18 18 19 19 19 19 19 19 20 21 22 22 21 21 20 20 19 19 19 20 19 18 16 14 13 12
16 16 17 18 19 19 21 19 17 17 17 19 20 22 23 22 20 19 19 20 21 23 25 26 26 26 26 26 27 28 28 27 26 26 24 22 22 22 21 20 17 15 12 10
21 20 20 19 19 20 21 21 22 21 17 17 19 20 20 22 23 24 24 24 25 25 24 25 26 26 25 26 26 27 28 30 36 47 47 44 34 30 27 23 17 13 10 8
16 20 21 26 26 23 21 22 23 25 26 26 26 24 24 26 27 26 24 23 24 24 26 27 28 29 30 31 32 33 32 34 38 43 51 54 50 44 33 21 14 10 6 4
15 12 15 19 22 25 29 27 25 26 28 31 34 37 36 35 34 33 33 34 38 41 44 46 48 49 50 48 47 45 45 49 59 61 59 56 49 37 26 17 9 5 3 2
16 29 22 11 11 14 18 22 27 30 30 31 33 37 41 45 48 49 52 55 59 64 72 85 89 92 94 95 92 84 78 72 66 63 60 54 42 29 16 8 4 3 2 3
8 16 26 46 20 11 11 13 15 18 22 27 31 35 38 42 46 48 48 54 60 59 63 73 97 98 94 91 86 80 75 69 66 61 57 46 32 14 5 3 3 4 5 6
6 10 33 37 42 50 14 10 11 13 15 16 20 28 35 39 43 46 45 46 47 49 56 73 76 88 82 84 81 75 73 71 66 61 45 30 12 5 3 5 6 8 10 11
5 4 10 19 53 65 73 49 16 13 15 17 17 20 28 35 40 44 44 41 40 43 51 57 69 88 79 77 81 79 77 70 62 40 24 10 4 4 5 5 6 11 13 13
7 5 4 6 17 43 71 86 69 30 20 21 20 20 24 30 37 44 40 37 37 45 59 53 90 91 76 78 84 80 76 67 28 14 7 4 4 5 6 8 13 13 14 45
12 10 8 6 5 8 42 63 86 89 34 20 26 26 26 27 38 39 35 31 41 55 58 95 95 84 82 92 91 88 76 30 8 5 4 6 6 6 8 13 14 13 28 64
14 13 10 9 6 5 6 25 64 81 84 78 47 31 31 37 39 40 56 81 92 97 100 95 96 97 100 99 96 86 35 5 4 4 8 7 8 10 13 13 13 21 40 74
11 12 13 11 11 7 6 7 29 60 72 68 79 91 90 93 98 98 99 100 100 100 93 96 100 100 100 100 96 53 5 4 5 10 7 9 11 14 15 13 17 31 46 82
15 11 10 11 12 11 10 8 8 28 86 92 75 63 60 79 96 100 99 99 100 96 95 99 100 100 99 97 73 7 4 6 12 8 9 11 14 21 18 15 20 32 41 67
28 18 12 10 10 10 12 12 9 9 36 85 93 98 98 100 100 100 100 100 100 100 100 100 98 97 97 88 17 4 6 13 9 10 11 14 21 26 25 22 23 24 33 60
36 33 25 16 13 12 12 13 13 12 12 36 74 86 94 100 100 100 100 100 99 100 100 100 98 97 96 30 5 5 16 11 10 11 13 17 23 29 31 29 30 24 35 87
43 40 34 27 19 16 15 15 16 19 22 29 39 78 99 99 99 100 100 100 99 100 100 100 99 97 77 7 7 12 17 10 12 14 16 18 23 29 33 31 33 30 36 82
44 47 43 35 27 21 18 18 19 22 27 34 40 52 97 93 94 100 97 100 98 100 100 100 99 94 30 6 8 22 13 12 14 16 20 24 25 33 34 33 34 37 35 58
49 49 50 45 35 27 22 21 20 23 28 38 48 54 60 79 92 96 96 100 100 99 100 99 97 87 7 8 10 26 14 18 22 21 32 43 50 59 46 38 36 36 43 50
58 55 53 53 49 42 30 24 23 24 28 36 44 52 75 97 95 88 96 100 100 100 100 97 95 34 7 10 15 28 20 32 37 39 55 58 66 84 90 76 46 40 39 40
75 66 61 61 62 61 44 27 23 24 29 40 53 56 82 100 100 98 93 100 100 100 100 97 89 9 7 10 19 30 30 44 47 47 51 60 66 81 73 97 100 84 50 46
85 81 78 73 73 71 54 31 26 25 30 40 47 52 82 100 100 100 100 100 100 100 100 98 42 6 8 11 22 33 37 51 56 64 67 54 57 63 74 72 91 100 100 100

GFSNGP_500_rhum_105.txt.gz
RH
7 7 8 7 7 5 6 7 8 8 8 8 7 8 8 8 9 11 12 14 18 29 36 51 82 100 99 99 100 96 98 98 95 62 53 68 76 53 81 34 21 21 32 15
10 9 10 10 11 11 9 8 6 5 5 5 6 6 7 8 10 11 11 10 10 10 10 9 9 13 23 29 28 38 36 20 13 9 8 9 10 11 11 11 11 11 10 11
11 14 13 13 13 13 13 12 12 11 11 11 12 12 13 14 15 15 14 14 14 13 13 13 13 13 13 12 12 12 12 12 13 14 15 16 16 16 16 16 15 15 14 15
15 15 15 15 14 15 15 13 13 13 12 13 13 14 14 14 15 15 15 16 16 17 17 17 16 16 16 17 17 18 19 20 21 22 22 22 21 20 19 18 18 18 19 19
16 16 17 17 18 16 15 16 16 16 16 16 16 16 16 16 16 16 16 17 18 19 20 20 21 21 21 22 22 23 24 25 26 27 27 27 28 27 27 27 28 27 25 23
24 23 20 19 18 19 19 20 20 17 17 18 18 20 20 21 21 19 18 18 19 21 22 23 25 26 27 28 28 28 29 29 29 30 30 30 30 30 30 29 31 33 36 32
13 14 16 18 21 22 20 20 20 22 22 20 17 19 20 22 23 24 25 25 25 25 25 25 25 26 27 28 29 29 29 30 30 31 31 30 30 30 33 38 43 43 42 43
10 17 18 17 14 16 20 24 24 22 22 23 24 24 22 22 23 24 25 27 29 28 28 29 31 33 36 40 42 43 45 48 51 52 52 52 53 55 57 55 54 52 48 46
6 8 15 24 36 26 14 12 13 17 21 24 24 25 28 30 32 33 35 37 37 36 40 46 52 64 70 74 79 92 94 86 80 76 75 72 71 72 73 68 60 54 49 47
6 6 5 6 14 36 46 33 16 11 12 16 19 25 28 29 31 35 39 44 48 51 58 63 65 72 75 71 78 80 76 79 81 71 64 64 69 67 65 63 62 57 50 42
7 7 6 4 4 6 14 35 51 41 16 12 13 16 20 24 28 32 35 39 44 49 51 50 48 47 48 52 59 67 65 69 77 79 64 65 68 67 68 66 57 47 41 34
10 9 8 6 5 4 4 7 18 42 60 63 37 15 14 17 19 22 28 36 42 47 50 48 44 41 42 50 63 62 45 52 73 69 70 70 70 76 71 59 42 28 18 12
13 12 11 9 8 7 6 5 5 10 25 53 76 83 68 31 18 20 21 24 33 42 45 45 39 42 48 58 48 42 61 80 72 74 79 80 80 73 58 14 8 5 3 3
16 13 13 11 8 8 7 6 5 6 9 16 39 66 72 62 34 32 30 29 30 36 39 34 40 50 60 64 87 93 78 81 87 87 89 87 72 27 10 6 4 4 5 5
14 17 13 14 14 11 7 8 8 8 8 8 19 48 75 75 73 56 38 35 36 37 55 77 86 95 100 97 87 82 90 92 95 91 86 57 9 4 4 4 5 5 6 8
21 15 21 16 14 14 14 13 14 13 9 8 9 18 50 67 74 69 56 54 55 71 93 99 99 96 99 88 90 98 100 96 92 88 39 4 6 5 6 7 7 8 9 13
32 30 22 27 20 12 12 14 13 14 14 14 12 10 16 63 80 60 56 61 77 94 100 100 100 100 94 100 100 100 100 97 88 24 5 8 8 9 11 11 11 13 17 16
37 37 34 32 31 28 18 12 12 11 10 12 12 12 12 30 68 99 100 100 100 100 100 100 100 100 100 100 100 100 100 84 23 6 10 10 13 16 15 14 17 20 20 18
44 40 41 39 36 34 33 27 16 15 17 16 14 14 14 15 24 57 91 100 100 99 99 100 100 100 100 100 100 100 89 20 6 11 10 12 17 21 18 19 23 24 19 19
56 51 46 46 44 39 38 36 32 27 25 24 24 18 17 20 29 42 70 96 95 100 99 98 98 100 100 100 100 97 26 6 11 12 12 15 25 28 24 27 28 25 20 22
65 66 60 56 51 44 45 46 42 38 34 30 26 23 21 23 29 43 57 93 88 98 100 95 100 100 100 100 100 42 6 8 18 13 19 23 38 40 56 42 36 36 26 31
78 78 72 66 57 53 51 51 51 48 48 39 30 26 24 26 31 41 63 73 73 88 92 94 100 100 100 100 79 8 8 16 19 23 26 38 45 54 65 79 53 46 37 40
81 82 81 76 70 65 67 62 61 58 60 54 36 28 26 29 33 44 63 88 89 97 100 100 100 100 100 97 19 8 10 24 24 34 40 48 58 54 50 63 89 50 58 41
88 89 89 89 85 82 86 82 76 75 73 67 47 37 30 28 31 42 50 72 91 98 99 97 100 100 100 56 8 10 12 29 32 42 44 47 56 60 54 82 97 100 54 66
98 98 95 95 96 92 96 98 98 92 88 79 57 51 31 28 32 34 37 61 86 93 88 94 97 100 99 25 7 11 13 30 37 48 61 54 55 52 58 77 99 100 99 55
99 98 98 98 96 94 98 100 100 95 96 81 70 59 36 29 34 42 43 60 81 86 89 91 93 100 88 9 7 11 15 31 39 54 66 62 54 49 42 64 96 100 100 100
99 98 98 100 99 94 100 100 100 95 97 84 83 61 42 30 35 49 53 58 72 82 91 90 96 99 61 7 8 12 16 34 44 54 62 67 64 52 38 54 82 98 100 97

GFSNGP_500_rhum_108.txt.gz
RH
9 10 11 11 11 11 10 9 8 8 7 6 7 9 10 10 12 13 13 12 13 13 13 12 12 16 54 74 80 95 100 100 99 100 100 99 94 94 93 84 94 92 84 58
12 12 13 13 13 13 12 12 11 12 14 13 14 14 14 15 15 15 15 16 16 16 15 16 18 17 14 13 12 12 26 35 50 36 50 47 10 18 10 26 17 11 13 16
16 15 15 15 14 15 14 14 14 13 13 14 14 15 16 17 16 16 16 17 17 18 17 18 17 17 16 16 16 15 15 14 14 13 13 13 14 14 15 16 16 16 17 18
21 21 19 18 17 17 18 17 15 16 15 15 15 16 17 17 18 18 18 18 18 18 18 19 19 19 19 18 18 18 18 19 20 21 22 24 25 26 27 28 28 29 28 27
13 12 13 16 18 20 19 18 18 19 19 19 17 17 18 18 19 20 21 20 19 18 18 19 21 22 24 25 26 27 28 28 29 29 29 29 30 30 30 31 31 31 32 32
10 8 12 18 18 15 15 17 22 22 21 21 22 22 23 21 20 20 20 21 22 24 25 26 26 26 26 27 27 28 29 29 30 31 33 36 40 44 46 47 47 44 43 40
7 6 8 7 9 14 20 20 16 15 19 23 25 25 23 24 25 26 27 27 25 25 25 28 30 32 33 33 34 37 42 49 55 64 75 85 87 83 77 71 64 60 59 63
8 7 7 6 5 4 5 12 28 21 14 14 15 21 29 26 26 28 29 29 31 34 37 40 44 47 49 54 58 59 69 92 97 91 84 78 71 66 62 55 49 46 45 43
12 8 9 8 7 6 5 4 6 20 33 30 19 12 12 14 16 20 24 27 30 32 37 49 69 84 86 84 96 92 72 59 57 54 49 47 45 41 38 36 39 46 45 44
16 13 11 10 9 9 8 7 5 4 4 13 38 50 50 30 16 14 15 17 21 25 27 31 37 44 61 93 97 95 96 90 68 48 44 40 35 32 32 39 44 43 45 50
18 18 16 14 12 11 10 9 8 7 5 4 6 15 36 54 70 76 61 33 25 21 21 23 28 35 43 48 46 43 42 42 42 43 38 38 46 60 62 59 58 64 71 70
17 15 18 19 16 13 12 11 10 9 8 8 6 4 5 8 18 37 59 65 55 41 36 34 32 35 39 40 40 41 46 53 60 72 82 80 74 74 76 79 82 75 68 58
30 24 19 16 20 17 14 13 10 11 12 10 10 9 8 8 8 9 11 26 56 58 48 41 41 42 40 43 67 87 99 100 100 89 74 75 87 87 87 80 63 41 21 8
33 32 29 24 16 19 20 14 14 14 15 14 13 14 15 14 12 12 13 13 21 44 58 59 48 57 76 90 100 100 100 100 95 93 98 99 97 94 69 35 7 8 10 7
43 39 36 33 32 26 26 28 16 13 12 13 12 13 13 14 14 14 14 13 19 32 49 59 68 80 93 100 100 99 96 95 99 100 97 98 91 32 10 8 7 8 10 10
59 47 43 39 37 37 35 33 31 29 24 18 14 16 19 21 23 21 17 13 14 19 48 74 100 100 100 100 100 100 100 100 98 98 100 88 26 9 9 11 14 15 15 16
77 61 49 51 45 41 41 41 39 34 30 28 26 26 29 34 39 38 24 17 18 25 33 48 83 79 90 100 100 100 100 99 96 96 86 17 13 12 14 21 21 26 32 24
89 79 71 73 72 57 48 47 50 46 39 37 36 38 40 42 46 44 32 22 22 28 41 51 86 91 96 100 100 100 100 99 98 82 12 16 14 18 26 29 32 33 45 40
85 87 91 88 87 73 68 63 61 55 51 49 47 46 49 53 52 46 36 25 25 28 44 65 78 83 99 96 98 100 100 100 90 15 15 18 23 31 35 36 46 59 62 49
80 76 79 83 82 80 78 75 74 67 61 67 68 59 59 63 59 51 43 27 25 30 54 84 92 99 96 95 96 95 100 97 20 11 22 26 35 39 34 42 67 87 80 57
85 79 74 78 86 90 86 85 90 95 96 94 95 86 80 77 68 58 46 31 28 30 33 46 73 87 86 92 93 98 100 34 9 17 25 37 42 44 37 52 82 92 90 62
90 88 80 78 83 83 86 92 98 98 96 97 97 96 97 93 74 64 51 36 28 28 26 37 56 73 83 88 91 100 85 9 9 21 33 40 45 45 39 52 89 99 95 62
86 95 89 84 78 81 93 93 98 98 97 97 96 96 96 98 78 72 54 43 28 34 38 48 56 73 84 85 93 100 36 7 10 22 37 47 52 44 41 53 88 91 83 60
84 91 98 92 88 90 91 90 100 98 98 98 94 96 98 100 84 77 65 43 31 36 43 46 57 70 89 82 97 93 16 7 10 23 36 51 54 42 42 58 88 90 83 61
85 91 98 97 100 98 95 93 100 99 98 100 97 96 97 99 93 84 75 50 37 37 52 57 61 65 84 83 93 72 8 8 10 25 35 52 53 42 40 53 82 92 91 77
93 96 99 99 99 99 96 95 100 100 99 100 99 95 100 100 98 94 81 56 40 38 50 70 70 70 85 84 89 54 8 8 12 26 36 52 59 49 38 45 77 98 98 90
97 99 99 99 100 99 96 99 100 100 99 100 100 96 100 100 98 98 84 59 41 40 47 80 80 76 88 87 88 47 8 9 12 25 37 50 58 54 35 40 77 89 98 99

GFSNGP_500_rhum_111.txt.gz
RH
13 14 14 14 14 14 14 14 12 14 13 12 13 13 13 13 13 12 13 13 13 13 13 12 13 14 13 12 10 12 31 55 83 93 87 96 96 94 91 96 98 98 95 99
16 16 16 16 15 15 15 15 14 14 15 13 14 15 15 16 17 17 17 16 16 16 17 17 16 16 15 15 15 14 14 12 12 12 11 11 24 25 19 14 16 15 30 51
15 18 20 20 18 18 18 17 18 18 17 16 16 16 16 16 17 18 19 20 20 19 19 19 19 20 20 21 21 20 20 20 20 19 19 19 19 20 21 22 22 23 24 24
9 12 11 12 14 17 18 20 20 19 18 19 19 20 20 20 20 19 18 19 21 22 24 24 24 23 22 23 24 25 26 26 26 25 25 25 26 27 29 30 31 31 32 32
8 6 7 11 9 11 14 15 14 20 18 21 21 21 21 22 22 23 23 24 24 24 24 24 25 26 28 29 29 29 29 29 30 30 31 31 32 33 34 35 36 38 39 43
11 8 8 7 6 6 6 7 14 18 18 16 16 19 23 25 26 26 25 24 25 27 28 30 32 34 36 38 40 41 42 41 42 46 50 56 60 65 69 73 87 99 100 91
16 13 10 9 8 8 7 6 5 4 6 16 24 18 15 15 14 14 16 19 22 24 27 31 33 37 40 43 46 54 72 85 80 80 92 92 94 95 94 94 95 95 92 76
17 17 15 15 12 10 10 9 8 7 6 5 6 11 14 24 32 39 41 33 19 16 17 20 22 26 28 30 33 38 45 51 67 90 86 72 80 89 96 96 79 58 47 39
22 19 18 18 18 15 12 11 11 10 9 9 8 8 6 5 5 9 17 32 57 73 64 43 34 29 26 25 27 31 37 45 51 48 48 51 60 58 58 57 54 46 38 36
27 27 24 21 17 19 19 15 13 13 11 12 12 11 11 10 8 7 6 7 8 9 15 19 35 43 46 48 41 35 36 40 43 44 43 44 50 56 58 58 61 65 62 58
31 30 29 28 25 22 18 20 20 16 14 14 14 14 14 13 11 11 12 12 11 12 15 16 15 16 22 31 51 48 46 43 44 50 66 88 94 90 88 82 74 73 72 76
42 44 37 32 32 29 27 22 20 22 20 15 15 15 14 15 15 16 16 15 15 15 16 16 15 15 16 20 37 51 58 66 83 97 98 95 95 100 97 93 94 91 85 80
59 62 60 51 43 37 34 32 31 25 26 21 15 16 14 13 13 14 17 18 22 28 26 18 15 14 16 20 35 70 94 100 100 100 95 98 100 100 100 100 100 86 53 23
74 75 74 68 62 50 42 39 36 36 34 32 27 24 24 22 18 21 26 34 42 42 34 26 18 16 20 29 38 65 93 86 96 100 97 96 100 100 100 99 38 15 13 14
71 73 73 72 76 72 55 48 46 42 41 41 38 31 29 30 31 33 38 46 51 49 44 34 22 19 28 40 56 94 100 94 94 95 98 100 100 100 84 27 12 14 22 28
73 72 73 77 84 86 75 66 72 67 52 48 48 46 40 40 40 42 47 54 58 57 52 38 24 20 29 51 80 91 90 82 86 95 99 97 100 78 15 14 16 27 30 40
80 75 77 82 85 83 89 94 93 89 72 66 64 60 52 52 60 62 63 66 66 62 55 42 26 15 16 28 66 72 76 81 94 98 93 94 54 10 16 21 29 29 42 67
77 81 83 85 87 85 82 83 88 91 85 82 86 89 87 86 93 89 84 77 75 67 62 49 24 16 22 27 36 54 69 83 91 91 93 27 9 17 24 32 31 37 66 80
74 82 83 86 91 88 84 80 83 89 95 97 97 98 97 99 100 97 94 86 84 73 64 53 25 21 34 39 46 60 71 80 85 91 33 8 15 24 34 37 39 46 78 67
80 82 86 91 90 93 93 89 91 96 98 97 98 99 98 98 98 100 100 95 88 76 68 55 29 26 39 46 50 64 75 81 87 67 8 9 21 32 39 40 41 70 77 80
82 89 89 88 88 92 91 91 94 96 98 97 99 99 98 100 98 98 100 97 92 83 74 60 37 26 35 44 52 60 74 81 86 40 7 11 26 39 43 39 45 76 78 71
80 79 81 80 88 94 94 92 97 98 97 97 98 100 99 99 100 98 100 99 97 92 82 66 44 28 35 49 53 60 72 80 90 30 7 14 28 47 43 37 53 82 83 67
91 93 90 84 88 94 98 98 100 99 98 98 98 99 100 98 100 100 100 99 98 98 94 75 51 32 32 55 62 64 77 81 89 24 8 16 30 49 40 39 53 84 83 77
87 85 88 90 94 88 90 97 100 100 98 97 99 100 100 99 100 100 100 100 100 100 100 84 56 36 31 59 72 70 78 85 91 24 8 19 33 47 41 36 53 83 86 89
92 88 89 88 90 96 95 93 100 100 100 100 99 99 100 100 100 100 100 100 100 100 100 90 62 40 32 61 80 76 80 90 94 23 8 20 33 45 38 32 52 82 86 85
98 98 89 82 88 97 99 98 98 100 99 99 99 100 100 100 100 100 100 100 100 100 100 94 63 40 35 58 84 79 83 96 96 24 8 20 34 48 38 30 49 83 80 81
96 99 95 91 87 90 98 98 97 100 99 98 100 100 100 100 100 100 100 100 100 100 100 94 62 39 36 59 88 84 85 98 100 36 8 20 35 50 42 30 46 86 83 82

GFSNGP_500_rhum_114.txt.gz
RH
17 18 18 17 16 16 15 15 15 17 14 14 14 14 15 15 16 16 17 18 19 19 18 16 15 15 16 17 18 19 18 16 15 12 19 31 34 28 49 83 77 50 61 92
15 15 14 16 18 20 20 18 18 18 18 17 18 18 17 18 17 16 17 17 18 18 20 21 22 21 20 19 19 19 20 21 21 21 21 20 19 17 16 16 16 16 17 17
10 9 7 9 9 10 11 14 14 17 19 19 20 19 19 19 20 21 22 22 22 20 20 20 20 21 23 24 25 25 26 26 26 26 27 27 27 27 28 27 27 27 28 29
11 8 8 8 7 6 6 7 7 8 12 15 17 19 20 22 22 22 23 23 24 23 24 24 25 26 27 29 31 35 37 40 42 42 42 41 39 37 35 35 36 37 37 37
15 14 10 9 9 8 8 7 7 6 5 5 7 14 15 17 16 16 16 17 16 16 16 16 18 22 26 30 32 35 52 81 88 88 79 77 71 66 65 69 69 68 66 68
20 18 16 15 15 12 10 10 9 8 8 7 7 7 7 6 10 15 16 17 22 32 36 40 33 32 29 29 27 25 24 27 28 31 36 46 56 76 93 98 100 100 100 98
24 23 21 18 19 17 16 15 11 11 10 10 10 9 9 9 9 9 8 8 8 8 8 10 17 21 27 28 35 32 35 39 41 37 34 32 36 44 52 55 56 70 86 91
22 25 26 28 27 22 20 20 18 17 14 13 13 13 13 12 12 12 12 13 14 13 14 13 11 12 14 14 16 17 18 21 30 39 43 41 40 41 42 44 46 48 51 54
20 24 29 35 33 30 29 26 24 22 20 20 18 15 15 16 16 17 17 18 18 19 17 16 16 16 17 17 16 17 17 18 22 29 42 52 51 50 55 70 83 81 76 76
39 33 45 45 45 43 36 34 31 28 26 22 21 23 17 15 16 16 16 16 15 17 18 18 19 22 25 23 17 14 13 15 20 28 58 81 87 95 96 94 87 79 73 74
56 58 59 58 60 66 59 49 40 36 33 33 33 28 28 19 18 18 16 16 15 17 23 29 38 41 40 35 23 19 17 18 28 60 87 100 86 86 91 90 83 84 86 94
58 57 65 72 73 78 73 65 58 49 43 40 39 38 36 34 28 24 24 24 23 27 34 42 49 50 49 44 31 21 15 19 38 69 93 88 70 82 88 90 91 85 83 86
76 71 65 63 58 67 68 69 74 71 61 52 51 51 46 43 40 34 30 32 34 37 44 52 58 57 55 50 30 18 16 19 29 52 59 56 65 82 92 98 93 87 59 16
81 72 77 64 63 62 60 68 74 76 75 70 72 75 67 53 52 49 44 43 46 57 60 64 67 65 60 57 29 18 20 25 31 42 56 68 78 83 80 73 37 14 15 20
62 74 78 77 75 68 69 72 79 78 81 83 85 85 83 71 71 70 74 73 75 86 80 78 78 70 66 60 28 19 26 29 36 45 53 63 74 74 44 9 10 18 27 29
57 62 71 78 73 78 80 78 85 88 89 91 90 93 94 87 90 96 95 92 95 96 94 92 88 76 70 65 31 20 32 37 43 52 58 63 72 49 8 8 16 26 29 31
54 58 55 64 70 74 83 86 88 90 95 94 94 94 97 97 100 99 97 96 96 96 98 99 95 83 76 73 36 20 32 44 49 54 63 71 72 18 7 13 22 32 33 46
58 64 66 68 67 63 72 80 84 88 96 97 96 97 98 98 100 99 98 98 97 97 96 100 99 93 84 77 51 22 28 42 53 59 64 72 68 10 7 17 30 32 35 57
72 77 78 76 77 74 72 75 75 88 91 92 97 100 99 98 99 98 99 97 97 100 95 99 100 99 91 83 63 26 28 44 53 61 71 76 62 8 9 22 33 31 44 64
96 98 97 90 83 81 83 86 92 96 93 94 98 100 99 98 100 99 99 99 95 100 97 100 99 100 97 90 72 34 28 44 60 63 77 87 54 8 13 28 33 29 58 65
100 100 100 100 100 99 98 99 100 100 100 99 98 98 99 100 100 98 100 100 94 98 100 100 100 99 99 96 84 45 29 43 68 68 83 94 44 8 16 31 31 30 64 66
100 97 100 99 98 98 98 98 98 99 99 98 99 99 99 98 98 100 100 99 100 96 100 100 98 99 100 100 91 54 31 46 75 73 86 96 36 9 18 33 30 32 66 69
100 100 100 100 92 95 92 98 97 100 100 98 100 100 99 99 100 100 100 99 100 99 100 100 99 100 100 100 96 60 31 45 79 77 89 98 33 10 20 33 27 38 68 71
99 100 100 100 97 82 70 92 97 99 100 100 100 100 100 100 100 100 100 100 97 95 100 100 100 100 100 100 96 64 33 41 82 80 90 100 32 10 22 34 27 44 72 72
78 97 100 100 100 86 77 91 93 100 100 100 100 100 100 100 100 100 100 100 96 96 100 100 100 100 100 100 97 68 34 39 82 85 92 100 42 11 23 36 29 52 75 73
92 82 86 96 87 85 94 95 97 100 100 100 100 100 100 100 100 100 100 100 99 100 100 100 100 100 100 100 98 71 35 39 81 90 96 100 48 11 23 38 31 47 76 71
19 30 41 60 85 92 90 91 98 100 100 100 100 100 100 100 100 100 100 100 100 100 100 100 100 100 100 100 98 67 34 41 86 94 97 100 48 11 22 39 36 40 64 68

GFSNGP_500_rhum_117.txt.gz
RH
14 11 10 8 9 9 8 10 11 17 18 19 19 18 18 18 18 19 20 20 20 21 22 22 21 22 22 23 24 25 26 26 26 26 26 26 25 23 21 19 18 18 17 19
10 10 8 8 7 6 6 7 6 5 7 5 12 16 19 19 20 20 21 21 22 23 23 24 24 25 26 27 28 29 31 33 36 47 50 44 38 34 33 32 31 29 27 26
14 11 9 9 8 8 9 7 7 7 6 5 5 6 7 11 15 16 16 17 17 17 18 18 18 18 19 19 19 20 22 24 26 29 33 47 66 78 82 75 63 52 49 49
18 17 15 13 16 13 10 10 9 8 8 8 6 6 6 6 6 7 6 8 10 11 13 15 16 18 21 27 28 29 29 35 36 35 33 32 32 32 33 36 51 70 86 98
21 23 23 19 19 21 17 17 16 12 11 10 10 9 8 8 8 8 8 8 8 9 10 10 12 12 12 14 15 16 16 17 17 18 20 22 24 27 34 36 38 43 51 54
20 23 26 26 27 28 23 19 21 21 19 17 15 13 13 13 12 12 12 12 13 16 18 18 19 20 19 19 19 18 18 18 18 18 18 19 18 19 20 29 40 46 47 49
16 22 26 28 33 38 32 29 29 27 26 25 23 21 21 18 16 17 17 18 19 20 20 20 22 22 20 19 19 22 22 24 22 20 16 17 18 18 27 50 58 56 57 58
40 36 34 39 50 45 46 46 43 38 34 31 30 30 31 30 26 24 19 19 18 18 18 18 20 24 26 33 38 40 40 39 39 35 29 20 12 15 30 58 67 67 67 72
58 59 45 56 55 58 60 62 64 58 51 44 38 34 35 35 35 29 25 22 19 18 20 21 23 27 33 44 48 48 46 45 42 35 17 13 11 18 30 56 46 39 51 70
53 70 70 65 62 67 75 76 76 72 67 58 51 47 43 40 40 39 36 35 30 25 25 27 28 32 39 51 60 57 52 50 43 24 14 14 16 24 33 36 42 61 66 74
47 81 65 78 76 78 77 69 73 73 74 67 70 66 57 49 48 48 46 43 42 37 33 34 36 44 53 64 69 66 60 52 43 19 18 22 23 34 44 51 58 66 69 73
39 43 34 64 90 90 82 75 64 70 79 76 77 80 75 62 66 72 64 49 52 52 46 46 51 66 78 79 78 75 65 56 44 20 19 28 35 46 50 59 64 62 33 8
43 43 39 41 40 62 79 82 85 84 79 83 84 85 85 86 92 95 91 78 68 73 71 76 75 85 92 89 86 83 72 61 49 22 20 32 40 48 64 68 62 29 6 7
41 36 41 49 44 46 47 58 77 88 86 89 90 91 90 93 96 97 96 95 91 94 97 97 96 96 96 94 93 88 79 67 59 26 19 31 44 52 61 68 48 9 6 11
43 40 40 40 53 54 52 52 53 64 75 88 92 96 91 94 97 97 99 98 97 97 98 99 98 97 95 96 97 93 86 75 68 39 18 26 44 55 68 71 38 7 12 23
46 47 53 49 49 48 48 51 61 65 72 84 94 100 100 97 96 96 97 98 100 98 99 99 99 100 100 100 100 98 94 83 75 53 22 23 41 54 70 70 25 8 19 26
30 35 49 53 62 63 61 60 65 71 72 76 82 85 94 95 100 97 96 98 98 99 100 100 100 100 100 100 100 100 98 90 82 67 31 22 39 55 71 67 15 11 26 24
35 46 60 59 56 59 72 77 75 77 85 78 80 77 87 97 96 98 98 97 97 99 99 100 100 100 100 100 100 100 100 96 89 75 43 23 34 58 76 62 13 15 28 24
34 42 46 56 68 76 84 89 86 88 91 88 96 100 100 100 99 98 98 98 98 98 99 99 100 100 100 100 100 100 100 99 95 82 50 26 36 60 78 56 11 18 26 25
50 60 69 83 94 100 100 99 100 100 100 100 100 99 100 100 100 98 98 99 97 97 100 100 100 100 100 100 100 100 100 100 100 87 52 29 39 62 79 52 11 23 26 30
100 100 100 100 100 100 99 100 100 99 97 99 100 100 100 100 100 99 99 100 96 100 100 100 100 100 100 100 100 100 100 100 100 90 52 30 41 63 79 46 12 26 25 38
100 100 100 95 92 98 100 100 80 94 100 100 93 79 83 100 100 100 100 98 100 100 100 100 100 100 100 100 100 100 100 100 100 92 57 32 42 67 79 44 13 28 25 44
78 76 100 100 100 100 100 100 98 100 100 100 82 80 68 98 100 100 100 100 100 100 100 100 99 100 100 100 100 100 100 100 100 95 61 34 45 74 81 42 15 31 27 50
6 6 21 61 78 79 77 95 100 100 99 99 100 96 77 97 100 100 100 100 100 100 100 99 98 100 100 100 100 100 100 100 100 97 63 35 52 79 82 40 15 33 30 59
4 4 4 3 4 6 15 68 100 100 100 100 96 88 79 94 100 100 100 100 100 100 100 100 100 100 100 100 100 100 99 100 100 97 62 37 56 83 82 34 16 35 33 62
6 8 9 7 4 4 6 55 79 72 84 87 76 92 94 93 99 100 100 100 100 100 100 100 100 100 100 100 100 100 100 100 100 98 54 37 71 87 84 30 16 38 35 63
20 24 19 13 12 8 5 10 24 89 100 100 100 100 100 98 100 100 100 100 100 100 100 100 100 100 100 100 100 100 100 100 100 96 43 43 92 89 85 28 15 39 35 56

GFSNGP_500_rhum_120.txt.gz
RH
10 9 8 8 8 8 8 7 6 6 5 5 5 6 7 12 15 18 19 18 20 20 16 15 16 13 12 13 16 18 19 19 20 22 24 27 28 28 29 35 50 63 64 56
15 14 12 10 12 11 10 10 10 8 8 8 7 6 5 5 5 5 7 9 7 8 9 10 9 8 10 13 15 19 19 18 19 19 20 22 21 22 24 24 23 24 26 29
17 18 17 15 16 19 18 15 17 15 12 12 12 10 9 8 7 7 7 7 7 8 8 8 9 10 12 12 14 16 16 17 18 18 18 17 16 17 19 18 18 18 18 18
21 23 23 23 23 22 27 22 18 20 21 20 18 18 17 14 13 12 11 12 11 12 13 15 17 20 21 21 22 23 22 22 22 23 23 24 25 28 28 21 22 22 20 18
19 21 21 24 27 27 33 34 25 26 26 25 25 25 24 22 21 19 17 17 17 18 19 20 21 22 24 25 27 28 28 31 37 40 40 38 37 36 35 30 18 10 14 14
20 26 22 26 28 30 37 36 32 38 36 34 33 30 28 29 30 30 29 27 22 19 19 20 21 22 22 23 26 30 37 45 49 47 46 43 41 36 30 13 11 14 19 21
39 28 38 32 39 41 46 46 54 54 55 56 48 43 39 33 31 34 36 36 34 29 24 21 19 20 20 21 27 34 41 52 61 60 53 49 43 35 19 12 14 18 24 29
69 68 73 64 63 64 64 64 62 68 71 72 71 68 60 51 45 41 39 39 41 40 37 33 28 25 26 27 30 36 46 59 68 70 63 54 45 37 18 16 20 22 29 39
48 61 65 50 71 63 60 69 73 73 73 69 68 66 63 64 65 65 61 56 52 51 48 48 47 42 37 36 36 41 62 72 76 78 70 59 49 38 21 17 23 29 35 46
51 65 43 43 35 32 33 34 45 57 64 67 64 64 63 65 70 74 77 78 77 82 78 79 65 61 58 60 66 61 77 83 84 84 78 66 55 43 26 17 24 33 43 51
30 39 35 42 37 34 32 29 25 25 31 49 63 76 74 77 75 79 86 88 90 90 92 95 79 78 80 84 91 84 92 92 90 91 85 73 63 52 33 18 18 28 44 55
23 31 26 37 34 33 31 33 34 32 31 34 38 45 64 81 81 81 87 91 94 92 89 91 94 95 96 100 100 99 99 99 96 98 93 83 73 62 41 22 18 23 41 58
31 38 37 43 38 38 34 38 37 38 39 40 42 40 47 56 72 85 91 96 98 100 100 97 98 99 100 100 100 100 100 99 100 100 100 94 82 73 46 29 20 22 39 62
40 35 34 34 32 39 41 41 37 40 47 50 52 52 54 63 79 87 96 100 100 98 96 100 98 97 100 100 100 100 98 100 100 100 100 100 94 84 56 29 26 36 46 66
39 37 32 28 28 29 32 38 44 56 57 59 60 62 61 68 88 98 100 100 99 100 99 97 97 98 99 100 100 100 99 100 100 100 100 100 100 92 66 34 27 41 62 64
33 31 29 27 24 26 28 31 43 72 75 79 75 64 60 68 87 100 100 100 98 97 100 100 97 98 100 99 100 100 100 99 100 100 100 100 100 97 72 36 29 43 66 48
36 32 27 22 19 19 24 30 43 69 78 62 53 59 81 98 100 100 100 100 100 99 98 100 97 98 100 98 100 100 100 98 100 100 100 100 100 99 74 34 36 55 71 40
16 13 13 12 12 14 15 18 24 44 61 81 90 96 90 91 100 100 100 100 100 100 100 97 98 98 100 99 100 100 100 100 100 100 99 100 100 100 77 36 40 62 73 25
11 10 10 10 13 17 47 75 95 100 100 100 100 100 99 100 100 100 100 100 99 100 99 100 100 100 100 100 99 100 100 100 100 100 98 99 100 98 81 40 48 69 70 18
7 5 5 12 20 24 55 88 100 100 100 100 100 100 100 100 100 100 100 100 100 100 100 100 100 100 100 100 99 100 100 100 100 100 99 99 99 96 85 42 49 74 64 18
4 3 3 3 3 28 98 100 90 99 100 100 95 100 100 100 100 100 100 100 98 100 100 100 100 100 100 99 100 100 100 100 100 100 100 96 97 97 88 45 52 81 54 20
3 3 3 3 3 14 54 79 97 95 100 100 100 100 95 95 98 68 100 100 100 100 94 100 100 100 100 100 100 100 100 100 100 100 100 98 97 98 89 48 57 85 42 23
3 3 3 3 3 3 4 11 28 77 97 91 96 92 92 100 84 79 90 100 100 100 100 100 90 98 98 97 100 100 100 100 100 100 100 99 98 100 89 48 65 87 33 25
3 4 3 3 3 3 3 3 3 3 3 4 7 18 34 46 75 93 100 100 89 90 100 100 97 99 94 100 100 100 100 100 100 100 100 100 99 100 88 48 71 88 29 26
4 3 3 3 3 3 3 4 4 5 6 6 6 7 10 14 48 76 80 85 81 77 100 100 100 100 96 100 100 100 100 100 100 100 100 100 100 100 84 51 78 89 27 27
4 4 4 4 4 5 6 6 8 17 20 14 11 7 6 27 54 92 100 100 89 96 100 100 100 100 100 100 100 100 100 100 100 100 100 100 100 100 73 56 88 92 28 27
5 5 5 5 15 23 34 48 40 38 54 32 11 8 7 40 96 100 100 100 100 100 100 100 100 100 100 100 100 100 100 100 100 100 100 100 100 100 55 66 92 93 30 25

GFSNGP_500_rhum_126.txt.gz
RH
14 12 12 12 14 16 18 19 20 18 18 19 20 21 20 21 22 23 24 24 25 26 25 25 23 21 20 19 19 20 22 24 26 29 33 38 41 43 50 56 58 54 48 43
18 19 21 21 21 22 25 25 24 28 32 35 30 32 33 31 29 30 30 30 32 32 32 32 33 31 29 27 23 22 22 23 24 26 28 31 34 40 50 59 65 64 60 51
20 21 22 22 22 24 26 26 30 29 33 42 39 43 49 49 52 52 48 46 42 39 38 41 45 46 46 45 42 38 34 31 26 22 24 24 27 33 47 66 71 70 65 59
18 19 20 19 18 20 19 24 29 38 42 46 50 56 57 58 60 59 62 63 58 53 52 53 54 58 59 60 56 51 48 49 43 34 32 28 25 30 42 69 78 77 72 67
15 16 16 16 16 21 27 37 46 51 52 52 60 64 65 53 55 55 59 58 57 57 57 58 59 63 67 70 71 67 59 64 61 56 65 64 39 43 57 73 82 81 78 73
21 27 29 43 54 62 73 69 64 66 67 56 42 22 51 51 34 29 27 30 34 38 44 48 58 63 69 73 77 81 81 79 85 78 89 95 58 52 69 80 92 89 85 80
65 66 75 80 77 76 61 53 49 45 48 32 27 27 28 28 28 26 26 27 27 26 28 26 26 26 37 58 76 80 89 90 98 95 95 98 95 94 97 97 99 98 92 86
69 81 84 80 78 75 62 62 53 44 41 37 38 38 37 35 32 30 27 24 25 25 27 29 30 30 34 62 76 96 97 95 97 98 100 99 100 98 98 97 100 100 99 94
61 60 56 46 51 54 48 46 48 39 50 47 42 41 38 35 34 32 31 30 28 25 26 31 33 41 50 67 85 100 100 100 99 99 100 100 98 100 100 98 100 99 100 98
48 71 61 56 46 38 39 36 41 48 46 43 39 38 36 36 35 32 31 33 33 33 32 32 35 47 68 78 78 96 100 100 100 97 100 98 100 100 100 100 98 100 100 100
38 42 43 60 55 48 44 48 45 41 40 40 40 41 40 40 37 37 38 34 31 30 29 30 35 61 80 85 88 100 100 100 100 100 100 100 98 100 100 100 100 100 100 100
55 50 46 47 50 51 51 52 53 52 51 52 57 59 57 53 46 39 30 24 22 26 27 22 36 78 90 91 100 100 100 100 99 100 99 100 100 100 100 100 100 100 100 100
75 66 61 56 55 57 59 61 66 72 75 72 70 67 56 41 30 25 19 16 14 12 12 15 35 82 100 100 100 100 100 100 100 100 100 100 100 100 100 100 100 100 100 100
90 90 89 88 90 90 86 80 76 79 76 65 59 54 48 48 50 46 28 13 11 10 12 23 49 86 100 100 100 99 97 100 100 100 100 100 100 100 100 100 100 100 100 100
89 81 75 66 59 53 46 36 30 28 29 31 28 27 26 23 18 11 8 7 8 11 27 59 93 96 92 85 91 98 100 100 100 100 99 100 100 100 100 100 100 100 99 99
28 30 37 37 23 15 12 11 10 10 12 16 16 14 11 9 8 7 5 5 22 69 95 95 95 85 87 91 99 100 100 100 99 100 100 100 100 100 100 100 100 98 100 100
21 17 14 12 10 10 9 9 9 9 10 12 11 9 7 5 3 3 3 20 90 100 100 96 97 96 100 100 100 100 100 100 100 100 97 100 100 100 99 98 100 98 100 100
20 18 16 14 12 10 8 8 8 8 7 7 6 5 4 3 3 4 4 12 64 98 100 100 100 100 100 93 97 100 100 95 96 100 100 100 100 100 96 99 100 100 100 100
16 15 13 11 9 8 8 6 5 5 5 4 4 3 3 3 3 3 3 3 4 36 100 93 98 100 91 96 100 90 95 91 82 90 100 100 100 100 100 100 100 100 100 100
14 12 11 9 6 5 5 5 4 4 4 4 4 4 3 3 3 3 3 3 3 4 11 28 36 47 46 71 94 84 72 73 79 67 76 88 100 100 100 100 100 100 100 100
13 11 8 6 5 5 4 5 5 4 5 4 4 4 4 3 3 3 3 3 4 3 4 3 4 5 8 15 27 62 64 35 80 66 48 46 89 100 100 100 100 100 100 100
8 7 6 6 5 5 4 4 4 4 4 4 4 4 4 4 4 4 4 4 4 4 5 7 7 9 7 8 24 83 72 64 85 62 52 59 93 100 100 100 100 100 100 100
7 6 5 5 4 4 4 3 3 3 3 3 3 4 4 4 4 4 4 7 8 9 9 11 15 14 14 14 58 63 100 100 85 72 66 98 100 100 100 100 100 100 100 100
5 4 4 4 3 3 3 3 3 3 3 3 3 4 4 4 4 5 5 10 13 16 22 24 22 16 14 20 38 95 100 100 100 100 100 100 100 100 100 100 100 100 100 100
4 3 3 3 3 4 4 4 4 4 4 4 5 6 6 6 6 7 9 26 32 32 39 44 24 12 10 17 96 100 100 100 100 99 100 100 100 100 100 100 100 100 100 100
5 5 5 6 7 6 5 5 5 6 6 7 7 11 19 36 42 28 30 37 47 60 53 53 20 9 17 58 100 100 100 100 100 100 100 100 100 100 100 100 100 100 100 100
10 12 12 11 11 9 8 8 8 8 25 54 19 53 75 81 67 53 42 50 72 69 77 74 31 14 65 100 100 100 100 100 100 100 100 100 100 100 100 100 100 100 100 100

GFSNGP_500_rhum_129.txt.gz
RH
10 10 10 12 14 16 18 22 22 22 25 28 31 40 37 38 41 41 43 47 45 42 42 42 44 46 48 51 53 56 58 57 57 51 52 49 43 35 29 27 28 27 38 58
16 17 20 20 21 22 23 24 26 28 31 32 33 43 43 47 55 55 55 57 55 54 53 50 48 49 51 52 53 57 62 64 64 68 69 64 60 61 48 46 62 61 32 50
17 19 21 21 22 22 22 23 24 25 33 35 40 44 47 56 60 61 61 60 57 55 54 54 53 53 54 56 49 38 47 62 60 70 76 75 79 83 74 66 90 84 50 63
16 17 18 18 19 20 19 19 22 29 36 48 53 57 58 59 47 56 55 38 26 22 25 26 24 22 23 24 22 22 25 27 42 70 85 84 83 89 92 84 96 95 97 92
15 14 15 15 16 17 20 27 39 70 78 76 65 78 76 46 34 25 23 25 26 24 25 27 26 25 26 25 24 25 26 27 39 67 91 92 88 87 98 95 99 100 99 98
16 16 22 49 65 71 74 82 85 87 81 82 65 44 64 46 39 33 31 32 32 30 31 30 28 27 27 28 28 28 34 44 53 62 84 99 94 92 97 100 100 100 99 98
83 82 82 80 78 78 78 81 86 85 81 70 60 47 40 42 42 40 39 37 35 33 33 33 31 29 31 33 35 33 32 40 58 81 92 100 99 96 98 94 99 100 99 99
80 72 72 69 58 55 54 66 65 68 66 64 53 47 46 45 45 43 40 38 37 38 38 37 34 37 38 35 34 42 47 36 57 86 100 100 99 99 99 96 100 100 100 99
80 69 63 62 56 50 47 50 55 53 52 48 47 49 46 44 44 42 43 44 47 51 56 51 47 43 36 30 28 30 40 32 59 100 100 100 100 100 100 97 99 100 100 99
58 62 62 60 60 58 63 58 56 54 50 50 48 48 48 52 55 59 66 71 76 77 72 64 49 40 34 28 22 24 24 50 95 100 100 100 100 100 100 100 100 100 100 100
63 68 69 74 70 64 64 63 60 59 58 59 62 67 71 76 79 83 83 82 76 67 62 60 51 40 36 28 17 14 14 35 89 100 100 100 97 100 99 100 100 100 100 100
80 81 80 77 79 87 91 92 90 88 86 88 90 93 93 92 85 78 70 58 41 33 32 31 29 22 15 11 11 13 30 63 96 100 99 100 100 100 100 100 100 100 100 100
100 97 93 91 89 92 94 91 88 83 78 76 69 53 39 30 22 15 12 10 10 11 11 12 11 10 8 9 16 37 70 91 94 94 100 100 100 100 100 100 100 100 99 100
80 84 86 87 64 46 36 28 22 25 27 22 16 12 11 9 9 9 9 8 9 10 10 9 7 8 22 51 77 82 83 84 95 100 100 100 100 100 100 100 100 100 100 100
55 51 46 42 37 30 24 22 19 17 15 15 14 13 11 10 9 8 7 7 6 7 7 5 4 6 41 83 85 100 93 95 99 100 100 100 100 100 100 100 100 100 100 100
47 44 40 35 31 30 30 28 25 21 19 17 13 10 8 7 7 5 5 6 6 6 4 3 4 3 6 64 91 92 99 99 100 97 98 97 100 100 100 100 100 100 100 100
49 47 44 40 38 38 34 27 24 19 15 12 11 9 8 7 5 4 5 5 4 4 3 3 3 4 4 28 80 88 84 86 98 100 95 98 100 100 100 100 100 100 100 100
52 50 47 42 34 28 29 28 20 16 14 13 12 11 10 7 5 4 4 4 4 4 4 4 3 3 3 4 12 52 72 72 69 80 94 84 82 81 81 71 80 100 100 100
54 51 48 45 40 36 28 25 23 21 17 14 13 11 8 6 5 4 3 4 4 4 4 4 3 3 3 3 3 6 15 26 30 54 66 64 58 60 58 67 93 94 100 100
50 50 49 46 42 37 35 31 26 23 17 11 9 7 5 4 4 4 3 3 4 4 4 4 4 4 4 3 4 4 4 5 12 21 33 98 72 85 62 58 99 100 100 100
48 47 47 45 38 28 21 20 18 14 11 7 5 4 3 3 3 3 3 3 4 4 4 4 4 4 4 4 4 6 10 12 22 100 99 58 88 100 100 93 99 100 100 100
53 51 49 39 27 25 18 11 7 5 4 3 2 2 2 2 2 2 3 3 3 4 5 5 5 7 8 7 8 16 24 21 20 89 96 100 100 100 100 100 100 100 100 100
33 19 11 7 6 5 4 3 3 3 2 3 3 3 3 3 3 3 3 5 5 6 6 7 8 12 15 17 28 29 25 21 62 100 99 100 93 96 99 100 100 100 100 100
7 6 5 4 4 3 3 3 3 3 4 5 5 5 5 4 6 8 26 15 12 19 22 19 20 25 34 42 50 41 19 28 69 70 100 100 84 95 100 100 100 100 100 100
6 5 4 4 5 6 7 7 6 7 7 6 7 7 9 16 92 100 96 40 54 58 54 54 55 54 54 63 58 32 17 37 80 100 100 93 96 100 100 100 100 100 100 100
6 5 8 10 13 13 14 14 11 8 10 10 10 37 99 100 88 76 88 86 91 95 84 60 55 71 85 70 65 29 17 38 98 100 89 97 100 100 100 100 100 100 100 100
11 18 16 15 19 40 38 17 17 16 16 13 31 97 100 100 100 100 100 100 100 100 97 85 61 48 58 78 77 45 16 60 94 86 94 100 100 100 100 100 100 100 100 100